[[{"header":{"parameterUnit":"m.s-1","parameterCategory":1,"la1":30.6,"la2":29.2853,"lo1":-89.7004,"lo2":-87.6739,"dy":0.0162,"dx":0.0183,"nx":112,"ny":82,"refTime":"2024-11-22T06:00:00:Z","depth":0,"parameterNumber":2,"parameterNumberName":"U-component_of_WINDS"},"data":[0.0,0.0,0.0,0.0,0.0,0.0,0.0,0.0,0.0,0.0,0.0,0.0,0.0,0.0,0.0,0.0,0.0,0.0,0.0,0.0,0.0,0.0,0.0,0.0,0.0,0.0,0.0,0.0,0.0,0.0,0.0,0.0,0.0,0.0,0.0,0.0,0.0,0.0,0.0,0.0,0.0,0.0,0.0,0.0,0.0,0.0,0.0,0.0,0.0,0.0,0.0,0.0,0.0,0.0,0.0,0.0,0.0,0.0,0.0,0.0,0.0,0.0,0.0,0.0,0.0,0.0,0.0,0.0,0.0,0.0,0.0,0.0,0.0,0.0,0.0,0.0,0.0,0.0,0.0,0.0,0.0,0.0,0.0,0.0,0.0,0.0,0.0,0.0,0.0,0.0,-2.7198,-2.928,-3.0698,-3.1833,-3.2641,-3.0377,-2.7871,-2.5442,0.0,0.0,0.0,0.0,0.0,0.0,0.0,0.0,0.0,0.0,0.0,0.0,0.0,0.0,0.0,0.0,0.0,0.0,0.0,0.0,0.0,0.0,0.0,0.0,0.0,0.0,0.0,0.0,0.0,0.0,0.0,0.0,0.0,0.0,0.0,0.0,0.0,0.0,0.0,0.0,0.0,0.0,0.0,0.0,0.0,0.0,0.0,0.0,0.0,0.0,0.0,0.0,0.0,0.0,0.0,0.0,0.0,0.0,0.0,0.0,0.0,0.0,0.0,0.0,0.0,0.0,0.0,0.0,0.0,0.0,0.0,0.0,0.0,0.0,0.0,0.0,0.0,0.0,0.0,0.0,0.0,0.0,0.0,0.0,0.0,0.0,0.0,0.0,0.0,0.0,0.0,0.0,0.0,0.0,0.0,0.0,0.0,0.0,0.0,0.0,0.0,0.0,0.0,0.0,-2.6981,-3.0891,-3.0885,-3.0942,-3.1814,-2.9544,-2.7294,-2.5423,0.0,0.0,0.0,0.0,0.0,0.0,0.0,0.0,0.0,0.0,0.0,0.0,0.0,0.0,0.0,0.0,0.0,0.0,0.0,0.0,0.0,0.0,0.0,0.0,0.0,0.0,0.0,0.0,0.0,0.0,0.0,0.0,0.0,0.0,0.0,0.0,0.0,0.0,0.0,0.0,0.0,0.0,0.0,0.0,0.0,0.0,0.0,0.0,0.0,0.0,0.0,0.0,0.0,0.0,0.0,0.0,0.0,0.0,0.0,0.0,0.0,0.0,0.0,0.0,0.0,0.0,0.0,0.0,0.0,0.0,0.0,0.0,0.0,0.0,0.0,0.0,0.0,0.0,0.0,0.0,0.0,0.0,0.0,0.0,0.0,0.0,0.0,0.0,0.0,0.0,0.0,0.0,0.0,0.0,0.0,0.0,0.0,0.0,0.0,0.0,0.0,0.0,0.0,-2.5755,-2.7986,-3.1333,-3.1346,-3.1077,-3.1,-2.9083,-2.6774,-2.412,-2.1558,0.0,0.0,0.0,0.0,0.0,0.0,0.0,0.0,0.0,0.0,0.0,0.0,0.0,0.0,0.0,0.0,0.0,0.0,0.0,0.0,0.0,0.0,0.0,0.0,0.0,0.0,0.0,0.0,0.0,0.0,0.0,0.0,0.0,0.0,0.0,0.0,0.0,0.0,0.0,0.0,0.0,0.0,0.0,0.0,0.0,0.0,0.0,0.0,0.0,0.0,0.0,0.0,0.0,0.0,0.0,0.0,0.0,0.0,0.0,0.0,0.0,0.0,0.0,0.0,0.0,0.0,0.0,0.0,0.0,0.0,0.0,0.0,0.0,0.0,0.0,0.0,0.0,0.0,0.0,0.0,0.0,0.0,0.0,0.0,0.0,0.0,0.0,0.0,0.0,0.0,0.0,0.0,0.0,0.0,0.0,0.0,0.0,0.0,0.0,0.0,0.0,0.0,-2.764,-2.8794,-3.1141,-3.1218,-3.0814,-3.0154,-2.8198,-2.5798,-2.299,-1.9846,0.0,0.0,0.0,0.0,0.0,0.0,0.0,0.0,0.0,0.0,0.0,0.0,0.0,0.0,0.0,0.0,0.0,0.0,0.0,0.0,0.0,0.0,0.0,0.0,0.0,0.0,0.0,0.0,0.0,0.0,0.0,0.0,0.0,0.0,0.0,0.0,0.0,0.0,0.0,0.0,0.0,0.0,0.0,0.0,0.0,0.0,0.0,0.0,0.0,0.0,0.0,0.0,0.0,0.0,0.0,0.0,0.0,0.0,0.0,0.0,0.0,0.0,0.0,0.0,0.0,0.0,0.0,0.0,0.0,0.0,0.0,0.0,0.0,0.0,0.0,0.0,0.0,0.0,0.0,0.0,0.0,0.0,0.0,0.0,0.0,0.0,0.0,0.0,0.0,0.0,0.0,0.0,0.0,0.0,0.0,0.0,0.0,0.0,0.0,0.0,0.0,0.0,-2.6909,-2.8563,-3.0308,-2.9775,-2.9261,-2.9204,-2.6222,-2.3913,-2.2874,-1.8196,0.0,0.0,0.0,0.0,0.0,0.0,0.0,0.0,0.0,0.0,0.0,0.0,0.0,0.0,0.0,0.0,0.0,0.0,0.0,0.0,0.0,0.0,0.0,0.0,0.0,0.0,0.0,0.0,0.0,0.0,0.0,0.0,0.0,0.0,0.0,0.0,0.0,0.0,0.0,0.0,0.0,0.0,0.0,0.0,0.0,0.0,0.0,0.0,0.0,0.0,0.0,0.0,0.0,0.0,0.0,0.0,0.0,0.0,0.0,0.0,0.0,0.0,0.0,0.0,0.0,0.0,0.0,0.0,0.0,0.0,0.0,0.0,0.0,0.0,0.0,0.0,0.0,0.0,0.0,0.0,0.0,0.0,0.0,0.0,0.0,0.0,0.0,0.0,0.0,0.0,0.0,0.0,0.0,0.0,0.0,0.0,0.0,0.0,0.0,0.0,0.0,0.0,-2.6351,-2.7736,0.0,-2.93,-2.8684,-2.7621,-2.637,-2.4389,-2.1427,0.0,0.0,0.0,0.0,0.0,0.0,0.0,0.0,0.0,0.0,0.0,0.0,0.0,0.0,0.0,0.0,0.0,0.0,0.0,0.0,0.0,0.0,0.0,0.0,0.0,0.0,0.0,0.0,0.0,0.0,0.0,0.0,0.0,0.0,0.0,0.0,0.0,0.0,0.0,0.0,0.0,0.0,0.0,0.0,0.0,0.0,0.0,0.0,0.0,0.0,0.0,0.0,0.0,0.0,0.0,0.0,0.0,0.0,0.0,0.0,0.0,0.0,0.0,0.0,0.0,0.0,0.0,0.0,0.0,0.0,0.0,0.0,0.0,0.0,0.0,0.0,0.0,0.0,0.0,0.0,0.0,0.0,0.0,0.0,0.0,0.0,0.0,0.0,0.0,0.0,0.0,0.0,0.0,0.0,0.0,0.0,0.0,0.0,0.0,0.0,0.0,0.0,-2.4442,-2.5909,-2.714,0.0,-2.8472,-2.7832,-2.6697,-2.562,-2.3519,-2.0096,0.0,0.0,0.0,0.0,0.0,0.0,0.0,0.0,0.0,0.0,0.0,0.0,0.0,0.0,0.0,0.0,0.0,0.0,0.0,0.0,0.0,0.0,0.0,0.0,0.0,0.0,0.0,0.0,0.0,0.0,0.0,0.0,0.0,0.0,0.0,0.0,0.0,0.0,0.0,0.0,0.0,0.0,0.0,0.0,0.0,0.0,0.0,0.0,0.0,0.0,0.0,0.0,0.0,0.0,0.0,0.0,0.0,0.0,0.0,0.0,0.0,0.0,0.0,0.0,0.0,0.0,0.0,0.0,0.0,0.0,0.0,0.0,0.0,0.0,0.0,0.0,0.0,0.0,0.0,0.0,0.0,0.0,0.0,0.0,0.0,0.0,0.0,0.0,0.0,0.0,0.0,0.0,0.0,0.0,0.0,0.0,0.0,0.0,0.0,0.0,0.0,0.0,-2.3764,-2.5563,-2.6928,-2.7799,-2.7101,-2.6601,-2.6582,-2.3485,-2.0808,0.0,0.0,0.0,0.0,0.0,0.0,0.0,0.0,0.0,0.0,0.0,0.0,0.0,0.0,0.0,0.0,0.0,0.0,0.0,0.0,0.0,0.0,0.0,0.0,0.0,0.0,0.0,0.0,0.0,0.0,0.0,0.0,0.0,0.0,0.0,0.0,0.0,0.0,0.0,0.0,0.0,0.0,0.0,0.0,0.0,0.0,0.0,0.0,0.0,0.0,0.0,0.0,0.0,0.0,0.0,0.0,0.0,0.0,0.0,0.0,0.0,0.0,0.0,0.0,0.0,0.0,0.0,0.0,0.0,0.0,0.0,0.0,0.0,0.0,0.0,0.0,0.0,0.0,0.0,0.0,0.0,0.0,0.0,0.0,0.0,0.0,0.0,0.0,0.0,0.0,0.0,0.0,0.0,0.0,0.0,0.0,0.0,0.0,0.0,0.0,0.0,0.0,0.0,-2.3764,-2.5563,-2.6697,-2.6967,-2.6755,-2.6346,-2.5731,-2.4235,-2.2085,-1.918,0.0,0.0,0.0,0.0,0.0,0.0,0.0,0.0,0.0,0.0,0.0,0.0,0.0,0.0,0.0,0.0,0.0,0.0,0.0,0.0,0.0,0.0,0.0,0.0,0.0,0.0,0.0,0.0,0.0,0.0,0.0,0.0,0.0,0.0,0.0,0.0,0.0,0.0,0.0,0.0,0.0,0.0,0.0,0.0,0.0,0.0,0.0,0.0,0.0,0.0,0.0,0.0,0.0,0.0,0.0,0.0,0.0,0.0,0.0,0.0,0.0,0.0,0.0,0.0,0.0,0.0,0.0,0.0,0.0,0.0,0.0,0.0,0.0,0.0,0.0,0.0,0.0,0.0,0.0,0.0,0.0,0.0,0.0,0.0,0.0,0.0,0.0,0.0,0.0,0.0,0.0,0.0,0.0,0.0,0.0,0.0,0.0,0.0,0.0,0.0,0.0,0.0,-2.324,-2.5043,-2.6077,-2.6077,-2.6077,-2.5865,-2.5346,-2.4567,-2.2648,-1.9223,0.0,0.0,0.0,0.0,0.0,0.0,0.0,0.0,0.0,0.0,0.0,0.0,0.0,0.0,0.0,0.0,0.0,0.0,0.0,0.0,0.0,0.0,0.0,0.0,0.0,0.0,0.0,0.0,0.0,0.0,0.0,0.0,0.0,0.0,0.0,0.0,0.0,0.0,0.0,0.0,0.0,0.0,0.0,0.0,0.0,0.0,0.0,0.0,0.0,0.0,0.0,0.0,0.0,0.0,0.0,0.0,0.0,0.0,0.0,0.0,0.0,0.0,0.0,0.0,0.0,0.0,0.0,0.0,0.0,0.0,0.0,0.0,0.0,0.0,0.0,0.0,0.0,0.0,0.0,0.0,0.0,0.0,0.0,0.0,0.0,0.0,0.0,0.0,0.0,0.0,0.0,0.0,0.0,0.0,0.0,0.0,0.0,0.0,0.0,0.0,0.0,0.0,-2.2489,-2.425,-2.5308,-2.5308,-2.5308,-2.5308,-2.5308,-2.4567,-2.2686,-1.9338,0.0,0.0,0.0,0.0,0.0,0.0,0.0,0.0,0.0,0.0,0.0,0.0,0.0,0.0,0.0,0.0,0.0,0.0,0.0,0.0,0.0,0.0,0.0,0.0,0.0,0.0,0.0,0.0,0.0,0.0,0.0,0.0,0.0,0.0,0.0,0.0,0.0,0.0,0.0,0.0,0.0,0.0,0.0,0.0,0.0,0.0,0.0,0.0,0.0,0.0,0.0,0.0,0.0,0.0,0.0,0.0,0.0,0.0,0.0,0.0,-2.5059,-2.3572,0.0,0.0,0.0,0.0,0.0,0.0,0.0,0.0,0.0,0.0,0.0,0.0,0.0,0.0,0.0,0.0,0.0,0.0,0.0,0.0,0.0,0.0,0.0,0.0,0.0,0.0,0.0,0.0,0.0,0.0,0.0,0.0,0.0,0.0,0.0,0.0,0.0,0.0,0.0,0.0,-2.2566,-2.425,-2.5308,-2.5308,-2.5308,-2.5308,-2.5308,-2.4567,-2.2932,-2.0196,-1.8407,0.0,0.0,0.0,0.0,0.0,0.0,0.0,0.0,0.0,0.0,0.0,0.0,0.0,0.0,0.0,0.0,0.0,0.0,0.0,0.0,0.0,0.0,0.0,0.0,0.0,0.0,0.0,0.0,0.0,0.0,0.0,0.0,0.0,0.0,0.0,0.0,0.0,0.0,0.0,0.0,0.0,0.0,0.0,0.0,0.0,0.0,0.0,0.0,0.0,0.0,0.0,0.0,0.0,0.0,0.0,0.0,0.0,0.0,0.0,-2.8223,-2.664,0.0,0.0,0.0,0.0,0.0,0.0,0.0,0.0,0.0,0.0,0.0,0.0,0.0,0.0,0.0,0.0,0.0,0.0,0.0,0.0,0.0,0.0,0.0,0.0,0.0,0.0,0.0,0.0,0.0,0.0,0.0,0.0,0.0,0.0,0.0,0.0,0.0,0.0,0.0,0.0,-2.2528,-2.425,-2.5308,-2.5308,-2.5308,-2.5308,-2.5308,-2.4928,-2.3774,-2.1639,-1.9908,0.0,0.0,0.0,0.0,0.0,0.0,0.0,0.0,0.0,0.0,0.0,0.0,0.0,0.0,0.0,0.0,0.0,0.0,0.0,0.0,0.0,0.0,0.0,0.0,0.0,0.0,0.0,0.0,0.0,0.0,0.0,0.0,0.0,0.0,0.0,0.0,0.0,0.0,0.0,0.0,0.0,0.0,0.0,0.0,0.0,0.0,0.0,0.0,0.0,0.0,0.0,0.0,0.0,-3.4609,-3.4746,-3.4316,-3.4453,-3.4453,-3.4199,-3.207,-3.0742,-2.9901,-2.8093,0.0,0.0,0.0,0.0,0.0,0.0,0.0,0.0,0.0,0.0,0.0,0.0,0.0,0.0,0.0,0.0,0.0,0.0,0.0,0.0,0.0,0.0,0.0,0.0,-2.4125,-2.3952,-2.185,0.0,0.0,0.0,0.0,0.0,0.0,0.0,0.0,0.0,0.0,0.0,-2.272,-2.437,-2.5308,-2.5308,-2.5308,-2.5308,-2.5308,-2.5308,-2.4654,-2.3124,-2.1581,-2.0023,0.0,0.0,0.0,0.0,0.0,0.0,0.0,0.0,0.0,0.0,0.0,0.0,0.0,0.0,0.0,0.0,0.0,0.0,0.0,0.0,0.0,0.0,0.0,0.0,0.0,0.0,0.0,0.0,0.0,0.0,0.0,0.0,-2.584,-2.7578,0.0,0.0,0.0,0.0,0.0,0.0,0.0,0.0,0.0,0.0,0.0,0.0,0.0,-3.2891,-3.3242,-3.623,-3.7051,-3.5703,-3.9434,-4.0059,-3.7949,-3.8691,-3.8633,-3.7891,-3.7559,0.0,-3.1626,-2.9887,0.0,0.0,0.0,0.0,0.0,0.0,0.0,0.0,0.0,0.0,0.0,0.0,0.0,0.0,0.0,0.0,0.0,0.0,0.0,0.0,0.0,0.0,-2.7376,-2.726,-2.6736,-2.6178,0.0,-2.2793,-1.9831,-1.8857,-1.7968,0.0,0.0,0.0,0.0,0.0,0.0,0.0,-2.3687,-2.4736,-2.5308,-2.5308,-2.5308,-2.5308,-2.5308,-2.5308,-2.4904,-2.3995,-2.3009,-2.2023,-2.1043,-1.8657,0.0,0.0,0.0,0.0,0.0,0.0,0.0,0.0,0.0,0.0,0.0,0.0,0.0,0.0,0.0,0.0,0.0,0.0,0.0,0.0,0.0,0.0,0.0,0.0,0.0,0.0,0.0,0.0,0.0,-2.5527,-2.7266,-2.7539,-2.8105,-2.8086,0.0,0.0,0.0,0.0,0.0,0.0,0.0,0.0,0.0,-3.5019,-3.5879,-3.7012,-3.8437,-3.9961,-4.0605,-4.0351,-4.2226,-4.2285,-4.0742,-4.1133,-4.0859,-4.0039,-3.9531,-3.8242,-3.6266,-3.3504,-3.1045,-2.8883,0.0,0.0,0.0,0.0,-2.6415,-2.6438,-2.7374,-2.7412,-2.6909,-2.5851,0.0,0.0,0.0,0.0,0.0,0.0,0.0,0.0,0.0,0.0,-2.8338,-2.739,-2.7255,-2.7063,-2.6077,-2.4423,-2.2712,0.0,-2.0835,-1.9835,-1.7564,0.0,0.0,0.0,0.0,-2.2682,-2.3937,-2.4793,-2.5308,-2.5308,-2.5308,-2.5308,-2.5308,-2.5308,-2.5154,-2.4793,-2.399,-2.3355,-2.299,-2.0504,-1.8773,0.0,0.0,0.0,0.0,0.0,0.0,0.0,0.0,0.0,0.0,0.0,0.0,0.0,0.0,0.0,0.0,0.0,0.0,0.0,0.0,0.0,0.0,0.0,0.0,0.0,0.0,0.0,0.0,-2.7324,-2.8633,-2.7773,-2.957,-3.0137,0.0,0.0,0.0,0.0,0.0,0.0,-3.3809,-3.5449,-3.7051,-3.8555,-3.9453,-4.082,-4.2715,-4.2949,-4.3281,-4.3711,-4.4141,-4.3672,-4.2402,-4.2637,-4.2148,-4.1111,-4.0508,-4.0097,-3.9606,-3.6555,-3.3895,-3.1683,-3.0762,-2.9347,-2.797,-2.9216,-2.9363,-2.9123,-3.037,-3.0765,-3.0423,-2.8525,-2.7019,-2.5615,-2.3716,0.0,0.0,0.0,0.0,-2.7236,-2.7236,-2.8332,-2.9063,-2.7582,-2.7582,-2.7486,-2.5962,-2.5462,-2.4923,0.0,-2.3278,-2.2316,-1.9777,0.0,0.0,0.0,0.0,-2.3432,-2.4298,-2.4928,-2.5308,-2.5308,-2.5308,-2.5308,-2.5308,-2.5308,-2.5308,-2.5308,-2.4736,-2.4413,-2.4413,-2.2389,-2.075,-1.965,0.0,0.0,0.0,0.0,0.0,0.0,0.0,0.0,0.0,0.0,0.0,0.0,0.0,0.0,0.0,0.0,0.0,0.0,0.0,0.0,0.0,0.0,0.0,0.0,0.0,0.0,0.0,0.0,0.0,-2.957,-3.2402,0.0,0.0,0.0,0.0,-3.4375,-3.5293,-3.6523,-3.8184,-3.9922,-4.1269,-4.2129,-4.2988,-4.3516,-4.3633,-4.4453,-4.4473,-4.3711,-4.5371,-4.4844,-4.2422,-4.3262,-4.2671,-4.1002,-4.1091,-4.058,-3.9575,-3.7868,-3.6071,-3.4319,-3.3457,-3.1956,-3.0323,-3.042,-3.0907,-3.1537,-3.1614,-3.1647,-3.1621,-3.1487,-2.9775,-2.7761,-2.7626,-2.7024,0.0,0.0,-2.764,-2.8973,-2.8973,-2.966,-3.0096,-2.9184,-2.8415,-2.764,-2.6736,-2.5885,-2.5288,0.0,-2.4562,-2.3975,-2.3802,0.0,-2.2932,-2.3725,-2.3956,-2.4336,-2.5135,-2.5269,-2.5308,-2.5308,-2.5308,-2.5308,-2.5308,-2.5308,-2.5308,-2.5308,-2.5269,-2.525,-2.525,-2.4375,-2.3105,-2.1408,-1.8831,0.0,0.0,0.0,0.0,0.0,0.0,0.0,0.0,0.0,0.0,0.0,0.0,0.0,0.0,0.0,0.0,0.0,0.0,0.0,0.0,0.0,0.0,0.0,0.0,0.0,0.0,0.0,0.0,-3.2851,-3.5449,0.0,-3.5156,-3.6562,-3.7715,-3.8027,-3.9336,-4.0391,-4.1016,-4.2695,-4.3789,-4.4062,-4.4922,-4.5371,-4.5371,-4.5683,-4.5683,-4.5371,-4.5929,-4.5422,-4.4062,-4.376,-4.2983,-4.1819,-4.1383,-4.0903,-4.0367,-3.9887,-3.837,-3.6306,-3.5994,-3.4744,-3.3214,-3.3763,-3.3724,-3.3374,-3.3371,-3.3348,-3.3045,-3.1404,-2.9871,-2.8588,-2.8068,-2.8049,-2.8203,-2.8203,-2.9044,-2.9948,-2.9948,-3.0173,-3.0058,-2.8659,-2.8107,-2.7505,-2.6077,-2.5519,-2.5308,-2.5308,-2.5077,-2.4716,-2.4187,-2.4274,-2.4332,-2.4129,-2.4548,-2.4981,-2.5269,-2.5308,-2.5259,-2.5111,-2.5219,-2.5253,-2.5111,-2.5219,-2.5077,-2.4567,-2.4529,-2.4274,-2.3716,-2.287,-2.212,-2.1504,-1.9007,-1.6715,0.0,0.0,0.0,0.0,0.0,0.0,0.0,0.0,0.0,0.0,0.0,0.0,0.0,0.0,0.0,0.0,0.0,0.0,0.0,0.0,0.0,0.0,0.0,0.0,0.0,0.0,-3.4824,-3.5098,-3.8203,-3.9766,-3.832,-4.0,-4.1308,-4.1601,-4.2656,-4.3418,-4.3691,-4.4805,-4.5449,-4.5449,-4.5996,-4.6308,-4.6308,-4.6308,-4.6289,-4.6225,-4.6145,-4.5687,-4.4862,-4.3948,-4.3036,-4.2159,-4.1408,-4.0947,-4.077,-4.0893,-3.9796,-3.8047,-3.7756,-3.6715,-3.5404,-3.5683,-3.5329,-3.4706,-3.4698,-3.4486,-3.3878,-3.1891,-3.0679,-2.9813,-2.8986,-2.9121,-2.9544,-2.9544,-2.9948,-3.0404,-3.0404,-3.0404,-2.9981,-2.8294,-2.7895,-2.7409,-2.5673,-2.5308,-2.5308,-2.5308,-2.5308,-2.5135,-2.4601,-2.4947,-2.5115,-2.4586,-2.4966,-2.5308,-2.5308,-2.5308,-2.5253,-2.513,-2.5157,-2.5146,-2.5016,-2.4803,-2.4605,-2.4422,-2.3895,-2.3491,-2.3259,-2.2354,-2.1754,-2.15,-1.9296,-1.7439,-1.5991,0.0,0.0,0.0,0.0,0.0,0.0,0.0,0.0,0.0,0.0,0.0,0.0,0.0,0.0,0.0,0.0,0.0,0.0,0.0,0.0,0.0,0.0,0.0,-3.2207,-3.5234,-3.7109,-3.6328,-4.0684,-4.2773,-4.0332,-4.2324,-4.4121,-4.498,-4.5039,-4.541,-4.625,-4.6308,-4.6308,-4.6308,-4.6308,-4.6308,-4.6308,-4.6308,-4.6225,-4.6108,-4.6087,-4.5618,-4.4703,-4.3793,-4.2908,-4.1981,-4.1154,-4.0771,-4.0703,-4.0766,-4.0342,-3.9536,-3.8677,-3.7741,-3.6806,-3.5954,-3.557,-3.55,-3.55,-3.493,-3.4071,-3.3218,-3.2372,-3.1545,-3.0692,-3.0423,-3.0404,-3.0404,-3.0404,-3.0404,-3.0404,-3.0404,-2.9981,-2.8294,-2.7895,-2.7409,-2.5673,-2.5308,-2.5308,-2.5308,-2.5308,-2.5308,-2.5308,-2.5308,-2.5308,-2.5308,-2.5308,0.0,-2.5308,-2.5308,-2.5303,-2.5293,-2.5105,-2.5004,-2.4992,-2.41,-2.3922,-2.4859,-2.3446,-2.3014,-2.3957,-2.3068,-2.2235,-2.1558,-1.9892,-1.8597,-1.7681,0.0,0.0,0.0,0.0,0.0,0.0,0.0,0.0,0.0,0.0,0.0,0.0,0.0,0.0,0.0,0.0,0.0,0.0,0.0,0.0,0.0,-3.1973,-3.3965,-3.4824,-3.7402,-3.9785,-4.1387,-4.3398,-4.4629,-4.4551,-4.5176,-4.5683,-4.5918,-4.5937,-4.6055,-4.6289,-4.6308,-4.6308,-4.6308,-4.6308,-4.6308,-4.6308,-4.6201,-4.6144,-4.6108,-4.5942,-4.5765,-4.5525,-4.397,-4.3102,-4.2788,-4.1392,-4.0717,-4.0566,-4.0678,-4.0543,-4.0185,-3.9504,-3.8281,-3.6864,-3.6632,-3.6091,-3.55,-3.55,-3.493,-3.4167,-3.3917,-3.2872,-3.166,-3.1429,-3.0904,-3.0404,-3.0404,-3.0404,-3.0404,-3.0404,-3.0404,-2.9981,-2.8294,-2.7895,-2.7409,-2.5673,-2.5308,-2.5308,-2.5308,-2.5308,-2.5308,-2.5308,-2.5308,-2.5308,-2.5308,-2.5308,0.0,-2.5308,-2.5308,-2.5212,-2.4955,-2.4962,-2.4911,-2.4666,-2.4527,-2.4051,-2.3107,-2.2641,-2.2224,-2.1867,-2.173,-2.1905,-2.2427,-2.0792,-1.9765,0.0,0.0,0.0,0.0,0.0,0.0,0.0,0.0,0.0,0.0,0.0,0.0,0.0,0.0,0.0,0.0,0.0,0.0,0.0,0.0,0.0,0.0,-3.4961,-3.7305,-3.8516,-3.998,-4.1777,-4.3984,-4.5019,-4.5742,-4.625,-4.6308,-4.6308,-4.6308,-4.6308,-4.6308,-4.6308,-4.6308,-4.6308,-4.6308,-4.6247,-4.6247,-4.6308,-4.6115,-4.6027,-4.6005,-4.5864,-4.5796,-4.5699,-4.3968,-4.3166,-4.3064,-4.14,-4.0617,-4.0504,-4.0575,-4.0574,0.0,0.0,0.0,0.0,0.0,-3.5978,-3.55,-3.55,-3.5173,-3.468,-3.4321,-3.3551,-3.2622,-3.191,-3.1346,-3.0865,-3.05,-3.0404,-3.0404,-3.0404,-3.0404,-3.0058,-2.8717,-2.8145,-2.7525,-2.6135,-2.5558,-2.5274,-2.5198,-2.5168,0.0,-2.5103,-2.5149,-2.5165,-2.5103,-2.5091,-2.5091,-2.5091,-2.5091,-2.5025,-2.4825,-2.4876,-2.4802,-2.451,-2.4308,0.0,0.0,0.0,-2.1957,-2.1437,-2.1595,0.0,0.0,0.0,0.0,0.0,0.0,0.0,0.0,-2.0336,-1.9811,0.0,0.0,0.0,0.0,0.0,0.0,0.0,0.0,0.0,0.0,0.0,0.0,0.0,0.0,0.0,0.0,-3.7891,-4.0664,-4.2441,-4.2695,-4.3301,-4.4941,-4.582,-4.6308,-4.6308,-4.6308,-4.6308,-4.6308,-4.6308,-4.6308,-4.6308,0.0,0.0,0.0,0.0,-4.6147,-4.6248,-4.6018,-4.59,-4.5896,-4.5814,-4.5723,-4.5537,-4.3855,-4.3104,-4.3008,-4.1266,-4.0496,-4.0496,-4.0496,-4.0496,-4.0419,-3.9515,-3.8681,-3.7796,-3.6115,-3.55,-3.55,-3.55,0.0,0.0,-3.4603,-3.4282,-3.3898,-3.2314,-3.1775,-3.1525,-3.0654,-3.0404,-3.0404,-3.0404,-3.0404,-3.0173,-2.9319,-2.8549,-2.7775,-2.6813,-2.5971,-2.5329,-2.5053,-2.4992,-2.4924,-2.4785,-2.4884,-2.4949,-2.4825,-2.4804,-2.4804,-2.4804,-2.4804,-2.479,-2.4768,0.0,0.0,-2.4486,-2.3818,-2.3669,-2.4293,-2.294,-2.2115,-2.2147,-2.2353,-2.2412,-2.2315,-2.3194,-2.3719,-2.392,-2.4515,-2.4855,-2.4854,-2.0947,-2.019,0.0,0.0,0.0,0.0,0.0,0.0,0.0,0.0,0.0,0.0,0.0,0.0,0.0,0.0,0.0,-3.7422,-3.959,-4.1777,-4.416,-4.4492,-4.4883,-4.5918,-4.6191,-4.6308,-4.6308,-4.6308,-4.6308,-4.6308,-4.6308,-4.6308,-4.6308,-4.6308,-4.6247,-4.6145,-4.6115,-4.605,-4.5981,-4.5861,-4.5828,-4.5828,0.0,0.0,-4.5537,-4.3855,-4.3104,-4.3008,-4.1266,-4.0496,-4.0496,-4.0496,-4.0496,-4.0342,-3.8834,-3.8142,-3.7796,-3.6115,-3.55,-3.55,-3.55,-3.55,-3.5462,-3.5308,-3.4776,-3.4013,-3.2987,-3.2218,0.0,-3.0654,-3.0404,-3.0404,-3.0404,-3.0404,-3.0173,-2.9319,-2.8973,-2.8453,-2.6928,-2.6337,-2.59,-2.5144,-2.4917,-2.4778,-2.4583,-2.4704,-2.4821,-2.4804,-2.4804,-2.4804,-2.4804,-2.4804,-2.4738,-2.4586,-2.4569,-2.4478,-2.4284,-2.4118,-2.3824,-2.3318,-2.2996,-2.2881,-2.3034,-2.3708,-2.4131,-2.4267,-2.4454,-2.4566,-2.4608,-2.4743,-2.4738,-2.4578,-2.3895,-2.3709,0.0,0.0,0.0,0.0,0.0,0.0,0.0,0.0,0.0,0.0,0.0,-3.125,-3.2559,0.0,-3.7871,-3.9629,-4.1699,-4.3555,-4.4824,-4.5371,-4.5801,-4.625,-4.6308,-4.6308,-4.6308,-4.6308,-4.6308,-4.6308,-4.6308,-4.6308,-4.6308,-4.6308,-4.6268,-4.6201,-4.6075,-4.5995,-4.5995,-4.5802,-4.5725,-4.5796,-4.5665,-4.5594,-4.5556,-4.4278,-4.347,-4.3028,-4.172,-4.0893,-4.0496,-4.0496,-4.0496,-4.0381,-3.9123,-3.8373,-3.7796,-3.6115,-3.55,-3.55,-3.55,-3.55,-3.55,-3.55,-3.4911,-3.4032,-3.316,-3.2333,-3.1525,-3.0654,-3.0404,-3.0404,-3.0404,-3.0404,-3.0271,-2.9692,-2.9232,-2.8575,-2.7204,-2.6502,-2.5861,-2.4924,-2.4697,-2.4602,-2.4384,-2.4426,-2.4503,-2.4503,-2.4503,-2.4503,-2.4503,-2.4503,-2.4461,-2.4357,-2.4435,-2.4428,-2.4218,-2.419,-2.4025,-2.3639,-2.3602,-2.3658,-2.3747,-2.4144,-2.4401,-2.4503,-2.4503,-2.4561,-2.4647,-2.4553,-2.47,-2.5101,-2.511,-2.5048,0.0,0.0,0.0,0.0,0.0,0.0,0.0,0.0,-2.8691,-3.0273,-3.248,-3.4648,-3.6211,-3.8496,-4.0488,-4.1523,-4.3555,-4.5058,-4.5234,-4.5859,-4.623,-4.6074,-4.6191,-4.6308,-4.6308,-4.6308,-4.6308,-4.6308,-4.6308,-4.6308,-4.6308,-4.6308,-4.6289,-4.6268,-4.6033,-4.5952,-4.605,-4.575,-4.5648,-4.5768,-4.564,-4.5594,-4.5575,-4.4701,-4.3951,-4.3278,-4.2258,-4.1316,-4.0496,-4.0496,-4.0496,-4.04,-3.9438,-3.8623,-3.7815,-3.6288,-3.5635,-3.55,-3.55,-3.55,-3.55,-3.55,-3.5026,-3.4257,-3.3218,-3.2449,-3.1718,-3.0692,-3.0404,-3.0404,-3.0404,-3.0404,-3.0323,-3.0068,-2.9491,-2.8698,-2.7478,-2.6666,-2.5834,-2.4723,-2.4469,-2.4393,-2.4228,-2.419,-2.419,-2.419,-2.419,-2.419,-2.419,-2.419,-2.419,-2.419,-2.4358,-2.4375,-2.4209,-2.419,-2.419,-2.419,-2.419,-2.419,-2.419,-2.419,-2.419,-2.419,-2.419,-2.4367,-2.4677,-2.4515,-2.4939,-2.5866,-2.5869,-2.5778,-2.6601,-2.6562,-2.6758,-2.7519,-2.8379,-2.9414,0.0,0.0,-3.2969,-3.3926,-3.5586,-3.7168,-3.8125,-3.9805,-4.1562,-4.3164,-4.4316,-4.5273,-4.6055,-4.623,-4.6016,-4.5234,-4.582,-4.6308,-4.6308,-4.6308,-4.6308,-4.6308,-4.6308,-4.6308,-4.6308,-4.6308,-4.6247,-4.6138,-4.5981,-4.5872,-4.584,-4.5688,-4.5603,-4.561,-4.5603,-4.5594,-4.5575,-4.4701,-4.4239,-4.4085,-4.2489,-4.1316,-4.0496,-4.0496,-4.0496,-4.0342,-3.8757,-3.8084,-3.7873,-3.6923,-3.6115,-3.55,-3.55,-3.55,-3.55,-3.55,-3.5423,-3.5038,-3.341,-3.2833,-3.2449,-3.0846,-3.0404,-3.0404,-3.0404,-3.0404,-3.0323,-3.0068,-2.993,-2.9383,-2.7592,-2.6981,-2.6347,-2.481,-2.4348,-2.4228,-2.4199,-2.419,-2.419,-2.419,-2.419,-2.419,-2.419,-2.419,-2.419,-2.419,-2.4218,-2.4228,-2.4199,-2.419,-2.419,-2.419,-2.419,-2.419,-2.419,-2.419,-2.419,-2.419,-2.419,-2.4558,-2.5295,-2.5284,-2.5697,-2.6515,-2.7221,-2.7145,-2.7734,-2.8125,0.0,0.0,-3.0098,-3.1426,-3.2637,-3.3555,-3.4687,-3.6582,-3.7949,-3.9082,-3.9941,-4.1094,-4.2285,0.0,-4.4433,-4.5137,-4.5488,-4.5547,-4.5215,-4.4355,-4.457,-4.498,-4.5488,-4.5996,-4.6308,-4.6308,-4.6308,-4.6308,-4.6308,-4.6308,-4.6269,-4.6223,-4.6084,-4.5963,-4.5861,-4.5757,-4.568,-4.5594,-4.5594,-4.5594,-4.5594,-4.5229,-4.4509,-4.3528,-4.2316,-4.1316,-4.0496,-4.0496,-4.0496,-4.0439,-3.9727,-3.8854,-3.7834,-3.65,-3.5788,-3.55,-3.55,-3.55,-3.55,-3.55,-3.5154,-3.4507,-3.3276,-3.2564,-3.1948,-3.0731,-3.0404,-3.0404,-3.0404,-3.0404,-3.0299,-2.9927,-2.9821,-2.9284,-2.728,-2.6792,-2.6252,-2.4644,-2.4266,-2.419,-2.419,-2.419,-2.419,-2.419,-2.419,-2.419,-2.419,-2.419,-2.419,-2.419,-2.419,-2.419,-2.419,-2.419,-2.419,-2.419,-2.419,-2.419,-2.419,-2.419,-2.419,-2.419,-2.419,-2.4603,-2.5393,-2.5393,-2.6054,-2.731,-2.764,-2.786,-2.8359,0.0,0.0,-3.0254,-3.1601,-3.3047,-3.3633,-3.4805,-3.6309,-3.8203,-3.9473,-4.0449,-4.1074,-4.1855,-4.2617,-4.3242,-4.4277,-4.4922,-4.4687,-4.4844,-4.459,-4.3476,-4.3555,-4.3848,-4.4238,-4.5293,-4.6035,-4.6289,-4.6308,-4.6308,-4.6308,-4.6308,-4.6308,-4.6308,-4.6122,-4.5995,-4.5899,-4.5802,-4.5692,-4.5594,-4.5594,-4.5594,-4.5594,-4.5344,-4.4451,-4.3047,-4.2181,-4.1316,-4.0496,-4.0496,-4.0496,-4.0477,-4.0265,-3.9284,-3.7815,-3.6365,-3.5692,-3.55,-3.55,-3.55,-3.55,-3.55,-3.5064,-3.4391,-3.3526,-3.2679,-3.1852,-3.1,-3.0596,-3.0404,-3.0404,-3.0349,-3.0182,-2.9799,-2.9652,-2.912,-2.7324,-2.6924,-2.6521,-2.5126,-2.4869,-2.4869,-2.4869,-2.4685,-2.453,-2.453,-2.4337,-2.419,-2.419,-2.419,-2.419,-2.419,-2.419,-2.419,-2.419,-2.419,-2.419,-2.419,-2.419,-2.419,-2.419,-2.419,-2.43,-2.453,-2.453,-2.5044,-2.6054,-2.6054,-2.677,-2.8136,-2.8136,-2.8436,0.0,0.0,-3.1055,-3.1914,-3.3379,-3.4629,-3.4648,-3.6641,-3.8496,-3.8574,-3.9961,-4.1172,-4.1191,-4.1855,-4.2402,-4.2441,-4.3887,-4.4707,-4.3867,-4.4473,-4.4355,-4.2637,-4.3183,-4.3379,0.0,-4.4023,-4.5391,-4.623,-4.6308,-4.6308,-4.6308,-4.6308,-4.6308,-4.6308,-4.6042,-4.5903,-4.5899,-4.5694,-4.5603,-4.5594,-4.5594,-4.5594,-4.5575,-4.472,-4.3893,-4.3047,-4.2181,-4.1316,-4.0496,-4.0496,-4.0496,-4.0419,-3.965,-3.8796,-3.7892,-3.6981,-3.6173,-3.55,-3.55,-3.55,-3.55,-3.55,-3.5481,-3.5308,-3.441,-3.3545,-3.2699,-3.1891,-3.1058,-3.0404,-3.0404,-3.0202,-2.9962,-2.9756,-2.9542,-2.9099,-2.8,-2.775,-2.7512,-2.6686,-2.6528,-2.6528,-2.6528,-2.5888,-2.5356,-2.5356,-2.4695,-2.419,-2.419,-2.419,-2.419,-2.419,-2.419,-2.419,-2.419,-2.419,-2.419,-2.419,-2.419,-2.419,-2.419,-2.419,-2.4566,-2.5338,-2.5356,-2.6146,-2.7725,-2.7725,-2.8154,-2.8968,-2.8968,-2.8987,0.0,0.0,-3.2109,-3.3516,-3.4726,-3.5703,-3.6289,-3.7109,-3.7891,-3.8476,-3.9062,-3.9473,-3.9473,-3.9707,-4.0254,-4.1426,-4.2539,-4.3164,-4.2871,-4.4082,-4.416,-4.1875,-4.2324,0.0,0.0,0.0,0.0,-4.5371,-4.5449,-4.5683,-4.6269,-4.6222,-4.6202,-4.6308,-4.6039,-4.5899,-4.5899,-4.579,-4.5696,-4.5594,-4.5594,-4.5594,-4.5575,-4.4701,-4.3855,-4.3047,-4.2181,-4.1316,-4.0496,-4.0496,-4.0496,-4.0477,-4.0208,-3.9246,-3.7969,-3.768,-3.6692,-3.55,-3.55,-3.55,-3.55,-3.55,-3.55,-3.5231,-3.3776,-3.3122,-3.2602,-3.1231,-3.0635,-3.0404,-3.0404,-3.0202,-2.9954,-2.9756,-2.9551,-2.9107,-2.8018,-2.7798,-2.7548,-2.6759,-2.6602,-2.6602,-2.6602,-2.6374,-2.6007,-2.5485,-2.4713,-2.419,-2.419,-2.419,-2.419,-2.419,-2.419,-2.419,-2.419,-2.419,-2.419,-2.419,-2.419,-2.419,-2.419,-2.419,-2.4585,-2.5374,-2.5393,-2.6182,-2.7798,-2.7798,-2.8209,-2.9005,-2.9005,-2.9005,-3.0742,-3.1973,-3.3047,-3.4746,-3.5586,-3.6152,-3.6719,-3.707,-3.7363,-3.7617,-3.793,-3.8047,-3.7734,-3.7676,-3.8242,-3.998,-4.123,-4.207,-4.2363,-4.3906,-4.4277,-4.2324,-4.2558,-4.2851,0.0,0.0,0.0,-4.4857,-4.5229,-4.5615,-4.6131,-4.6117,-4.6117,-4.6168,-4.5988,-4.59,-4.5852,-4.5777,-4.5696,-4.5594,-4.5594,-4.5594,-4.5556,-4.4393,-4.3585,-4.3028,-4.1854,-4.1008,-4.0496,-4.0496,-4.0323,-4.0073,-4.0073,-3.9027,-3.7546,-3.7546,-3.6673,-3.55,-3.55,-3.55,-3.55,-3.55,-3.55,-3.5288,-3.418,-3.3391,-3.2679,-3.1596,-3.0865,-3.0404,-3.0404,-3.0155,-2.9861,-2.9739,-2.9465,-2.9074,-2.8382,-2.8227,-2.8081,-2.7556,-2.7464,-2.7464,-2.7464,-2.7218,-2.6649,-2.5558,-2.4952,-2.453,-2.4245,-2.419,-2.419,-2.419,-2.419,-2.419,-2.419,-2.4447,-2.464,-2.464,-2.4905,-2.5052,-2.5052,-2.5052,-2.5438,-2.6237,-2.6256,-2.6917,-2.8227,-2.8227,-2.8491,-2.9005,-2.9299,-2.9427,-3.1797,-3.2851,-3.3867,-3.5586,-3.5996,-3.5996,-3.5996,-3.6601,-3.6914,-3.6055,-3.6484,-3.6777,0.0,0.0,-3.6484,-3.8184,-4.0039,-4.1523,-4.2285,-4.3945,-4.4726,0.0,0.0,0.0,0.0,0.0,0.0,-4.4731,0.0,-4.5997,-4.5907,-4.6024,-4.603,-4.5903,-4.589,-4.5866,-4.5803,-4.5665,-4.5594,-4.5594,-4.5594,-4.5575,-4.5479,-4.3835,-4.3085,-4.2931,-4.1247,-4.0496,-4.0496,-4.0496,-4.0054,-3.9361,-3.9361,-3.8296,-3.6769,-3.6769,-3.6231,-3.55,-3.55,-3.55,-3.55,-3.55,-3.55,-3.5481,-3.5442,-3.4257,-3.2891,-3.2821,-3.1642,-3.0373,-3.0373,-3.003,-2.9687,-2.9696,-2.9336,-2.9005,-2.9005,-2.9005,-2.9005,-2.9005,-2.9005,-2.9005,-2.9005,-2.8338,-2.7284,-2.5742,-2.5485,-2.5154,-2.43,-2.419,-2.4208,-2.4263,-2.4226,-2.4226,-2.4318,-2.4989,-2.5411,-2.5448,-2.6172,-2.6602,-2.6602,-2.6602,-2.6979,-2.778,-2.7798,-2.8191,-2.9005,-2.9005,-2.9005,-2.9023,-2.9831,-3.021,-3.2637,-3.3711,-3.4629,-3.5723,-3.5996,-3.5996,-3.5996,-3.5664,-3.5117,-3.4238,-3.3769,-3.3223,0.0,0.0,0.0,-3.6484,-3.9726,0.0,-4.2363,-4.4453,0.0,-4.3887,0.0,-4.4286,-4.3667,-4.4104,0.0,0.0,-4.4874,-4.5305,-4.5864,-4.5881,-4.5876,-4.5899,-4.5751,-4.5725,-4.5796,-4.5665,-4.5594,-4.5594,-4.5594,-4.5267,-4.4605,-4.3566,-4.2758,-4.2066,-4.0969,-4.0496,-4.0496,-4.0496,-4.0381,-4.0189,-4.0189,-3.9161,-3.768,-3.768,-3.675,-3.55,-3.55,-3.55,-3.55,-3.55,-3.55,-3.5385,-3.4737,-3.3776,-3.2731,-3.1931,-3.0925,-3.0096,-3.0096,-2.979,-2.9513,-2.9661,-2.9336,-2.9005,-2.9005,-2.9005,-2.9005,-2.9005,-2.9005,-2.9005,-2.9005,-2.8338,-2.7669,-2.7247,-2.6667,-2.5786,-2.4373,-2.419,-2.4428,-2.5026,-2.4566,-2.4685,-2.5897,-2.5631,-2.5668,-2.6264,-2.6502,-2.6602,-2.6602,-2.6602,-2.6979,-2.778,-2.7798,-2.8191,-2.9005,-2.9005,-2.9005,-2.9023,-2.9831,-3.021,-3.3613,-3.4609,-3.5391,-3.5879,-3.5703,-3.5332,-3.4941,-3.4219,-3.3242,-3.1992,-3.1367,0.0,0.0,0.0,0.0,0.0,0.0,0.0,-4.2812,-4.4841,-4.585,0.0,-4.507,0.0,-4.4612,-4.4939,-4.5122,0.0,-4.5118,-4.5357,-4.5757,-4.579,-4.579,-4.577,-4.5713,-4.5692,-4.5715,-4.5635,-4.5594,-4.5594,-4.521,-4.4759,-4.4259,-4.3066,-4.2258,-4.175,0.0,-4.0496,-4.0496,-4.0496,-4.0285,-3.9977,-3.9977,-3.8931,-3.743,-3.743,-3.6615,-3.55,-3.55,-3.55,-3.55,-3.55,-3.55,-3.539,-3.4774,-3.3997,-3.313,-3.2414,-3.1341,-3.0392,-3.0392,-2.9907,-2.9424,-2.9533,-2.928,-2.9005,-2.9005,-2.9005,-2.9005,-2.9005,-2.9005,-2.9005,-2.9005,-2.862,-2.8209,-2.7842,-2.742,-2.6667,-2.5419,-2.5254,-2.5438,-2.5888,-2.5511,-2.5621,-2.651,-2.6502,-2.666,-2.7108,-2.7457,-2.7647,-2.7647,-2.7647,-2.7868,-2.8319,-2.8338,-2.8546,-2.9005,-2.9005,-2.9005,-2.9023,-3.0191,-3.0723,-3.4648,-3.543,-3.5996,-3.5996,-3.5332,-3.4473,-3.3594,-3.2695,-3.1523,-2.9785,0.0,-2.8984,-2.8125,-2.957,-3.1699,-3.4121,0.0,-4.0781,-4.334,-4.4984,-4.5972,-4.6089,-4.5971,-4.5852,-4.5816,-4.5776,-4.5737,-4.5612,-4.5708,-4.5711,-4.5603,-4.5715,-4.573,-4.5603,-4.5715,-4.5723,-4.5594,-4.5594,-4.5537,-4.5421,-4.4662,-4.4182,-4.3912,-4.247,-4.1731,-4.1585,-4.0843,-4.0496,-4.0496,-4.0496,-4.0092,-3.9457,-3.9457,-3.8392,-3.6865,-3.6865,-3.6288,-3.55,-3.55,-3.55,-3.55,-3.55,-3.55,-3.5446,-3.519,-3.4494,-3.3731,-3.343,-3.2212,-3.0989,-3.0885,-3.0196,-2.9492,-2.9411,-2.92,-2.9005,-2.9005,-2.9005,-2.9005,-2.9005,-2.9005,-2.9005,-2.9005,-2.9005,-2.8767,-2.8062,-2.7952,-2.7714,-2.7005,-2.673,-2.6638,-2.6759,-2.6657,-2.6693,-2.6895,-2.7457,-2.7842,-2.7952,-2.8601,-2.9005,-2.9005,-2.9005,-2.9005,-2.9005,-2.9005,-2.9005,-2.9005,-2.9005,-2.906,-2.9207,-3.0705,-3.147,-3.5547,-3.5879,-3.5996,-3.5996,-3.5332,-3.4473,-3.3594,-3.2226,0.0,0.0,0.0,-2.7187,-2.6309,-2.875,0.0,-3.332,0.0,0.0,0.0,0.0,-4.5289,0.0,0.0,0.0,0.0,0.0,0.0,0.0,-4.5629,-4.5618,-4.5594,-4.561,-4.5618,-4.5594,-4.561,-4.561,-4.5594,-4.5594,-4.5248,-4.4509,-4.4374,-4.3566,-4.222,-4.1923,-4.1412,-4.0727,-4.0573,0.0,-4.0496,-4.0496,-4.0419,-4.0285,-4.0285,-3.9258,-3.7777,-3.7777,-3.6815,-3.55,-3.55,-3.55,-3.55,-3.55,-3.55,-3.5446,-3.519,-3.4494,-3.3705,-3.3208,-3.2384,-3.1496,-3.0825,-3.0361,-2.9945,-2.9518,-2.92,-2.9005,-2.9005,-2.9005,-2.9005,-2.9005,-2.9005,-2.9005,-2.9005,-2.9005,-2.895,-2.8803,-2.8785,-2.8748,-2.8601,-2.7427,-2.6851,-2.7512,-2.6998,-2.7134,-2.8473,-2.8099,-2.8081,-2.8748,-2.8932,-2.9005,-2.9005,-2.9005,-2.9005,-2.9005,-2.9005,-2.9005,-2.9005,-2.9005,-2.9335,-3.0008,-3.0962,-3.1751,-3.5762,-3.5996,-3.5996,-3.5996,-3.5,-3.3691,-3.2383,0.0,0.0,0.0,0.0,-2.6191,-2.5781,0.0,0.0,0.0,0.0,0.0,0.0,0.0,0.0,0.0,0.0,0.0,0.0,0.0,0.0,0.0,-4.5594,-4.5594,-4.5594,-4.5594,-4.5594,-4.5594,-4.5594,-4.5594,-4.5594,-4.5594,-4.5171,-4.4297,-4.3874,-4.3028,-4.1769,-4.1335,-4.0893,-4.0496,-4.0496,-4.0496,-4.0496,-4.0496,-4.0496,-4.0496,-4.0496,-3.9477,-3.8007,-3.8007,-3.6949,-3.55,-3.55,-3.55,-3.55,-3.55,-3.5417,-3.5239,-3.4972,-3.4481,-3.3922,-3.3523,-3.2841,-3.2126,-3.1738,-3.0924,-3.0135,-2.9869,-2.9402,-2.9005,-2.9005,-2.9005,-2.9005,-2.9005,-2.9005,-2.9005,-2.9005,-2.9005,-2.9005,-2.9005,-2.9005,-2.9005,-2.9005,-2.8326,-2.7996,-2.8381,-2.8069,-2.8161,-2.8932,-2.8638,-2.8583,-2.8987,-2.9005,-2.9005,-2.9005,-2.9005,-2.9005,-2.9005,-2.9005,-2.9207,-2.961,-2.961,-3.0044,-3.0834,-3.1641,-3.2228,-3.5547,-3.5859,-3.5996,-3.5996,-3.4687,-3.2969,-3.1289,-2.9551,0.0,0.0,-2.5703,-2.5703,-2.5703,0.0,0.0,0.0,0.0,0.0,0.0,0.0,0.0,0.0,0.0,0.0,0.0,0.0,0.0,0.0,-4.5594,-4.5594,-4.5594,-4.5594,-4.5594,-4.5594,-4.5594,-4.5594,-4.5594,-4.5421,-4.4902,-4.4028,-4.3201,-4.2354,-4.1508,-4.0804,-4.0496,-4.0496,-4.0496,-4.0496,-4.0496,-4.0496,-4.0496,-4.0496,-4.0496,-3.9477,-3.8007,-3.8007,-3.6949,-3.55,-3.55,-3.55,-3.55,-3.55,-3.5312,-3.5062,-3.4774,-3.4475,-3.4147,-3.3881,-3.3348,-3.2821,-3.2638,-3.1647,-3.0632,-3.0283,-2.9721,-2.9207,-2.9042,-2.9262,-2.9409,-2.9078,-2.9133,-2.9207,-2.9023,-2.9005,-2.9005,-2.9005,-2.9005,-2.9005,-2.9005,-2.9005,-2.9005,-2.9005,-2.9005,-2.9005,-2.9005,-2.9005,-2.9005,-2.9005,-2.9005,-2.9005,-2.9005,-2.9005,-2.9005,-2.9005,-2.917,-2.9574,-3.021,-3.0375,-3.087,-3.1659,-3.2307,-3.2693,-3.4805,-3.5391,-3.5996,-3.5996,-3.4687,-3.2969,-3.1289,0.0,0.0,-2.6055,-2.5703,-2.5703,-2.5703,-2.6484,0.0,0.0,0.0,0.0,0.0,0.0,0.0,0.0,0.0,0.0,0.0,0.0,0.0,0.0,-4.5594,-4.5594,-4.5594,-4.5594,-4.5594,-4.5594,-4.5594,-4.5594,-4.5594,-4.4797,-4.4008,-4.3201,-4.2335,-4.147,-4.0631,-4.0535,-4.0496,-4.0496,-4.0496,-4.0496,0.0,-4.0496,-4.0496,-4.0496,-4.0496,-3.9477,-3.8007,-3.8007,-3.6949,-3.55,-3.55,-3.55,-3.55,-3.55,-3.5312,-3.5062,-3.4774,-3.4475,-3.4147,-3.3881,-3.3752,-3.3532,-3.2784,-3.2491,-3.2014,-3.0558,-3.0136,-2.9886,-2.9152,-3.0155,-3.0742,-2.928,-2.9592,-2.9849,-2.9133,-2.9005,-2.9005,-2.9005,-2.9005,-2.9005,-2.9005,-2.9005,-2.9005,-2.9005,-2.9005,-2.9005,-2.9005,-2.9005,-2.9005,-2.9005,-2.9005,-2.9005,-2.9005,-2.9005,-2.9005,-2.9005,-2.9721,-3.0136,-3.021,-3.0925,-3.1696,-3.2491,-3.2564,-3.2986,-3.4367,-3.531,-3.5879,-3.5351,-3.4297,-3.2812,-3.0625,0.0,-2.7812,-2.6055,-2.5703,-2.5703,-2.5703,-2.5977,-2.6894,0.0,0.0,0.0,0.0,0.0,0.0,0.0,0.0,0.0,0.0,0.0,0.0,0.0,-4.5594,-4.5594,-4.5594,-4.5594,-4.5594,-4.5594,-4.5094,-4.4816,-4.4816,-4.3989,-4.3143,-4.2316,-4.1962,-4.1335,-4.0496,-4.0496,-4.0496,-4.0496,-4.0496,-4.0496,0.0,-4.0496,-4.0496,-4.0496,-4.0496,-3.9477,-3.8007,-3.8007,-3.7257,-3.6154,-3.5673,-3.5717,-3.5905,-3.5419,-3.4944,-3.4584,-3.4674,-3.4353,-3.3954,-3.3829,-3.3807,-3.3733,-3.3421,-3.2949,-3.2307,-3.1182,-3.0907,-3.0834,-3.0503,-3.0944,-3.1213,-3.0577,-3.0705,-3.0668,-2.9849,-2.9721,-2.9555,-2.9078,-2.9005,-2.9005,-2.9005,-2.9005,-2.9005,-2.9005,-2.9005,-2.9005,-2.9005,-2.9005,-2.9005,-2.9005,-2.9005,-2.9005,-2.9005,-2.9005,-2.9225,-2.9702,-3.0044,-3.0687,-3.1647,-3.1971,-3.254,-3.333,-3.333,-3.3495,-3.3161,-3.4349,-3.5078,-3.4473,-3.3476,-3.2129,0.0,0.0,-2.748,-2.6016,-2.5703,-2.5703,-2.5703,-2.5703,-2.6191,0.0,0.0,0.0,0.0,0.0,0.0,0.0,0.0,0.0,0.0,0.0,0.0,0.0,-4.4863,-4.4863,-4.4863,-4.4863,-4.4979,-4.521,-4.4393,-4.3951,-4.3951,-4.3124,-4.2412,-4.1788,-4.1546,-4.1085,-4.0496,-4.0496,-4.0496,-4.0496,-4.0496,-4.0496,0.0,-4.0496,-4.0496,-4.0496,-4.0496,-3.9631,-3.8373,-3.8373,-3.7834,-3.6954,-3.6051,-3.5982,-3.6153,-3.5274,-3.4626,-3.4235,-3.4486,-3.4189,-3.3807,-3.3807,-3.3807,-3.3807,-3.3807,-3.3201,-3.2454,-3.188,-3.1751,-3.1678,-3.1452,-3.1782,-3.1966,-3.1488,-3.1586,-3.1494,-3.0687,-3.0558,-3.0283,-2.9482,-2.9354,-2.9262,-2.9023,-2.9005,-2.9005,-2.9005,-2.9207,-2.9262,-2.9023,-2.9005,-2.9005,-2.9005,-2.9005,-2.9005,-2.9005,-2.9225,-2.961,-3.0191,-3.0668,-3.1463,-3.2601,-3.2839,-3.3256,-3.3807,-3.3807,-3.3842,-3.0839,-3.2104,-3.3418,-3.3418,-3.2168,-3.0684,0.0,-2.8262,-2.6758,-2.5879,-2.5703,-2.5703,-2.5703,-2.5703,-2.5996,-2.6875,0.0,0.0,0.0,0.0,0.0,0.0,0.0,0.0,0.0,0.0,0.0,-4.3124,-4.3124,0.0,-4.3124,-4.3124,-4.3489,-4.4297,-4.3528,-4.3104,-4.3104,-4.2258,-4.1808,-4.1788,-4.0931,-4.0516,-4.0496,-4.0496,-4.0496,-4.0496,-4.0496,-4.0496,0.0,-4.0496,-4.0496,-4.0496,-4.0496,-3.9996,-3.9284,-3.9284,-3.8719,-3.7824,-3.6687,-3.6296,-3.6127,-3.5048,-3.4486,-3.42,-3.42,-3.4006,-3.3807,-3.3807,-3.3807,-3.3807,-3.3807,-3.3201,-3.2601,-3.2583,-3.2583,-3.2375,-3.158,-3.2651,-3.3293,-3.1709,-3.2045,-3.2326,-3.1525,-3.1397,-3.1121,-3.032,-3.0191,-2.9898,-2.9097,-2.9005,-2.9005,-2.9005,-2.9702,-2.9879,-2.9078,-2.9005,-2.9005,-2.9005,-2.9005,-2.9005,-2.9005,-2.9769,-3.0191,-3.021,-3.1757,-3.2583,-3.2601,-3.3403,-3.3788,-3.3807,-3.3807,-3.3935,-2.9615,-3.0645,-3.1415,-3.0866,-3.0342,-2.9564,-2.8144,-2.7402,-2.6758,-2.5879,-2.5703,-2.5703,-2.5703,-2.5703,-2.6387,-2.8437,-2.9238,0.0,0.0,0.0,0.0,0.0,0.0,0.0,0.0,0.0,0.0,-4.3104,-4.3104,-4.3104,-4.3104,-4.2547,-4.2604,-4.3451,-4.2643,-4.222,-4.222,-4.1354,-4.0912,-4.0912,-4.0631,-4.0496,-4.0496,-4.0496,-4.0496,-4.0496,-4.0496,-4.0496,-4.0496,-4.0496,-4.0496,-4.0496,-4.0496,-4.0015,-3.9304,-3.9304,-3.913,-3.8673,-3.7107,-3.6712,-3.666,-3.5188,-3.4341,-3.3928,-3.3928,-3.3881,-3.3807,-3.3807,-3.3807,-3.3807,-3.3807,-3.3605,-3.3421,-3.3421,-3.3421,-3.3348,-3.3091,-3.344,-3.3642,-3.3128,-3.3256,-3.3164,-3.2357,-3.2228,-3.1953,-3.1127,-3.1029,-3.0925,-3.0668,-3.0632,-3.0632,-3.0632,-3.087,-3.0687,-2.9886,-2.9824,-2.9824,-2.9824,-2.9299,-2.9005,-2.9005,-2.9757,-3.0467,-3.0999,-3.2051,-3.2858,-3.3421,-3.3857,-3.4201,-3.4416,-3.4189,-3.423,0.0,-2.8997,-2.9593,-2.9095,-2.8739,-2.8244,-2.7202,-2.6737,-2.6367,-2.5801,-2.5703,-2.5703,-2.5703,-2.5703,-2.623,-2.7851,-2.8651,0.0,0.0,0.0,0.0,0.0,0.0,0.0,0.0,0.0,-4.2124,-4.2124,-4.2124,-4.2124,-4.2124,-4.1604,-4.1566,-4.2104,-4.1585,-4.1316,-4.1316,-4.0766,-4.0496,-4.0496,-4.0496,-4.0496,-4.0496,-4.0496,-4.0496,-4.0496,-4.0496,-4.0496,0.0,-4.0496,-4.0496,-4.0496,-4.0496,-4.0189,-3.9746,-3.9746,-3.9554,-3.9069,-3.7453,-3.6815,-3.644,-3.4873,-3.4099,-3.3807,-3.3807,-3.3807,-3.3807,-3.3807,-3.3807,-3.3807,-3.3807,-3.3807,-3.3807,-3.3807,-3.3807,-3.3807,-3.3807,-3.3807,-3.3807,-3.3807,-3.3807,-3.3642,-3.3146,-3.3041,-3.2779,-3.1971,-3.1843,-3.1733,-3.1452,-3.1397,-3.1397,-3.1397,-3.1659,-3.1641,-3.1146,-3.0834,-3.065,-3.065,-3.0173,-2.9916,-2.9916,-3.0687,-3.1347,-3.1843,-3.2741,-3.345,-3.3948,-3.4242,-3.4508,-3.4694,-3.4584,-3.4646,0.0,-2.7246,-2.7909,-2.7914,-2.7347,-2.6791,-2.6813,-2.6225,0.0,-2.5703,-2.5703,-2.5723,-2.5781,-2.5742,-2.5762,-2.5957,-2.7334,0.0,0.0,0.0,0.0,0.0,0.0,0.0,0.0,-4.0054,-4.0496,-4.0496,-4.0496,-4.0496,-4.0496,-4.0496,-4.0496,-4.0496,-4.0496,-4.0496,-4.0496,-4.0496,-4.0496,-4.0496,-4.0496,-4.0496,-4.0496,-4.0496,-4.0496,0.0,-4.0496,-4.0496,-4.0496,-4.0496,-4.0496,-4.0496,-4.0439,-4.045,-4.0454,-4.0354,-3.9865,-3.9053,-3.7632,-3.6587,-3.5668,-3.4258,-3.3807,-3.3807,-3.3807,-3.3807,-3.3807,-3.3807,-3.3807,-3.3807,-3.3807,-3.3807,-3.3807,-3.3807,-3.3807,-3.3807,-3.3807,-3.3807,-3.3807,-3.3807,-3.3807,-3.3807,-3.3807,-3.3807,-3.355,-3.2803,-3.2693,-3.2417,-3.1672,-3.158,-3.158,-3.158,-3.2247,-3.2693,-3.2693,-3.1953,-3.1488,-3.1488,-3.1433,-3.1397,-3.1397,-3.2199,-3.2621,-3.2621,-3.3697,-3.4235,-3.4258,-3.4582,-3.4734,-3.4754,-3.499,-3.5113,-2.5562,0.0,-2.597,-2.6028,-2.5932,-2.5835,0.0,-2.5795,-2.5703,0.0,0.0,-2.5898,-2.6562,-2.6152,-2.6348,-2.8359,-2.9499,-3.0683,0.0,0.0,0.0,0.0,0.0,0.0,0.0,-4.04,-4.0496,-4.0496,-4.0496,-4.0496,-4.0496,-4.0496,-4.0496,-4.0496,-4.0496,-4.0496,-4.0496,-4.0496,-4.0496,-4.0496,-4.0496,-4.0496,-4.0496,-4.0496,-4.0496,-4.0496,-4.0496,-4.0496,-4.0496,-4.0496,-4.0496,-4.0439,-3.9823,-3.9835,-4.006,-3.8984,-3.8725,-3.8697,-3.7071,-3.6236,-3.5668,-3.4258,-3.3807,-3.3807,-3.3807,-3.3807,-3.3807,-3.3807,-3.3807,-3.3807,-3.3807,-3.3807,-3.3807,-3.3807,-3.3807,-3.3807,-3.3807,-3.3807,-3.3807,-3.3807,-3.3807,-3.3807,-3.3807,-3.3807,-3.3733,-3.355,-3.3532,-3.3458,-3.3256,-3.3238,-3.3238,-3.3238,-3.3403,-3.3532,-3.3532,-3.2779,-3.232,-3.232,-3.1733,-3.1397,-3.1397,-3.2366,-3.2922,-3.2922,-3.4,-3.4675,-3.4898,-3.4972,-3.5113,-3.5304,-3.5174,-3.5207,-2.5308,-2.5596,-2.59,-2.5946,-2.6019,-2.6116,-2.6147,0.0,0.0,0.0,0.0,0.0,-2.6328,-2.6348,-2.6758,-2.8184,-2.9662,0.0,0.0,0.0,0.0,0.0,0.0,0.0,0.0,0.0,-4.0496,-4.0496,-4.0496,-4.0496,-4.0496,-4.0496,-4.0496,-4.0496,-4.0496,-4.0496,-4.0496,-4.0496,-4.0496,-4.0496,-4.0496,-4.0496,-4.0496,-4.0496,-4.0496,-4.0496,-4.0496,-4.0285,-3.9958,-3.9958,-3.9708,-3.9323,-3.8873,-3.8881,-3.9031,-3.827,-3.7857,-3.7508,-3.6473,-3.5598,-3.4808,-3.405,-3.3807,-3.3807,-3.3807,-3.3807,-3.3807,-3.3807,-3.3807,-3.3807,-3.3807,-3.3807,-3.3807,-3.3807,-3.3807,-3.3807,-3.3807,-3.3807,-3.3807,-3.3807,-3.3807,-3.3807,-3.3807,-3.3807,-3.3807,-3.3807,-3.3807,-3.3807,-3.3807,-3.3807,-3.3807,-3.3807,-3.3807,-3.3807,-3.3807,-3.3403,-3.3146,-3.3146,-3.2859,-3.2668,-3.2668,-3.34,-3.3842,-3.3966,-3.4576,-3.5027,-3.5289,-3.5289,-3.5361,-3.55,-3.5354,-3.5361,-2.5462,-2.6135,-2.6736,-2.6467,-2.6595,-2.6779,-2.6626,0.0,0.0,0.0,0.0,0.0,0.0,0.0,0.0,0.0,0.0,0.0,0.0,0.0,0.0,0.0,0.0,0.0,-4.0496,-4.04,-4.0323,-4.0323,-4.0189,-4.0131,-4.0131,-4.0246,-4.0265,-4.0131,-4.0246,-4.0246,-4.0131,-4.0246,-4.0323,-4.0323,-4.0189,-4.0131,-4.0131,-4.0131,-4.0131,-4.0131,0.0,0.0,-3.9111,-3.9111,-3.8661,-3.7988,-3.7853,-3.7851,-3.7886,-3.7655,-3.7012,-3.6187,-3.5783,-3.4831,-3.3807,-3.3807,-3.3807,-3.3807,-3.3807,-3.3807,-3.3807,-3.3807,-3.3807,-3.3807,-3.3807,-3.3807,-3.3807,-3.3807,-3.3807,-3.3807,-3.3807,-3.3807,-3.3807,-3.3807,-3.3807,-3.3807,-3.3807,-3.3807,-3.3807,-3.3807,-3.3807,-3.3807,-3.3807,-3.3807,-3.3807,-3.3807,-3.3842,-3.385,-3.385,-3.3921,-3.3928,-3.3928,-3.4105,-3.4235,-3.4338,-3.4614,-3.4898,-3.5166,-3.5155,-3.5281,-3.55,-3.55,-3.55,-3.55,-3.55,-3.55,-2.6192,-2.7044,-2.7351,-2.5865,-2.6153,-2.6607,0.0,0.0,0.0,0.0,0.0,0.0,0.0,0.0,0.0,0.0,0.0,0.0,0.0,0.0,0.0,0.0,0.0,-4.0496,-4.0496,-3.9881,-3.9477,-3.9477,-3.8796,-3.8373,-3.8373,-3.9084,-3.915,-3.8411,-3.9111,-3.913,-3.8392,-3.913,-3.9477,-3.9477,-3.8738,-3.8373,-3.8373,-3.8373,-3.8373,-3.8373,0.0,-3.8315,-3.82,-3.82,-3.8123,-3.793,-3.7199,-3.7183,-3.7418,-3.6052,-3.5722,-3.5818,-3.4813,-3.4161,-3.3807,-3.3807,-3.3807,-3.3807,-3.3807,-3.3807,-3.3807,-3.3807,-3.3807,-3.3807,-3.3807,-3.3807,-3.3807,-3.3807,-3.3807,-3.3807,-3.3807,-3.3807,-3.3807,-3.3807,-3.3807,-3.3807,-3.3807,-3.3807,-3.3807,-3.3807,-3.3807,-3.3807,-3.3807,-3.3807,-3.3807,-3.3807,-3.3993,-3.4147,-3.4147,-3.4409,-3.4569,-3.4569,-3.4334,-3.4427,-3.4935,-3.5008,-3.5155,-3.5432,-3.5439,-3.5453,-3.55,-3.55,-3.55,-3.55,-3.55,-3.55,-2.501,-2.588,-2.647,-2.614,-2.7112,-2.8057,-2.7731,0.0,0.0,0.0,0.0,0.0,0.0,0.0,0.0,0.0,0.0,0.0,0.0,0.0,0.0,0.0,0.0,-3.9142,-3.9142,-3.8815,-3.8604,-3.8604,-3.8238,-3.8007,-3.8007,-3.8373,-3.8411,-3.8007,-3.8392,-3.8411,-3.8007,-3.793,-3.8123,-3.8584,-3.818,-3.8007,-3.8007,-3.8007,-3.8007,-3.8007,0.0,-3.7738,-3.7296,-3.7296,-3.7046,-3.6615,-3.6212,-3.6192,-3.6288,-3.5256,-3.4931,-3.4884,-3.4222,-3.3902,-3.3807,-3.3807,-3.3807,-3.3807,-3.3807,-3.3807,-3.3807,-3.3807,-3.3807,-3.3807,-3.3807,-3.3807,-3.3807,-3.3807,-3.3807,-3.3807,-3.3807,-3.3807,-3.3807,-3.3807,-3.3807,-3.3807,-3.3807,-3.3807,-3.3807,-3.3807,-3.3807,-3.3807,-3.3807,-3.3807,-3.3868,-3.4012,-3.4123,-3.4258,-3.4445,-3.4603,-3.4754,-3.4908,-3.4774,-3.487,-3.5297,-3.5312,-3.5376,-3.55,-3.55,-3.55,-3.55,-3.55,-3.55,-3.55,-3.55,-3.55,-2.4144,-2.4861,-2.5588,-2.6486,0.0,-2.8824,-2.9125,0.0,0.0,0.0,0.0,0.0,0.0,0.0,0.0,0.0,0.0,0.0,0.0,-3.6692,-3.7019,-3.7892,-3.8007,-3.8007,-3.8007,-3.7815,-3.77,-3.77,-3.7526,-3.7411,-3.7411,-3.7584,-3.7603,-3.743,-3.7603,-3.7603,-3.743,-3.675,-3.6846,-3.77,-3.7507,-3.7411,-3.7411,-3.7411,-3.7411,-3.7411,-3.7411,-3.7046,-3.6423,-3.6423,-3.6058,-3.55,-3.55,-3.5424,-3.5254,-3.4841,-3.4453,-3.408,-3.3863,-3.3807,-3.3807,-3.3807,-3.3807,-3.3807,-3.3807,-3.3807,-3.3807,-3.3807,-3.3807,-3.3807,-3.3807,-3.3807,-3.3807,-3.3807,-3.3807,-3.3807,-3.3807,-3.3807,-3.3807,-3.3807,-3.3807,-3.3807,-3.3807,-3.3807,-3.3807,-3.3807,-3.3855,-3.3889,-3.3889,-3.3967,-3.4099,-3.43,-3.4371,-3.4542,-3.4851,-3.4898,-3.4972,-3.519,-3.5198,-3.5289,-3.5493,-3.55,-3.55,-3.55,-3.55,-3.55,-3.55,-3.55,-3.55,-3.55,-3.55,-3.55,-2.4981,-2.5255,-2.5529,-2.6471,-2.6889,0.0,-2.8101,0.0,0.0,0.0,0.0,0.0,0.0,0.0,0.0,0.0,0.0,0.0,0.0,0.0,-3.7019,-3.7892,-3.8007,-3.8007,-3.8007,-3.7276,-3.6788,-3.6788,-3.6096,-3.5673,-3.5673,-3.6385,-3.6442,-3.5692,-3.6404,-3.6442,-3.5692,-3.5615,-3.5981,-3.6769,-3.6038,-3.5673,-3.5673,-3.5673,-3.5673,-3.5673,-3.5673,-3.5635,-3.5596,-3.5596,-3.5558,-3.55,-3.55,-3.5198,-3.4744,-3.4704,-3.4337,-3.3829,-3.382,-3.3807,-3.3807,-3.3807,-3.3807,-3.3807,-3.3807,-3.3807,-3.3807,-3.3807,-3.3807,-3.3807,-3.3807,-3.3807,-3.3807,-3.3807,-3.3807,-3.3807,-3.3807,-3.3807,-3.3807,-3.3807,-3.3807,-3.3807,-3.3807,-3.3807,-3.3807,-3.3807,-3.4006,-3.4183,-3.4183,-3.4434,-3.4643,-3.4663,-3.4898,-3.5147,-3.5424,-3.5439,-3.5446,-3.5479,-3.546,-3.5486,-3.55,-3.55,-3.55,-3.55,-3.55,-3.55,-3.55,-3.55,-3.55,-3.55,-3.55,-3.55,-2.3524,-2.42,-2.4872,-2.5689,0.0,0.0,0.0,0.0,0.0,0.0,0.0,0.0,0.0,0.0,0.0,0.0,0.0,0.0,0.0,-3.5942,-3.6077,-3.6404,-3.6442,-3.6442,-3.6442,-3.6154,-3.5942,-3.5942,-3.5673,-3.55,-3.55,-3.5788,-3.5808,-3.5519,-3.5808,-3.5808,-3.55,-3.55,-3.5654,-3.5942,-3.5654,-3.55,-3.55,-3.55,-3.55,-3.55,-3.55,-3.55,-3.55,-3.55,-3.5391,-3.5231,-3.507,-3.4745,-3.439,-3.439,-3.4141,-3.3807,-3.3807,-3.3807,-3.3807,-3.3807,-3.3807,-3.3807,-3.3807,-3.3807,-3.3807,-3.3807,-3.3807,-3.3807,-3.3807,-3.3807,-3.3807,-3.3807,-3.3807,-3.3807,-3.3807,-3.3807,-3.3807,-3.3807,-3.3807,-3.3807,-3.3807,-3.3935,-3.4056,-3.4056,-3.4311,-3.4518,-3.4518,-3.4632,-3.4754,-3.4935,-3.519,-3.5383,-3.5493,-3.55,-3.55,-3.55,-3.55,-3.55,-3.55,-3.55,-3.55,-3.55,-3.55,-3.55,-3.55,-3.55,-3.55,-3.55,-3.55,-3.55,-2.2747,-2.3528,-2.4384,0.0,0.0,0.0,0.0,0.0,0.0,0.0,0.0,0.0,0.0,0.0,0.0,0.0,0.0,0.0,-3.5432,-3.55,-3.55,-3.55,-3.55,-3.5385,-3.5122,-3.5084,-3.5084,-3.5084,-3.5084,-3.5212,-3.5481,-3.55,-3.5365,-3.5103,-3.5365,-3.5365,-3.5084,-3.5365,-3.55,-3.55,-3.55,-3.55,-3.55,-3.55,-3.55,-3.55,-3.55,-3.55,-3.5493,-3.5417,-3.5215,-3.4954,-3.4764,-3.4497,-3.42,-3.42,-3.4031,-3.3807,-3.3807,-3.3807,-3.3807,-3.3807,-3.3807,-3.3807,-3.3807,-3.3807,-3.3807,-3.3807,-3.3807,-3.3807,-3.3807,-3.3807,-3.3807,-3.3807,-3.3807,-3.3807,-3.3807,-3.3807,-3.3807,-3.3807,-3.3807,-3.3807,-3.3807,-3.3948,-3.4099,-3.4195,-3.4497,-3.4724,-3.4822,-3.4908,-3.5016,-3.5207,-3.5383,-3.55,-3.55,-3.55,-3.55,-3.55,-3.55,-3.55,-3.55,-3.55,-3.55,-3.55,-3.55,-3.55,-3.55,-3.55,-3.55,-3.55,-3.55,-3.55,-2.3127,-2.3541,0.0,0.0,0.0,0.0,0.0,0.0,0.0,0.0,0.0,0.0,0.0,0.0,0.0,-3.3206,-3.4588,-3.5612,-3.5496,-3.5481,-3.5481,-3.5481,-3.5481,-3.5135,-3.4263,-3.4186,-3.4186,-3.4186,-3.4186,-3.4564,-3.5423,-3.5481,-3.5084,-3.4205,-3.5026,-3.5064,-3.4205,-3.5045,-3.5481,-3.5481,-3.5481,-3.5481,-3.55,-3.55,-3.55,-3.55,-3.55,-3.55,-3.5486,-3.5207,-3.4935,-3.4694,-3.4684,-3.4497,-3.4188,-3.4188,-3.4031,-3.3807,-3.3807,-3.3807,-3.3807,-3.3807,-3.3807,-3.3807,-3.3807,-3.3807,-3.3807,-3.3807,-3.3807,-3.3807,-3.3788,-3.3788,-3.3788,-3.3807,-3.3807,-3.3807,-3.3788,-3.3788,-3.3788,-3.3788,-3.382,-3.382,-3.3802,-3.382,-3.3902,-3.4171,-3.4478,-3.4793,-3.5079,-3.5346,-3.55,-3.55,-3.55,-3.55,-3.55,-3.55,-3.55,-3.55,-3.55,-3.55,-3.55,-3.55,-3.55,-3.55,-3.55,-3.55,-3.55,-3.55,-3.55,-3.55,-3.55,-3.55,-2.2969,-2.3604,0.0,0.0,0.0,0.0,0.0,0.0,0.0,0.0,0.0,0.0,0.0,0.0,0.0,-3.2272,-3.2731,-3.318,-3.3677,-3.3704,-3.368,-3.368,-3.368,-3.3564,-3.3314,-3.3295,-3.3295,-3.3295,-3.3295,-3.3391,-3.366,-3.368,-3.3545,-3.3295,-3.3545,-3.3545,-3.3295,-3.3545,-3.3987,-3.4584,-3.4584,-3.4911,-3.55,-3.55,-3.55,-3.55,-3.55,-3.5383,-3.519,-3.4676,-3.4416,-3.4334,-3.4148,-3.4018,-3.3928,-3.3928,-3.3863,-3.3807,-3.3807,-3.3807,-3.3807,-3.3807,-3.3807,-3.3807,-3.3807,-3.3807,-3.3807,-3.3807,-3.3807,-3.3842,-3.4031,-3.4074,-3.4031,-3.3842,-3.3807,-3.3855,-3.4043,-3.4074,-3.4074,-3.4074,-3.4272,-3.4353,-3.4111,-3.4434,-3.4745,-3.4823,-3.5077,-3.5289,-3.5369,-3.5446,-3.55,-3.55,-3.55,-3.55,-3.55,-3.55,-3.55,-3.55,-3.55,-3.55,-3.55,-3.55,-3.55,-3.55,-3.55,-3.55,-3.55,-3.55,-3.55,-3.55,-3.55,-3.55,-2.3359,0.0,0.0,0.0,0.0,0.0,0.0,0.0,0.0,0.0,0.0,0.0,0.0,0.0,0.0,-3.1941,-3.2221,-3.255,-3.2938,-3.2943,-3.2891,-3.2891,-3.2891,-3.2776,-3.2449,-3.2429,-3.2429,-3.2429,-3.2429,-3.2564,-3.2872,-3.2891,-3.2756,-3.2429,-3.2737,-3.2756,-3.2429,-3.2737,-3.316,-3.368,-3.368,-3.3968,-3.4481,-3.5173,-3.5308,-3.5,-3.523,-3.519,-3.4889,-3.4394,-3.4135,-3.4018,-3.385,-3.3807,-3.3807,-3.3807,-3.3807,-3.3807,-3.3807,-3.3807,-3.3807,-3.3807,-3.3807,-3.3807,-3.3807,-3.3807,-3.3815,-3.3941,-3.3961,-3.4037,-3.4323,-3.4401,-3.4357,-3.4208,-3.416,-3.4189,-3.4357,-3.4401,-3.4401,-3.4401,-3.4561,-3.4643,-3.4423,-3.4695,-3.4972,-3.5088,-3.5339,-3.55,-3.55,-3.55,-3.55,-3.55,-3.55,-3.55,-3.55,-3.55,-3.55,-3.55,-3.55,-3.55,-3.55,-3.55,-3.55,-3.55,-3.55,-3.55,-3.55,-3.55,-3.55,-3.55,-3.55,-3.55,0.0,0.0,0.0,0.0,0.0,0.0,0.0,0.0,0.0,0.0,0.0,0.0,0.0,0.0,-3.2049,-3.1927,-3.2499,-3.293,-3.2797,-3.2723,-3.2679,-3.2679,-3.2679,-3.2372,-3.166,-3.1583,-3.1583,-3.1583,-3.1583,-3.191,-3.2622,-3.2679,-3.2333,-3.1602,-3.2295,-3.2314,-3.1583,-3.2314,-3.2718,-3.2795,-3.2795,-3.2795,-3.2852,-3.4596,-3.4974,-3.43,-3.4803,-3.4879,-3.4632,-3.43,-3.4018,-3.3807,-3.3807,-3.3807,-3.3807,-3.3807,-3.3807,-3.3807,-3.3807,-3.3807,-3.3807,-3.3807,-3.3807,-3.3807,-3.3807,-3.3807,-3.3868,-3.4123,-3.42,-3.4269,-3.4634,-3.4753,-3.4734,-3.4783,-3.4743,-3.4723,-3.4724,-3.4753,-3.4753,-3.4753,-3.4773,-3.4773,-3.4734,-3.4773,-3.486,-3.5105,-3.5335,-3.55,-3.55,-3.55,-3.55,-3.55,-3.55,-3.55,-3.55,-3.55,-3.55,-3.55,-3.55,-3.55,-3.55,-3.55,-3.55,-3.55,-3.55,-3.55,-3.55,-3.55,-3.55,-3.55,-3.55,-3.55,0.0,0.0,0.0,0.0,0.0,0.0,0.0,0.0,0.0,0.0,0.0,0.0,0.0,0.0,-3.1172,-3.1131,-3.1145,-3.1141,-3.1119,-3.1009,-3.0942,-3.0942,-3.0942,-3.0865,-3.0692,-3.0673,-3.0673,-3.0673,-3.0673,-3.075,-3.0923,-3.0942,-3.0865,-3.0692,-3.0846,-3.0846,-3.0673,-3.0846,-3.1269,-3.1968,-3.1968,-3.1968,-3.2025,-3.3718,-3.4635,-3.4887,-3.4531,-3.4349,-3.4288,-3.4012,-3.3855,-3.3807,-3.3807,-3.3807,-3.3807,-3.3807,-3.3807,-3.3807,-3.3807,-3.3807,-3.3807,-3.3807,-3.3807,-3.3807,-3.3807,-3.3807,-3.3868,-3.4123,-3.42,-3.4327,-3.4879,-3.5008,-3.507,-3.5281,-3.4999,-3.4754,-3.4972,-3.5008,-3.5008,-3.5008,-3.519,-3.5266,-3.5062,-3.519,-3.5354,-3.5417,-3.5453,-3.55,-3.55,-3.55,-3.55,-3.55,-3.55,-3.55,-3.55,-3.55,-3.55,-3.55,-3.55,-3.55,-3.55,-3.55,-3.55,-3.55,-3.55,-3.55,-3.55,-3.55,-3.55,-3.55,-3.55,-3.55,0.0,0.0,0.0,0.0,0.0,0.0,0.0,0.0,0.0,0.0,0.0,0.0,0.0,-3.0898,-3.0898,-3.0898,-3.0725,-3.0603,-3.0603,-3.0486,-3.0404,-3.0404,-3.0404,-3.0404,-3.0404,-3.0404,-3.0404,-3.0404,-3.0404,-3.0404,-3.0404,-3.0404,-3.0404,-3.0404,-3.0404,-3.0404,-3.0404,-3.0404,-3.056,-3.0879,-3.0879,-3.1049,-3.1409,-3.2759,-3.3723,-3.4262,-3.3824,-3.3846,-3.4146,-3.3491,-3.3458,-3.3807,-3.3807,-3.3807,-3.3807,-3.3807,-3.3807,-3.3807,-3.3807,-3.3807,-3.3807,-3.3807,-3.3807,-3.3807,-3.3807,-3.3889,-3.4056,-3.4345,-3.4532,-3.4726,-3.5171,-3.5289,-3.5339,-3.5479,-3.5289,-3.5122,-3.5266,-3.5289,-3.5289,-3.5289,-3.5398,-3.5453,-3.5312,-3.5417,-3.55,-3.55,-3.55,-3.55,-3.55,-3.55,-3.55,-3.55,-3.55,-3.55,-3.55,-3.55,-3.55,-3.55,-3.55,-3.55,-3.55,-3.55,-3.55,-3.55,-3.55,-3.55,-3.55,-3.55,-3.55,-3.55,-3.55,-3.55,0.0,0.0,0.0,0.0,0.0,0.0,0.0,0.0,0.0,0.0,0.0,0.0,0.0,-3.0566,-3.0684,-3.0684,-3.0393,-3.0214,-3.0372,-3.0273,-3.0173,-3.0173,-3.0308,-3.0404,-3.0404,-3.0404,-3.0404,-3.0404,-3.0404,-3.0404,-3.0404,-3.0404,-3.0404,-3.0404,-3.0404,-3.0373,-3.0323,-3.0323,-3.0196,-2.9954,-2.9954,-3.0213,-3.0753,-3.1724,-3.2521,-3.3098,-3.2832,-3.3169,-3.3851,-3.2968,-3.306,-3.3807,-3.3807,-3.3807,-3.3807,-3.3807,-3.3807,-3.3807,-3.3807,-3.3807,-3.3807,-3.3807,-3.3807,-3.382,-3.3868,-3.4018,-3.4269,-3.4655,-3.4935,-3.5155,-3.5432,-3.55,-3.55,-3.55,-3.55,-3.55,-3.55,-3.55,-3.55,-3.55,-3.55,-3.55,-3.55,-3.55,-3.55,-3.55,-3.55,-3.55,-3.55,-3.55,-3.55,-3.55,-3.55,-3.55,-3.55,-3.55,-3.55,-3.55,-3.55,-3.55,-3.55,-3.55,-3.55,-3.55,-3.55,-3.55,-3.55,-3.55,-3.55,-3.55,-3.55,-3.55,0.0,0.0,0.0,0.0,0.0,0.0,0.0,0.0,0.0,0.0,0.0,0.0,0.0,-2.9258,-2.9766,-2.9766,-2.9027,-2.8696,-2.9444,-2.9393,-2.928,-2.928,-2.9948,-3.0404,-3.0404,-3.0404,-3.0404,-3.0404,-3.0404,-3.0404,-3.0404,-3.0404,-3.0404,-3.0404,-3.0404,-3.0299,-3.0061,-3.0042,-2.9947,-2.9748,-2.9748,-2.97,-2.963,-3.0463,-3.1277,-3.2003,-3.1732,-3.2065,-3.2794,-3.2664,-3.306,-3.3807,-3.3807,-3.3807,-3.3807,-3.3807,-3.3807,-3.3807,-3.3807,-3.3807,-3.3807,-3.3807,-3.3807,-3.3842,-3.408,-3.4183,-3.4315,-3.4889,-3.5079,-3.5155,-3.5432,-3.55,-3.55,-3.55,-3.55,-3.55,-3.55,-3.55,-3.55,-3.55,-3.55,-3.55,-3.55,-3.55,-3.55,-3.55,-3.55,-3.55,-3.55,-3.55,-3.55,-3.55,-3.55,-3.55,-3.55,-3.55,-3.55,-3.55,-3.55,-3.55,-3.55,-3.55,-3.55,-3.55,-3.55,-3.55,-3.55,-3.55,-3.55,-3.55,-3.55,-3.55,0.0,0.0,0.0,0.0,0.0,0.0,0.0,0.0,0.0,0.0,0.0,0.0,-2.8281,-2.8613,-2.8867,-2.8867,-2.8442,-2.8229,-2.8621,-2.8537,-2.8434,-2.8434,-2.8775,-2.9179,-2.9621,-2.9679,-2.9679,-2.9679,-3.0115,-3.0192,-2.9698,-3.0135,-3.0404,-3.0404,-3.0404,-3.0267,-3.0006,-3.0006,-2.9845,-2.9532,-2.9385,-2.927,-2.9189,-2.954,-3.0142,-3.0912,-3.0778,-3.1182,-3.1898,-3.1439,-3.2008,-3.3115,-3.3115,-3.3403,-3.3807,-3.3807,-3.3807,-3.3807,-3.3807,-3.3807,-3.3807,-3.3807,-3.3807,-3.3855,-3.4123,-3.4334,-3.4572,-3.499,-3.5207,-3.5354,-3.5479,-3.55,-3.55,-3.55,-3.55,-3.55,-3.55,-3.55,-3.55,-3.55,-3.55,-3.55,-3.55,-3.55,-3.55,-3.55,-3.55,-3.55,-3.55,-3.55,-3.55,-3.55,-3.55,-3.55,-3.55,-3.55,-3.55,-3.55,-3.55,-3.55,-3.55,-3.55,-3.55,-3.55,-3.55,-3.55,-3.55,-3.55,-3.55,-3.55,-3.55,-3.55,0.0,0.0,0.0,0.0,0.0,0.0,0.0,0.0,0.0,0.0,0.0,0.0,-2.7519,-2.7812,-2.7969,-2.7969,-2.7688,-2.7549,-2.7748,-2.7667,-2.758,-2.7568,-2.778,-2.8145,-2.8742,-2.88,-2.88,-2.88,-2.941,-2.9486,-2.8838,-2.9602,-3.0077,-3.0077,-3.0288,-3.0248,-2.9931,-2.9802,-2.9607,-2.9299,-2.9089,-2.9005,-2.9005,-2.9005,-2.9335,-2.9898,-2.9898,-3.0356,-3.1048,-3.0448,-3.1035,-3.232,-3.2509,-3.2981,-3.3532,-3.3715,-3.3807,-3.3807,-3.3807,-3.3842,-3.3902,-3.3902,-3.3967,-3.4074,-3.4357,-3.4595,-3.487,-3.5122,-3.5354,-3.55,-3.55,-3.55,-3.55,-3.55,-3.55,-3.55,-3.55,-3.55,-3.55,-3.55,-3.55,-3.55,-3.55,-3.55,-3.55,-3.55,-3.55,-3.55,-3.55,-3.55,-3.55,-3.55,-3.55,-3.55,-3.55,-3.55,-3.55,-3.55,-3.55,-3.55,-3.55,-3.55,-3.55,-3.55,-3.55,-3.55,-3.55,-3.55,-3.55,-3.55,-3.55,-3.55,0.0,0.0,0.0,0.0,0.0,0.0,0.0,0.0,0.0,0.0,0.0,0.0,0.0,-2.6504,-2.707,-2.707,-2.632,-2.5996,-2.6753,-2.6819,-2.6743,-2.6674,-2.739,-2.7915,-2.7953,-2.7953,-2.7953,-2.7953,-2.8011,-2.8011,-2.7953,-2.8723,-2.9165,-2.9165,-2.9967,-3.0188,-2.9722,-2.9272,-2.9044,-2.9028,-2.9005,-2.9005,-2.9005,-2.9005,-2.9023,-2.906,-2.906,-2.9519,-3.0265,-3.0228,-3.0705,-3.1544,-3.2289,-3.2619,-3.2748,-3.3532,-3.3807,-3.3807,-3.3807,-3.3961,-3.4183,-3.4183,-3.439,-3.4704,-3.4972,-3.507,-3.5149,-3.5391,-3.5493,-3.55,-3.55,-3.55,-3.55,-3.55,-3.55,-3.55,-3.55,-3.55,-3.55,-3.55,-3.55,-3.55,-3.55,-3.55,-3.55,-3.55,-3.55,-3.55,-3.55,-3.55,-3.55,-3.55,-3.55,-3.55,-3.55,-3.55,-3.55,-3.55,-3.55,-3.55,-3.55,-3.55,-3.55,-3.55,-3.55,-3.55,-3.55,-3.55,-3.55,-3.55,-3.55,-3.55,0.0,0.0,0.0,0.0,0.0,0.0,0.0,0.0,0.0,0.0,0.0,0.0,0.0,-2.5957,-2.6172,-2.6172,-2.58,-2.5632,-2.5926,-2.5878,-2.5779,-2.5774,-2.6038,-2.6447,-2.7005,-2.7063,-2.7063,-2.7063,-2.7582,-2.7659,-2.7101,-2.7871,-2.8338,-2.8338,-2.9121,-2.9614,-2.9705,-2.9405,-2.9178,-2.9005,-2.9005,-2.9005,-2.9005,-2.9005,-2.9005,-2.9005,-2.9005,-2.9152,-2.9427,-2.9427,-2.9898,-3.0705,-3.1513,-3.2155,-3.2693,-3.3495,-3.3807,-3.3807,-3.3807,-3.3974,-3.42,-3.42,-3.4423,-3.4744,-3.5016,-3.5105,-3.5166,-3.5432,-3.55,-3.55,-3.55,-3.55,-3.55,-3.55,-3.55,-3.55,-3.55,-3.55,-3.55,-3.55,-3.55,-3.55,-3.55,-3.55,-3.55,-3.55,-3.55,-3.55,-3.55,-3.55,-3.55,-3.55,-3.55,-3.55,-3.55,-3.55,-3.55,-3.55,-3.55,-3.55,-3.55,-3.55,-3.55,-3.55,-3.55,-3.55,-3.55,-3.55,-3.55,-3.55,-3.55,-3.55,-1.5449,0.0,0.0,0.0,0.0,0.0,0.0,0.0,0.0,0.0,0.0,0.0,0.0,0.0,-2.5703,-2.5703,-2.5604,-2.5533,-2.5493,-2.5394,-2.5336,-2.5293,-2.5308,-2.5538,-2.6115,-2.6154,-2.6154,-2.6154,-2.6697,0.0,-2.6192,-2.6986,-2.7717,-2.8299,-2.9012,-2.9508,-2.9705,-2.9494,-2.9267,-2.9005,-2.9005,-2.9005,-2.9005,-2.9005,-2.9005,-2.9005,-2.9005,-2.9005,-2.9005,-2.9005,-2.9317,-2.9879,-3.0687,-3.1329,-3.1885,-3.2706,-3.2981,-3.3012,-3.311,-3.33,-3.3593,-3.3953,-3.4281,-3.4618,-3.5087,-3.5231,-3.5273,-3.5446,-3.55,-3.55,-3.55,-3.55,-3.55,-3.55,-3.55,-3.55,-3.55,-3.55,-3.55,-3.55,-3.55,-3.55,-3.55,-3.55,-3.55,-3.55,-3.55,-3.55,-3.55,-3.55,-3.55,-3.55,-3.55,-3.55,-3.55,-3.55,-3.55,-3.55,-3.55,-3.55,-3.55,-3.55,-3.55,-3.55,-3.55,-3.55,-3.55,-3.55,-3.55,-3.55,-3.55,-3.55,0.0,0.0,0.0,0.0,0.0,0.0,0.0,0.0,0.0,0.0,0.0,0.0,0.0,0.0,0.0,-2.5703,-2.5637,-2.5588,-2.552,-2.5447,-2.5372,-2.5303,-2.5308,-2.5308,-2.5308,-2.5308,-2.5308,-2.5308,-2.5308,-2.5308,-2.5308,-2.6096,-2.7313,-2.8973,-2.9614,-2.9859,-2.9676,-2.9494,-2.9278,-2.9017,-2.9017,-2.9005,-2.9005,-2.9005,-2.9005,-2.9005,-2.9005,-2.9005,-2.9005,-2.9005,-2.9005,-2.9078,-2.9886,-3.021,-3.0301,-3.1103,-3.1397,-3.1434,-3.1711,-3.1977,-3.2364,-3.3409,-3.3929,-3.4321,-3.5173,-3.5442,-3.5462,-3.5462,-3.5481,-3.55,-3.55,-3.55,-3.55,-3.55,-3.55,-3.55,-3.55,-3.55,-3.55,-3.55,-3.55,-3.55,-3.55,-3.55,-3.55,-3.55,-3.55,-3.55,-3.55,-3.55,-3.55,-3.55,-3.55,-3.55,-3.55,-3.55,-3.55,-3.55,-3.55,-3.55,-3.55,-3.55,-3.55,-3.55,-3.55,-3.55,-3.55,-3.55,-3.55,-3.55,-3.55,-3.55,-1.4219,0.0,0.0,0.0,0.0,0.0,0.0,0.0,0.0,0.0,0.0,0.0,0.0,0.0,0.0,0.0,-2.5637,-2.5588,-2.552,-2.5444,-2.5383,-2.5303,-2.5308,-2.5308,-2.5308,-2.5308,-2.5308,0.0,-2.5308,-2.5308,-2.5308,-2.5538,-2.6154,-2.7255,-2.8076,-2.8664,-2.9049,-2.9577,-2.9652,-2.9289,-2.9289,-2.92,-2.9005,-2.9005,-2.9005,-2.9005,-2.9005,-2.9005,-2.9005,-2.9005,-2.9005,-2.9078,-2.9886,-3.021,-3.0301,-3.1103,-3.1397,-3.1434,-3.1711,-3.1977,-3.2269,-3.2716,-3.3041,-3.3295,-3.3545,-3.4064,-3.4564,-3.4564,-3.5007,-3.55,-3.55,-3.55,-3.55,-3.55,-3.55,-3.55,-3.55,-3.55,-3.55,-3.55,-3.55,-3.55,-3.55,-3.55,-3.55,-3.55,-3.55,-3.55,-3.55,-3.55,-3.55,-3.55,-3.55,-3.55,-3.55,-3.55,-3.55,-3.55,-3.55,-3.55,-3.55,-3.55,-3.55,-3.55,-3.55,-3.55,-3.55,-3.55,-3.55,-3.55,-3.55,-3.55,-1.4883,0.0,0.0,0.0,0.0,0.0,0.0,-2.0586,0.0,0.0,0.0,0.0,0.0,0.0,0.0,0.0,-2.5661,-2.5605,-2.5503,-2.5444,-2.5383,-2.5303,-2.5308,-2.5308,-2.5308,-2.5308,-2.5308,-2.5308,-2.5308,-2.5308,-2.5308,-2.5635,-2.6077,-2.6582,-2.7448,-2.8182,-2.8793,-2.9144,-2.9355,-2.9402,-2.9289,-2.9156,-2.9005,-2.9005,-2.9005,-2.9005,-2.9005,-2.9005,-2.9005,-2.9005,-2.9005,-2.906,-2.9519,-2.9702,-2.9781,-3.0351,-3.0563,-3.0602,-3.0928,-3.1137,-3.1379,-3.1966,-3.2262,-3.2468,-3.2795,-3.3256,-3.3725,-3.4109,-3.4834,-3.55,-3.55,-3.55,-3.55,-3.55,-3.55,-3.55,-3.55,-3.55,-3.55,-3.55,-3.55,-3.55,-3.55,-3.55,-3.55,-3.55,-3.55,-3.55,-3.55,-3.55,-3.55,-3.55,-3.55,-3.55,-3.55,-3.55,-3.55,-3.55,-3.55,-3.55,-3.55,-3.55,-3.55,-3.55,-3.55,-3.55,-3.55,-3.55,-3.55,-3.55,-3.55,-3.55,-1.5937,-1.6953,0.0,0.0,0.0,0.0,-2.0684,-2.0195,-1.9824,0.0,0.0,0.0,0.0,0.0,0.0,0.0,0.0,-2.5542,-2.5518,-2.5443,-2.5387,-2.5327,-2.5298,-2.5308,-2.5308,-2.5308,-2.5308,-2.5308,-2.5308,-2.5308,-2.5308,-2.6038,-2.6467,-2.6467,-2.7294,-2.8015,-2.8553,-2.8507,-2.8758,-2.9293,-2.9155,-2.9055,-2.9005,-2.9005,-2.9005,-2.9005,-2.9005,-2.9005,-2.9005,-2.9005,-2.9005,-2.9005,-2.9005,-2.9005,-2.9021,-2.9299,-2.9402,-2.9464,-2.9861,-3.0006,-3.0169,-3.122,-3.1564,-3.1698,-3.241,-3.2699,-3.2949,-3.3821,-3.468,-3.5365,-3.5365,-3.5423,-3.5481,-3.5385,-3.5423,-3.5442,-3.525,-3.5288,-3.5327,-3.5231,-3.5365,-3.55,-3.55,-3.55,-3.55,-3.55,-3.55,-3.55,-3.55,-3.55,-3.55,-3.55,-3.55,-3.55,-3.55,-3.55,-3.55,-3.55,-3.55,-3.55,-3.55,-3.55,-3.55,-3.55,-3.55,-3.55,-3.55,-3.55,-3.55,-3.55,-3.55,-3.55,-1.7734,-1.8769,0.0,0.0,0.0,0.0,-1.8047,-1.7988,-1.8594,0.0,0.0,0.0,0.0,0.0,0.0,0.0,0.0,0.0,-2.5499,-2.5511,-2.5462,-2.5391,-2.5335,-2.5308,-2.5308,-2.5308,-2.5308,-2.5308,-2.5308,-2.5308,-2.5308,-2.5462,-2.5558,-2.5558,-2.6409,-2.6913,-2.7034,-2.8316,-2.8843,-2.86,-2.9241,-2.9367,-2.9005,-2.9005,-2.9005,-2.9005,-2.9005,-2.9005,-2.9005,-2.9005,-2.9005,-2.9005,-2.9005,-2.9005,-2.9021,-2.9299,-2.9402,-2.9464,-2.9861,-3.0006,-3.0073,-3.0503,-3.0654,-3.0673,-3.0846,-3.1385,-3.2102,-3.291,-3.3776,-3.4449,-3.4449,-3.4968,-3.5327,-3.4622,-3.4988,-3.5115,-3.3718,-3.3968,-3.4257,-3.3545,-3.4538,-3.55,-3.55,-3.55,-3.55,-3.55,-3.55,-3.55,-3.55,-3.55,-3.55,-3.55,-3.55,-3.55,-3.55,-3.55,-3.55,-3.55,-3.55,-3.55,-3.55,-3.55,-3.55,-3.55,-3.55,-3.55,-3.55,-3.55,-3.55,-3.55,-3.55,-3.55,-1.9004,-1.9609,-2.0293,-1.8965,0.0,0.0,0.0,0.0,-1.7715,0.0,0.0,0.0,0.0,0.0,0.0,0.0,0.0,0.0,0.0,-2.4717,-2.5485,-2.5404,-2.5348,-2.5308,-2.5308,-2.5308,-2.5308,-2.5308,-2.5308,-2.5308,-2.5308,-2.5308,-2.5308,-2.5308,-2.5712,-2.6154,-2.6601,-2.7735,-2.8388,-2.8613,-2.9239,-2.9425,-2.9181,-2.9055,-2.9005,-2.9005,-2.9005,-2.9005,-2.9005,-2.9005,-2.9005,-2.9005,-2.9005,-2.9078,-2.9225,-2.9465,-2.9616,-2.9748,-3.0087,-3.0202,-3.0215,-3.0355,-3.0404,-3.0404,-3.0404,-3.1,-3.1775,-3.2199,-3.3218,-3.4109,-3.366,-3.4199,-3.4622,-3.3757,-3.3891,-3.3968,-3.3083,-3.3237,-3.341,-3.2987,-3.3603,-3.4334,-3.4776,-3.4853,-3.5007,-3.5423,-3.55,-3.55,-3.55,-3.55,-3.55,-3.55,-3.55,-3.55,-3.55,-3.55,-3.55,-3.55,-3.55,-3.55,-3.55,-3.55,-3.55,-3.55,-3.55,-3.55,-3.55,-3.55,-3.55,-3.55,-3.55,-3.55,0.0,0.0,0.0,0.0,0.0,-1.8926,0.0,0.0,0.0,0.0,0.0,0.0,0.0,0.0,0.0,0.0,0.0,0.0,0.0,0.0,0.0,-2.4668,-2.4909,-2.5077,-2.5077,-2.4923,-2.4942,-2.5288,-2.5,-2.4962,-2.5288,-2.5308,-2.5308,-2.5308,-2.5308,-2.5635,-2.6346,-2.7005,-2.7745,-2.855,-2.9039,-2.9334,-2.9392,-2.9178,-2.9044,-2.9005,-2.9005,-2.9005,-2.9005,-2.9005,-2.9005,-2.9005,-2.9005,-2.9167,-2.9414,-2.9635,-2.9829,-3.0028,-3.0311,-3.0404,-3.0404,-3.0404,-3.0404,-3.0404,-3.0404,-3.0885,-3.1448,-3.1448,-3.2545,-3.3571,-3.2852,-3.3314,-3.3725,-3.2872,-3.2795,-3.2814,-3.2487,-3.2545,-3.2622,-3.2449,-3.2429,-3.2737,-3.3782,-3.3955,-3.418,-3.4885,-3.5135,-3.525,-3.525,-3.5404,-3.55,-3.55,-3.55,-3.55,-3.55,-3.55,-3.55,-3.55,-3.55,-3.55,-3.55,-3.55,-3.55,-3.55,-3.55,-3.5423,-3.525,-3.525,-3.5346,-3.55,-3.55,-3.55,0.0,0.0,0.0,0.0,-2.1035,0.0,0.0,0.0,-1.7461,-1.6113,0.0,0.0,0.0,0.0,0.0,0.0,0.0,0.0,0.0,0.0,0.0,-2.2035,-2.3331,-2.424,-2.424,-2.3548,-2.3697,-2.5192,-2.3928,-2.3735,-2.5231,-2.5308,-2.5308,-2.5308,-2.5308,-2.5346,-2.5442,-2.6273,-2.7022,-2.7667,-2.847,-2.9049,-2.9402,-2.9372,-2.9214,-2.9005,-2.9005,-2.9005,-2.9005,-2.9005,-2.9005,-2.9005,-2.9005,-2.9167,-2.9414,-2.9635,-2.9829,-3.0028,-3.0311,-3.0404,-3.0404,-3.0404,-3.0404,-3.0404,-3.0404,-3.0462,-3.0558,-3.0558,-3.1231,-3.1968,-3.1852,-3.2449,-3.2833,-3.2025,-3.2372,-3.2487,-3.1,-3.1288,-3.1621,-3.0827,-3.0673,-3.1192,-3.2776,-3.3045,-3.3083,-3.3179,-3.3853,-3.4359,-3.4359,-3.5026,-3.55,-3.55,-3.55,-3.55,-3.55,-3.55,-3.55,-3.55,-3.55,-3.55,-3.55,-3.55,-3.55,-3.55,-3.55,-3.5122,-3.4359,-3.4359,-3.4737,-3.55,-3.55,-3.55,0.0,0.0,0.0,0.0,0.0,0.0,-1.7519,0.0,-1.6426,0.0,0.0,0.0,0.0,0.0,0.0,0.0,0.0,0.0,0.0,0.0,0.0,0.0,0.0,0.0,-2.3297,-2.3009,-2.3297,-2.4505,-2.349,-2.3524,-2.5212,-2.5308,-2.5308,-2.5308,-2.5308,-2.5308,-2.5308,-2.6154,-2.6973,-2.7731,-2.8459,-2.9075,-2.957,-2.9454,-2.9246,-2.9005,-2.9005,-2.9005,-2.9005,-2.9005,-2.9005,-2.9005,-2.9005,-2.9238,-2.9579,-2.967,-2.9927,-3.0254,-3.0361,-3.0404,-3.0404,-3.0404,-3.0404,-3.0404,-3.0404,-3.0404,-3.0404,-3.0404,-3.1019,-3.1583,-3.1077,-3.1564,-3.1987,-3.1154,-3.1192,-3.125,-3.0558,-3.0692,-3.0846,-3.0462,-3.0404,-3.0615,-3.1327,-3.1872,-3.2352,-3.2833,-3.3218,-3.3622,-3.4129,-3.4083,-3.4199,-3.4699,-3.4295,-3.4199,-3.4699,-3.4757,-3.4968,-3.5462,-3.55,-3.55,-3.55,-3.55,-3.525,-3.4757,-3.4757,-3.4314,-3.3449,-3.3449,-3.3622,-3.4007,-3.4507,-3.4468,-2.4043,0.0,0.0,0.0,0.0,0.0,0.0,0.0,0.0,0.0,0.0,0.0,0.0,0.0,0.0,0.0,0.0,0.0,0.0,0.0,0.0,0.0,0.0,0.0,0.0,-2.2177,-2.2412,-2.3975,-2.2874,-2.3043,-2.5192,-2.5308,-2.5308,-2.5308,-2.5308,-2.5308,-2.5308,-2.5923,-2.6678,-2.7544,-2.8236,-2.8879,-2.945,-2.9476,-2.9343,-2.91,-2.904,-2.9005,-2.9005,-2.9005,-2.9033,-2.9112,-2.9112,-2.9387,-2.979,-2.9722,-3.0,-3.0404,-3.0404,-3.0404,-3.0404,-3.0404,-3.0404,-3.0404,-3.0404,-3.0404,-3.0404,-3.0404,-3.0865,-3.1192,-3.0558,-3.0865,-3.1173,-3.0558,-3.0404,-3.0404,-3.0404,-3.0404,-3.0404,-3.0404,-3.0404,-3.0404,-3.0404,-3.0923,-3.1545,-3.2141,-3.2429,-3.2795,-3.343,-3.3141,-3.3141,-3.3782,-3.3276,-3.316,-3.3801,-3.384,-3.4218,-3.5084,-3.5135,-3.5135,-3.5135,-3.5365,-3.4981,-3.3878,-3.409,-3.3667,-3.2564,-3.2564,-3.2454,-3.2278,-3.3339,-3.359,0.0,0.0,0.0,-2.1484,0.0,0.0,0.0,0.0,-1.7695,0.0,0.0,0.0,0.0,0.0,0.0,0.0,0.0,0.0,0.0,0.0,0.0,0.0,0.0,0.0,0.0,-2.0577,-2.05,0.0,-2.1793,-2.1827,-2.5115,-2.5308,-2.5308,-2.5308,-2.5308,-2.5308,-2.5308,-2.5327,-2.5788,-2.6659,-2.7519,-2.8241,-2.8848,-2.9439,-2.9579,-2.9372,-2.9112,-2.9005,-2.9005,-2.9005,-2.9156,-2.9392,-2.9392,-2.9625,-2.9969,-2.9763,-3.0,-3.0404,-3.0404,-3.0404,-3.0404,-3.0404,-3.0404,-3.0404,-3.0404,-3.0404,-3.0404,-3.0404,-3.0423,-3.0442,-3.0404,-3.0423,-3.0423,-3.0404,-3.0404,-3.0404,-3.0404,-3.0404,-3.0404,-3.0404,-3.0404,-3.0404,-3.0404,-3.0423,-3.0442,-3.0481,-3.1192,-3.1756,-3.1775,-3.2449,-3.291,-3.2949,-3.291,-3.291,-3.2949,-3.2949,-3.3314,-3.4186,-3.4244,-3.4244,-3.4244,-3.5045,-3.4692,-3.2987,-3.3782,-3.3391,-3.1737,-3.1737,-3.1331,-3.0625,-3.2193,-3.3246,0.0,0.0,-2.5156,-2.2832,0.0,0.0,0.0,0.0,0.0,0.0,0.0,0.0,0.0,0.0,0.0,0.0,0.0,0.0,0.0,0.0,0.0,0.0,0.0,0.0,0.0,0.0,0.0,0.0,-2.11,0.0,-2.5115,-2.5308,-2.5308,-2.5308,-2.5308,-2.5308,-2.5308,-2.5308,-2.6019,-2.7467,-2.7761,-2.8496,-2.9606,-2.9798,-2.9788,-2.9589,-2.9363,-2.9343,-2.9456,-2.9322,-2.9404,-2.9598,-2.9598,-2.9754,-2.9991,-2.9924,-3.0109,-3.0404,-3.0404,-3.0404,-3.0404,-3.0404,-3.0404,-3.0404,-3.0404,-3.0404,-3.0404,-3.0404,-3.0404,-3.0404,-3.0404,-3.0404,-3.0404,-3.0404,-3.0404,-3.0404,-3.0404,-3.0404,-3.0404,-3.0404,-3.0404,-3.0404,-3.0404,-3.0404,-3.0404,-3.0404,-3.0654,-3.1058,-3.1641,-3.1423,-3.1462,-3.2045,-3.1596,-3.1481,-3.2064,-3.2583,-3.3026,-3.3314,-3.3333,-3.3333,-3.3333,-3.3622,-3.3256,-3.2122,-3.2391,-3.1987,-3.0846,-3.0871,-3.0767,-3.0503,-3.1095,-3.1495,-2.5703,-2.5703,0.0,-2.3535,-2.2285,0.0,-1.8926,0.0,-1.9141,0.0,0.0,0.0,0.0,0.0,0.0,0.0,0.0,0.0,0.0,0.0,0.0,0.0,0.0,0.0,0.0,0.0,-1.8853,-2.1735,-2.0639,0.0,0.0,-2.5308,-2.5308,-2.5308,-2.5308,-2.5308,-2.5308,-2.5615,-2.6327,-2.7448,-2.8049,-2.88,-2.9684,-2.9901,-2.9931,-2.9788,-2.9598,-2.9579,-2.9687,-2.9551,-2.9635,-2.9804,-2.9804,-2.9931,-3.0136,-3.0047,-3.0163,-3.0404,-3.0404,-3.0404,-3.0404,-3.0404,-3.0404,-3.0404,-3.0404,-3.0404,-3.0404,-3.0404,-3.0404,-3.0404,-3.0404,-3.0404,-3.0404,-3.0404,-3.0404,-3.0404,-3.0404,-3.0404,-3.0404,-3.0404,-3.0404,-3.0404,-3.0404,-3.0404,-3.0404,-3.0404,-3.0404,-3.0596,-3.1173,-3.075,-3.0615,-3.1173,-3.0731,-3.0635,-3.1192,-3.1718,-3.2141,-3.2449,-3.2468,-3.2468,-3.2468,-3.2756,-3.2372,-3.125,-3.1545,-3.128,-3.0449,-3.0482,-3.0521,-3.0575,-3.0623,-3.0655]},{"header":{"parameterUnit":"m.s-1","parameterCategory":1,"la1":30.6,"la2":29.2853,"lo1":-89.7004,"lo2":-87.6739,"dy":0.0162,"dx":0.0183,"nx":112,"ny":82,"refTime":"2024-11-22T06:00:00:Z","depth":0,"parameterNumber":3,"parameterNumberName":"V-component_of_WINDS"},"data":[0.0,0.0,0.0,0.0,0.0,0.0,0.0,0.0,0.0,0.0,0.0,0.0,0.0,0.0,0.0,0.0,0.0,0.0,0.0,0.0,0.0,0.0,0.0,0.0,0.0,0.0,0.0,0.0,0.0,0.0,0.0,0.0,0.0,0.0,0.0,0.0,0.0,0.0,0.0,0.0,0.0,0.0,0.0,0.0,0.0,0.0,0.0,0.0,0.0,0.0,0.0,0.0,0.0,0.0,0.0,0.0,0.0,0.0,0.0,0.0,0.0,0.0,0.0,0.0,0.0,0.0,0.0,0.0,0.0,0.0,0.0,0.0,0.0,0.0,0.0,0.0,0.0,0.0,0.0,0.0,0.0,0.0,0.0,0.0,0.0,0.0,0.0,0.0,0.0,0.0,-0.4796,-0.513,-0.5413,-0.5613,-0.5755,-0.5322,-0.4914,-0.4515,0.0,0.0,0.0,0.0,0.0,0.0,0.0,0.0,0.0,0.0,0.0,0.0,0.0,0.0,0.0,0.0,0.0,0.0,0.0,0.0,0.0,0.0,0.0,0.0,0.0,0.0,0.0,0.0,0.0,0.0,0.0,0.0,0.0,0.0,0.0,0.0,0.0,0.0,0.0,0.0,0.0,0.0,0.0,0.0,0.0,0.0,0.0,0.0,0.0,0.0,0.0,0.0,0.0,0.0,0.0,0.0,0.0,0.0,0.0,0.0,0.0,0.0,0.0,0.0,0.0,0.0,0.0,0.0,0.0,0.0,0.0,0.0,0.0,0.0,0.0,0.0,0.0,0.0,0.0,0.0,0.0,0.0,0.0,0.0,0.0,0.0,0.0,0.0,0.0,0.0,0.0,0.0,0.0,0.0,0.0,0.0,0.0,0.0,0.0,0.0,0.0,0.0,0.0,0.0,-0.4788,-0.5447,-0.5481,-0.5491,-0.561,-0.5209,-0.4813,-0.4511,0.0,0.0,0.0,0.0,0.0,0.0,0.0,0.0,0.0,0.0,0.0,0.0,0.0,0.0,0.0,0.0,0.0,0.0,0.0,0.0,0.0,0.0,0.0,0.0,0.0,0.0,0.0,0.0,0.0,0.0,0.0,0.0,0.0,0.0,0.0,0.0,0.0,0.0,0.0,0.0,0.0,0.0,0.0,0.0,0.0,0.0,0.0,0.0,0.0,0.0,0.0,0.0,0.0,0.0,0.0,0.0,0.0,0.0,0.0,0.0,0.0,0.0,0.0,0.0,0.0,0.0,0.0,0.0,0.0,0.0,0.0,0.0,0.0,0.0,0.0,0.0,0.0,0.0,0.0,0.0,0.0,0.0,0.0,0.0,0.0,0.0,0.0,0.0,0.0,0.0,0.0,0.0,0.0,0.0,0.0,0.0,0.0,0.0,0.0,0.0,0.0,0.0,0.0,-0.4541,-0.4935,-0.5525,-0.5562,-0.5515,-0.5501,-0.5128,-0.4721,-0.4253,-0.3825,0.0,0.0,0.0,0.0,0.0,0.0,0.0,0.0,0.0,0.0,0.0,0.0,0.0,0.0,0.0,0.0,0.0,0.0,0.0,0.0,0.0,0.0,0.0,0.0,0.0,0.0,0.0,0.0,0.0,0.0,0.0,0.0,0.0,0.0,0.0,0.0,0.0,0.0,0.0,0.0,0.0,0.0,0.0,0.0,0.0,0.0,0.0,0.0,0.0,0.0,0.0,0.0,0.0,0.0,0.0,0.0,0.0,0.0,0.0,0.0,0.0,0.0,0.0,0.0,0.0,0.0,0.0,0.0,0.0,0.0,0.0,0.0,0.0,0.0,0.0,0.0,0.0,0.0,0.0,0.0,0.0,0.0,0.0,0.0,0.0,0.0,0.0,0.0,0.0,0.0,0.0,0.0,0.0,0.0,0.0,0.0,0.0,0.0,0.0,0.0,0.0,0.0,-0.4874,-0.5077,-0.5491,-0.5504,-0.5433,-0.5351,-0.4972,-0.452,-0.4028,-0.3522,0.0,0.0,0.0,0.0,0.0,0.0,0.0,0.0,0.0,0.0,0.0,0.0,0.0,0.0,0.0,0.0,0.0,0.0,0.0,0.0,0.0,0.0,0.0,0.0,0.0,0.0,0.0,0.0,0.0,0.0,0.0,0.0,0.0,0.0,0.0,0.0,0.0,0.0,0.0,0.0,0.0,0.0,0.0,0.0,0.0,0.0,0.0,0.0,0.0,0.0,0.0,0.0,0.0,0.0,0.0,0.0,0.0,0.0,0.0,0.0,0.0,0.0,0.0,0.0,0.0,0.0,0.0,0.0,0.0,0.0,0.0,0.0,0.0,0.0,0.0,0.0,0.0,0.0,0.0,0.0,0.0,0.0,0.0,0.0,0.0,0.0,0.0,0.0,0.0,0.0,0.0,0.0,0.0,0.0,0.0,0.0,0.0,0.0,0.0,0.0,0.0,0.0,-0.4745,-0.5036,-0.5378,-0.525,-0.5127,-0.5117,-0.4594,-0.419,-0.4008,-0.3208,0.0,0.0,0.0,0.0,0.0,0.0,0.0,0.0,0.0,0.0,0.0,0.0,0.0,0.0,0.0,0.0,0.0,0.0,0.0,0.0,0.0,0.0,0.0,0.0,0.0,0.0,0.0,0.0,0.0,0.0,0.0,0.0,0.0,0.0,0.0,0.0,0.0,0.0,0.0,0.0,0.0,0.0,0.0,0.0,0.0,0.0,0.0,0.0,0.0,0.0,0.0,0.0,0.0,0.0,0.0,0.0,0.0,0.0,0.0,0.0,0.0,0.0,0.0,0.0,0.0,0.0,0.0,0.0,0.0,0.0,0.0,0.0,0.0,0.0,0.0,0.0,0.0,0.0,0.0,0.0,0.0,0.0,0.0,0.0,0.0,0.0,0.0,0.0,0.0,0.0,0.0,0.0,0.0,0.0,0.0,0.0,0.0,0.0,0.0,0.0,0.0,0.0,-0.4646,-0.4891,0.0,-0.5133,-0.5026,-0.487,-0.465,-0.43,-0.3778,0.0,0.0,0.0,0.0,0.0,0.0,0.0,0.0,0.0,0.0,0.0,0.0,0.0,0.0,0.0,0.0,0.0,0.0,0.0,0.0,0.0,0.0,0.0,0.0,0.0,0.0,0.0,0.0,0.0,0.0,0.0,0.0,0.0,0.0,0.0,0.0,0.0,0.0,0.0,0.0,0.0,0.0,0.0,0.0,0.0,0.0,0.0,0.0,0.0,0.0,0.0,0.0,0.0,0.0,0.0,0.0,0.0,0.0,0.0,0.0,0.0,0.0,0.0,0.0,0.0,0.0,0.0,0.0,0.0,0.0,0.0,0.0,0.0,0.0,0.0,0.0,0.0,0.0,0.0,0.0,0.0,0.0,0.0,0.0,0.0,0.0,0.0,0.0,0.0,0.0,0.0,0.0,0.0,0.0,0.0,0.0,0.0,0.0,0.0,0.0,0.0,0.0,-0.4337,-0.4568,-0.4785,0.0,-0.4988,-0.4908,-0.4707,-0.4518,-0.4174,-0.3566,0.0,0.0,0.0,0.0,0.0,0.0,0.0,0.0,0.0,0.0,0.0,0.0,0.0,0.0,0.0,0.0,0.0,0.0,0.0,0.0,0.0,0.0,0.0,0.0,0.0,0.0,0.0,0.0,0.0,0.0,0.0,0.0,0.0,0.0,0.0,0.0,0.0,0.0,0.0,0.0,0.0,0.0,0.0,0.0,0.0,0.0,0.0,0.0,0.0,0.0,0.0,0.0,0.0,0.0,0.0,0.0,0.0,0.0,0.0,0.0,0.0,0.0,0.0,0.0,0.0,0.0,0.0,0.0,0.0,0.0,0.0,0.0,0.0,0.0,0.0,0.0,0.0,0.0,0.0,0.0,0.0,0.0,0.0,0.0,0.0,0.0,0.0,0.0,0.0,0.0,0.0,0.0,0.0,0.0,0.0,0.0,0.0,0.0,0.0,0.0,0.0,0.0,-0.4137,-0.4507,-0.4748,-0.487,-0.4779,-0.4691,-0.4687,-0.4141,-0.3692,0.0,0.0,0.0,0.0,0.0,0.0,0.0,0.0,0.0,0.0,0.0,0.0,0.0,0.0,0.0,0.0,0.0,0.0,0.0,0.0,0.0,0.0,0.0,0.0,0.0,0.0,0.0,0.0,0.0,0.0,0.0,0.0,0.0,0.0,0.0,0.0,0.0,0.0,0.0,0.0,0.0,0.0,0.0,0.0,0.0,0.0,0.0,0.0,0.0,0.0,0.0,0.0,0.0,0.0,0.0,0.0,0.0,0.0,0.0,0.0,0.0,0.0,0.0,0.0,0.0,0.0,0.0,0.0,0.0,0.0,0.0,0.0,0.0,0.0,0.0,0.0,0.0,0.0,0.0,0.0,0.0,0.0,0.0,0.0,0.0,0.0,0.0,0.0,0.0,0.0,0.0,0.0,0.0,0.0,0.0,0.0,0.0,0.0,0.0,0.0,0.0,0.0,0.0,-0.4137,-0.4507,-0.4707,-0.4755,-0.4718,-0.4675,-0.4566,-0.4273,-0.3869,-0.336,0.0,0.0,0.0,0.0,0.0,0.0,0.0,0.0,0.0,0.0,0.0,0.0,0.0,0.0,0.0,0.0,0.0,0.0,0.0,0.0,0.0,0.0,0.0,0.0,0.0,0.0,0.0,0.0,0.0,0.0,0.0,0.0,0.0,0.0,0.0,0.0,0.0,0.0,0.0,0.0,0.0,0.0,0.0,0.0,0.0,0.0,0.0,0.0,0.0,0.0,0.0,0.0,0.0,0.0,0.0,0.0,0.0,0.0,0.0,0.0,0.0,0.0,0.0,0.0,0.0,0.0,0.0,0.0,0.0,0.0,0.0,0.0,0.0,0.0,0.0,0.0,0.0,0.0,0.0,0.0,0.0,0.0,0.0,0.0,0.0,0.0,0.0,0.0,0.0,0.0,0.0,0.0,0.0,0.0,0.0,0.0,0.0,0.0,0.0,0.0,0.0,0.0,-0.4072,-0.4416,-0.4627,-0.4627,-0.4627,-0.459,-0.4498,-0.4304,-0.3942,-0.3346,0.0,0.0,0.0,0.0,0.0,0.0,0.0,0.0,0.0,0.0,0.0,0.0,0.0,0.0,0.0,0.0,0.0,0.0,0.0,0.0,0.0,0.0,0.0,0.0,0.0,0.0,0.0,0.0,0.0,0.0,0.0,0.0,0.0,0.0,0.0,0.0,0.0,0.0,0.0,0.0,0.0,0.0,0.0,0.0,0.0,0.0,0.0,0.0,0.0,0.0,0.0,0.0,0.0,0.0,0.0,0.0,0.0,0.0,0.0,0.0,0.0,0.0,0.0,0.0,0.0,0.0,0.0,0.0,0.0,0.0,0.0,0.0,0.0,0.0,0.0,0.0,0.0,0.0,0.0,0.0,0.0,0.0,0.0,0.0,0.0,0.0,0.0,0.0,0.0,0.0,0.0,0.0,0.0,0.0,0.0,0.0,0.0,0.0,0.0,0.0,0.0,0.0,-0.394,-0.4303,-0.4491,-0.4491,-0.4491,-0.4491,-0.4491,-0.4304,-0.3949,-0.3366,0.0,0.0,0.0,0.0,0.0,0.0,0.0,0.0,0.0,0.0,0.0,0.0,0.0,0.0,0.0,0.0,0.0,0.0,0.0,0.0,0.0,0.0,0.0,0.0,0.0,0.0,0.0,0.0,0.0,0.0,0.0,0.0,0.0,0.0,0.0,0.0,0.0,0.0,0.0,0.0,0.0,0.0,0.0,0.0,0.0,0.0,0.0,0.0,0.0,0.0,0.0,0.0,0.0,0.0,0.0,0.0,0.0,0.0,0.0,0.0,0.0,-0.0334,0.0,0.0,0.0,0.0,0.0,0.0,0.0,0.0,0.0,0.0,0.0,0.0,0.0,0.0,0.0,0.0,0.0,0.0,0.0,0.0,0.0,0.0,0.0,0.0,0.0,0.0,0.0,0.0,0.0,0.0,0.0,0.0,0.0,0.0,0.0,0.0,0.0,0.0,0.0,0.0,-0.3954,-0.4303,-0.4491,-0.4491,-0.4491,-0.4491,-0.4491,-0.4304,-0.4018,-0.3561,-0.3246,0.0,0.0,0.0,0.0,0.0,0.0,0.0,0.0,0.0,0.0,0.0,0.0,0.0,0.0,0.0,0.0,0.0,0.0,0.0,0.0,0.0,0.0,0.0,0.0,0.0,0.0,0.0,0.0,0.0,0.0,0.0,0.0,0.0,0.0,0.0,0.0,0.0,0.0,0.0,0.0,0.0,0.0,0.0,0.0,0.0,0.0,0.0,0.0,0.0,0.0,0.0,0.0,0.0,0.0,0.0,0.0,0.0,0.0,0.0,0.0,-0.0203,0.0,0.0,0.0,0.0,0.0,0.0,0.0,0.0,0.0,0.0,0.0,0.0,0.0,0.0,0.0,0.0,0.0,0.0,0.0,0.0,0.0,0.0,0.0,0.0,0.0,0.0,0.0,0.0,0.0,0.0,0.0,0.0,0.0,0.0,0.0,0.0,0.0,0.0,0.0,0.0,-0.3947,-0.4303,-0.4491,-0.4491,-0.4491,-0.4491,-0.4491,-0.4395,-0.4192,-0.3816,-0.351,0.0,0.0,0.0,0.0,0.0,0.0,0.0,0.0,0.0,0.0,0.0,0.0,0.0,0.0,0.0,0.0,0.0,0.0,0.0,0.0,0.0,0.0,0.0,0.0,0.0,0.0,0.0,0.0,0.0,0.0,0.0,0.0,0.0,0.0,0.0,0.0,0.0,0.0,0.0,0.0,0.0,0.0,0.0,0.0,0.0,0.0,0.0,0.0,0.0,0.0,0.0,0.0,0.0,0.0,0.0,0.0,0.0,0.0,0.0,0.0,-0.0067,-0.0228,-0.0828,0.0,0.0,0.0,0.0,0.0,0.0,0.0,0.0,0.0,0.0,0.0,0.0,0.0,0.0,0.0,0.0,0.0,0.0,0.0,0.0,0.0,0.0,0.0,0.0,-0.4227,-0.4196,-0.3853,0.0,0.0,0.0,0.0,0.0,0.0,0.0,0.0,0.0,0.0,0.0,-0.3981,-0.4297,-0.4491,-0.4491,-0.4491,-0.4491,-0.4491,-0.4491,-0.4375,-0.4051,-0.3805,-0.3531,0.0,0.0,0.0,0.0,0.0,0.0,0.0,0.0,0.0,0.0,0.0,0.0,0.0,0.0,0.0,0.0,0.0,0.0,0.0,0.0,0.0,0.0,0.0,0.0,0.0,0.0,0.0,0.0,0.0,0.0,0.0,0.0,0.0,0.0,0.0,0.0,0.0,0.0,0.0,0.0,0.0,0.0,0.0,0.0,0.0,0.0,0.0,0.0,0.0,0.0,0.0,0.0,0.0,0.0,0.0,0.0,0.0,0.0,0.0,0.0,-0.0966,-0.0946,0.0,0.0,0.0,0.0,0.0,0.0,0.0,0.0,0.0,0.0,0.0,0.0,0.0,0.0,0.0,0.0,0.0,0.0,0.0,0.0,0.0,0.0,-0.4796,-0.4776,-0.4714,-0.4616,0.0,-0.4019,-0.3497,-0.3283,-0.3148,0.0,0.0,0.0,0.0,0.0,0.0,0.0,-0.4123,-0.4362,-0.4491,-0.4491,-0.4491,-0.4491,-0.4491,-0.4491,-0.4419,-0.4177,-0.4031,-0.3883,-0.371,-0.329,0.0,0.0,0.0,0.0,0.0,0.0,0.0,0.0,0.0,0.0,0.0,0.0,0.0,0.0,0.0,0.0,0.0,0.0,0.0,0.0,0.0,0.0,0.0,0.0,0.0,0.0,0.0,0.0,0.0,0.0,0.0,0.0,0.0,0.0,0.0,0.0,0.0,0.0,0.0,0.0,0.0,0.0,0.0,0.0,0.0,0.0,0.0,0.0,0.0,0.0,0.0,0.0,0.0,0.0,0.0,0.0,0.0,-0.0167,-0.0514,-0.0877,-0.1355,-0.1893,0.0,0.0,0.0,0.0,-0.3302,-0.3863,-0.3939,-0.4342,-0.4745,-0.4558,0.0,0.0,0.0,0.0,0.0,0.0,0.0,0.0,0.0,0.0,-0.4965,-0.483,-0.4806,-0.4772,-0.4627,-0.4334,-0.403,0.0,-0.365,-0.3475,-0.3077,0.0,0.0,0.0,0.0,-0.3974,-0.4167,-0.4372,-0.4491,-0.4491,-0.4491,-0.4491,-0.4491,-0.4491,-0.4464,-0.4372,-0.4203,-0.4092,-0.4028,-0.3615,-0.331,0.0,0.0,0.0,0.0,0.0,0.0,0.0,0.0,0.0,0.0,0.0,0.0,0.0,0.0,0.0,0.0,0.0,0.0,0.0,0.0,0.0,0.0,0.0,0.0,0.0,0.0,0.0,0.0,0.0,0.0,0.0,0.0,0.0,0.0,0.0,0.0,0.0,0.0,0.0,0.0,0.0,0.0,0.0,0.0,0.0,0.0,0.0,0.0,0.0,0.0,0.0,0.0,0.0,-0.0184,-0.0448,-0.0133,-0.0175,-0.0475,-0.0718,-0.0888,-0.1003,-0.1545,-0.1988,-0.2324,-0.2428,-0.3151,-0.4125,-0.4234,-0.477,-0.5399,-0.503,-0.4795,-0.4545,-0.4182,0.0,0.0,0.0,0.0,-0.4802,-0.4802,-0.4996,-0.5125,-0.4863,-0.4863,-0.4847,-0.4607,-0.4518,-0.4423,0.0,-0.4078,-0.391,-0.3465,0.0,0.0,0.0,0.0,-0.4105,-0.4257,-0.4395,-0.4491,-0.4491,-0.4491,-0.4491,-0.4491,-0.4491,-0.4491,-0.4491,-0.4362,-0.4277,-0.4277,-0.3948,-0.3682,-0.3509,0.0,0.0,0.0,0.0,0.0,0.0,0.0,0.0,0.0,0.0,0.0,0.0,0.0,0.0,0.0,0.0,0.0,0.0,0.0,0.0,0.0,0.0,0.0,0.0,0.0,0.0,0.0,0.0,0.0,0.0,0.0,0.0,0.0,0.0,0.0,0.0,0.0,0.0,0.0,0.0,0.0,0.0,0.0,0.0,0.0,0.0,0.0,0.0,0.0,0.0,0.0,0.0,-0.0605,-0.1656,-0.0493,-0.0664,-0.1641,-0.0496,-0.0472,-0.1086,-0.1132,-0.22,-0.369,-0.3701,-0.4481,-0.549,-0.5503,-0.5545,-0.5576,-0.5552,-0.525,-0.4864,-0.484,-0.4765,0.0,0.0,-0.4874,-0.5076,-0.5076,-0.523,-0.5341,-0.5113,-0.4978,-0.4874,-0.4714,-0.4593,-0.4487,0.0,-0.4331,-0.4174,-0.4143,0.0,-0.4018,-0.413,-0.417,-0.4264,-0.446,-0.4484,-0.4491,-0.4491,-0.4491,-0.4491,-0.4491,-0.4491,-0.4491,-0.4491,-0.4484,-0.4481,-0.4481,-0.4271,-0.4048,-0.3775,-0.332,0.0,0.0,0.0,0.0,0.0,0.0,0.0,0.0,0.0,0.0,0.0,0.0,0.0,0.0,0.0,0.0,0.0,0.0,0.0,0.0,0.0,0.0,0.0,0.0,0.0,0.0,0.0,0.0,0.0,0.0,0.0,0.0,0.0,0.0,0.0,0.0,0.0,0.0,0.0,0.0,0.0,0.0,0.0,0.0,0.0,0.0,0.0,-0.0852,-0.0842,-0.0048,-0.0907,-0.1454,-0.1734,-0.0542,-0.1116,-0.2867,-0.1654,-0.0837,-0.0396,-0.0393,-0.1213,-0.2395,-0.2398,-0.3507,-0.5025,-0.4913,-0.5319,-0.5827,-0.5573,-0.5267,-0.5009,-0.4918,-0.4914,-0.4941,-0.4941,-0.5121,-0.5281,-0.5281,-0.5354,-0.5334,-0.5053,-0.4924,-0.485,-0.4627,-0.4528,-0.4491,-0.4491,-0.445,-0.4358,-0.421,-0.428,-0.429,-0.42,-0.4301,-0.4433,-0.4484,-0.4491,-0.4653,-0.5109,-0.4759,-0.468,-0.5109,-0.4759,-0.445,-0.4304,-0.4297,-0.428,-0.4182,-0.4033,-0.39,-0.3792,-0.333,-0.2947,0.0,0.0,0.0,0.0,0.0,0.0,0.0,0.0,0.0,0.0,0.0,0.0,0.0,0.0,0.0,0.0,0.0,0.0,0.0,0.0,0.0,0.0,0.0,0.0,0.0,0.0,0.0,0.0,0.0,0.0,0.0,0.0,0.0,0.0,0.0,0.0,0.0,0.0,0.0,0.0,0.0,0.0,0.0,0.0,-0.0202,-0.0706,-0.1561,-0.1795,-0.1371,-0.2207,-0.2774,-0.2994,-0.1763,-0.237,-0.4105,-0.2904,-0.1955,-0.1204,-0.1154,-0.1764,-0.2709,-0.2652,-0.3752,-0.5226,-0.5147,-0.5501,-0.5936,-0.5623,-0.541,-0.5257,-0.5111,-0.5135,-0.5209,-0.5209,-0.5281,-0.5395,-0.5395,-0.5395,-0.532,-0.4989,-0.4887,-0.4833,-0.4556,-0.4491,-0.4491,-0.4491,-0.4491,-0.446,-0.4338,-0.4399,-0.4457,-0.4308,-0.4402,-0.4491,-0.4491,-0.4491,-0.468,-0.5113,-0.4976,-0.503,-0.546,-0.5244,-0.495,-0.4664,-0.451,-0.4327,-0.4075,-0.4143,-0.4056,-0.3815,-0.3381,-0.3114,-0.3,0.0,0.0,0.0,0.0,0.0,0.0,0.0,0.0,0.0,0.0,0.0,0.0,0.0,0.0,0.0,0.0,0.0,0.0,0.0,0.0,0.0,0.0,0.0,0.0,0.0,0.0,0.0,0.0,0.0,0.0,0.0,0.0,0.0,0.0,0.0,0.0,0.0,0.0,0.0,0.0,0.0,0.0,-0.0051,-0.0706,-0.2013,-0.2063,-0.279,-0.4009,-0.388,-0.451,-0.5527,-0.4189,-0.4285,-0.5359,-0.415,-0.3663,-0.3676,-0.3426,-0.3967,-0.4886,-0.4773,-0.5395,-0.63,-0.63,-0.6159,-0.5969,-0.5857,-0.5708,-0.5562,-0.5446,-0.5399,-0.5395,-0.5395,-0.5395,-0.5395,-0.5395,-0.5395,-0.532,-0.4989,-0.4887,-0.4833,-0.4556,-0.4491,-0.4491,-0.4491,-0.4491,-0.4491,-0.4491,-0.4491,-0.4491,-0.4491,-0.4491,0.0,-0.4491,-0.4491,-0.4519,-0.4574,-0.5136,-0.5515,-0.5569,-0.5953,-0.602,-0.554,-0.5144,-0.4735,-0.4278,-0.4667,-0.4549,-0.3825,-0.3485,-0.3405,-0.3617,0.0,0.0,0.0,0.0,0.0,0.0,0.0,0.0,0.0,0.0,0.0,0.0,0.0,0.0,0.0,0.0,0.0,0.0,0.0,0.0,0.0,0.0,0.0,0.0,0.0,0.0,0.0,0.0,0.0,0.0,0.0,0.0,0.0,0.0,0.0,0.0,0.0,0.0,0.0,0.0,0.0,0.0,-0.0958,-0.1611,-0.2013,-0.3969,-0.4608,-0.4033,-0.4864,-0.5388,-0.5538,-0.4168,-0.4774,-0.6561,-0.5401,-0.5383,-0.5961,-0.4196,-0.4066,-0.4894,-0.4863,-0.5474,-0.63,-0.63,-0.6159,-0.5986,-0.5942,-0.5796,-0.5583,-0.5542,-0.5484,-0.5395,-0.5395,-0.5395,-0.5395,-0.5395,-0.5395,-0.532,-0.4989,-0.4887,-0.4833,-0.4556,-0.4491,-0.4491,-0.4491,-0.4491,-0.4491,-0.4491,-0.4491,-0.4491,-0.4491,-0.4491,0.0,-0.4491,-0.4491,-0.4901,-0.5905,-0.5706,-0.5923,-0.7015,-0.6716,-0.6304,-0.5895,-0.575,-0.5567,-0.53,-0.4942,-0.4506,-0.3955,-0.3666,-0.3641,0.0,0.0,0.0,0.0,0.0,0.0,0.0,0.0,0.0,0.0,0.0,0.0,0.0,0.0,0.0,0.0,0.0,0.0,0.0,0.0,0.0,0.0,0.0,0.0,0.0,0.0,0.0,0.0,0.0,0.0,0.0,0.0,0.0,0.0,0.0,0.0,0.0,0.0,0.0,0.0,-0.0555,-0.0555,0.0,-0.1862,-0.2815,-0.2864,-0.4972,-0.5877,-0.5712,-0.6277,-0.6499,-0.6388,-0.545,-0.5844,-0.7051,-0.6381,-0.6517,0.0,0.0,0.0,0.0,0.0,-0.5819,-0.63,-0.63,-0.6242,-0.6115,-0.6013,-0.5878,-0.5752,-0.5627,-0.5562,-0.5477,-0.5412,-0.5395,-0.5395,-0.5395,-0.5395,-0.5334,-0.5064,-0.4931,-0.4853,-0.4638,-0.4535,-0.457,-0.4869,-0.4921,0.0,-0.5336,-0.5117,-0.5034,-0.5336,-0.5391,-0.5391,-0.5391,-0.5391,-0.5691,-0.6507,-0.6231,-0.6443,-0.761,-0.72,0.0,0.0,0.0,-0.64,-0.6299,-0.566,0.0,0.0,0.0,0.0,0.0,0.0,0.0,0.0,-0.4555,-0.5147,0.0,0.0,0.0,0.0,0.0,0.0,0.0,0.0,0.0,0.0,0.0,0.0,0.0,0.0,0.0,0.0,0.0,0.0,0.0,0.0,0.0,0.0,0.0,0.0,0.0,0.0,0.0,0.0,0.0,0.0,0.0,0.0,0.0,0.0,0.0,-0.1511,-0.0454,-0.2966,-0.4218,-0.4268,-0.5575,-0.6833,-0.7978,-0.7733,-0.76,-0.7584,-0.723,-0.7095,-0.7095,-0.7095,-0.7095,-0.7082,-0.6923,-0.682,-0.6664,-0.6409,-0.63,-0.63,-0.63,0.0,0.0,-0.6101,-0.6006,-0.5939,-0.5698,-0.5603,-0.5559,-0.544,-0.5395,-0.5395,-0.5395,-0.5395,-0.5354,-0.5137,-0.5002,-0.4897,-0.4728,-0.4667,-0.4809,-0.5382,-0.5569,-0.5869,-0.6583,-0.6118,-0.5846,-0.6507,-0.6588,-0.6588,-0.6588,-0.6588,-0.6642,-0.6723,0.0,0.0,-0.775,-0.7596,-0.7548,-0.7776,-0.7454,-0.7212,-0.7116,-0.6648,-0.6586,-0.7036,-0.6623,-0.6106,-0.544,-0.6226,-0.6312,-0.5738,-0.5662,-0.6438,0.0,0.0,0.0,0.0,0.0,0.0,0.0,0.0,0.0,0.0,0.0,0.0,0.0,0.0,0.0,0.0,0.0,0.0,0.0,0.0,0.0,0.0,0.0,0.0,0.0,0.0,0.0,0.0,0.0,0.0,0.0,0.0,-0.0504,-0.1561,-0.1862,-0.2413,-0.3215,-0.482,-0.5627,-0.5627,0.0,0.0,-0.7978,-0.7733,-0.76,-0.7584,-0.723,-0.7095,-0.7095,-0.7095,-0.7095,-0.7068,-0.6848,-0.6725,-0.6664,-0.6409,-0.63,-0.63,-0.63,-0.63,-0.6293,-0.6265,-0.6132,-0.5959,-0.5817,-0.5681,0.0,-0.544,-0.5395,-0.5395,-0.5395,-0.5395,-0.5354,-0.5137,-0.5076,-0.4985,-0.4748,-0.5149,-0.5535,-0.5517,-0.5982,-0.661,-0.7369,-0.688,-0.6448,-0.6588,-0.6588,-0.6588,-0.6588,-0.6588,-0.6831,-0.7429,-0.7482,-0.7777,-0.854,-0.8541,-0.8436,-0.8286,-0.82,-0.7878,-0.729,-0.7361,-0.7177,-0.6701,-0.661,-0.6496,-0.6335,-0.6514,-0.6831,-0.7251,-0.6655,-0.6882,0.0,0.0,0.0,0.0,0.0,0.0,0.0,0.0,0.0,0.0,0.0,0.0,0.0,0.0,0.0,0.0,0.0,0.0,0.0,0.0,0.0,0.0,0.0,0.0,0.0,0.0,0.0,0.0,0.0,0.0,0.0,0.0,-0.0303,-0.0958,-0.2314,-0.3015,-0.3015,-0.5675,-0.6681,-0.6029,-0.7335,-0.7988,-0.7982,-0.7807,-0.7665,-0.7587,-0.7356,-0.721,-0.7095,-0.7095,-0.7095,-0.7075,-0.6898,-0.6766,-0.6664,-0.6409,-0.63,-0.63,-0.63,-0.63,-0.63,-0.63,-0.6156,-0.5963,-0.5847,-0.5701,-0.5559,-0.544,-0.5395,-0.5395,-0.5395,-0.5395,-0.5474,-0.5805,-0.5815,-0.5814,-0.5969,-0.624,-0.6478,-0.6591,-0.6907,-0.7375,-0.8129,-0.7937,-0.7696,-0.7696,-0.7696,-0.7696,-0.7696,-0.7696,-0.783,-0.8209,-0.791,-0.7996,-0.8725,-0.8804,-0.8744,-0.8604,-0.8591,-0.8436,-0.8061,-0.8167,-0.8076,-0.7696,-0.7696,-0.7509,-0.7155,-0.7536,-0.7788,-0.7944,-0.7917,-0.8109,0.0,0.0,0.0,0.0,0.0,0.0,0.0,0.0,0.0,0.0,0.0,0.0,0.0,0.0,0.0,0.0,0.0,0.0,0.0,0.0,0.0,0.0,0.0,0.0,0.0,0.0,0.0,0.0,0.0,0.0,0.0,0.0,-0.0101,-0.0404,-0.2715,-0.3616,-0.2766,-0.6226,-0.7434,-0.6381,-0.7484,-0.7988,-0.7985,-0.7882,-0.775,-0.7631,-0.7451,-0.7285,-0.7095,-0.7095,-0.7095,-0.7078,-0.691,-0.681,-0.6668,-0.6439,-0.6323,-0.63,-0.63,-0.63,-0.63,-0.63,-0.6176,-0.604,-0.5857,-0.5722,-0.5593,-0.5446,-0.5395,-0.5395,-0.5395,-0.5395,-0.562,-0.6494,-0.6572,-0.6625,-0.717,-0.7333,-0.7408,-0.7647,-0.7803,-0.8103,-0.8699,-0.8804,-0.8804,-0.8804,-0.8804,-0.8804,-0.8804,-0.8804,-0.8804,-0.8804,-0.8268,-0.8156,-0.8752,-0.8804,-0.8804,-0.8804,-0.8804,-0.8804,-0.8804,-0.8804,-0.8804,-0.8804,-0.8804,-0.8539,-0.7988,-0.8591,-0.874,-0.8498,-0.9097,-0.9351,-0.0203,0.0,0.0,0.0,0.0,0.0,0.0,0.0,0.0,0.0,0.0,0.0,0.0,0.0,0.0,0.0,0.0,0.0,0.0,0.0,0.0,0.0,0.0,0.0,0.0,0.0,0.0,0.0,0.0,0.0,0.0,0.0,-0.0555,-0.1762,-0.3215,-0.4518,-0.5527,-0.7185,-0.7939,-0.7786,-0.7939,-0.7988,-0.7985,-0.7882,-0.7801,-0.7773,-0.7492,-0.7285,-0.7095,-0.7095,-0.7095,-0.7068,-0.6834,-0.6715,-0.6678,-0.6552,-0.6409,-0.63,-0.63,-0.63,-0.63,-0.63,-0.6286,-0.6218,-0.5891,-0.5789,-0.5722,-0.5474,-0.5395,-0.5395,-0.5395,-0.5395,-0.562,-0.6494,-0.667,-0.6784,-0.72,-0.78,-0.8149,-0.7763,-0.8235,-0.8699,-0.8778,-0.8804,-0.8804,-0.8804,-0.8804,-0.8804,-0.8804,-0.8804,-0.8804,-0.8804,-0.8725,-0.8699,-0.8778,-0.8804,-0.8804,-0.8804,-0.8804,-0.8804,-0.8804,-0.8804,-0.8804,-0.8804,-0.8804,-0.8878,-0.902,-0.9109,-0.9289,-0.9553,-0.984,-0.988,-0.0212,0.0,0.0,0.0,0.0,0.0,0.0,0.0,0.0,0.0,0.0,0.0,0.0,0.0,0.0,0.0,0.0,0.0,0.0,0.0,0.0,0.0,0.0,0.0,0.0,0.0,0.0,0.0,0.0,0.0,0.0,0.0,-0.0252,-0.0807,-0.2113,-0.3466,-0.482,-0.6176,-0.7235,-0.7988,-0.7988,-0.7988,-0.7988,-0.7924,-0.7848,-0.7675,-0.7461,-0.7285,-0.7095,-0.7095,-0.7095,-0.7085,-0.696,-0.6851,-0.6671,-0.6477,-0.6351,-0.63,-0.63,-0.63,-0.63,-0.63,-0.6238,-0.6084,-0.5867,-0.5742,-0.5633,-0.5453,-0.5395,-0.5395,-0.5395,-0.5395,-0.5752,-0.7116,-0.747,-0.7676,-0.8503,-0.8932,-0.9007,-0.8456,-0.8593,-0.8804,-0.8804,-0.8804,-0.8804,-0.8804,-0.8804,-0.8804,-0.8804,-0.8804,-0.8804,-0.8804,-0.8804,-0.8804,-0.8804,-0.8804,-0.8804,-0.8804,-0.8804,-0.8804,-0.8804,-0.8804,-0.8804,-0.8804,-0.8804,-0.8924,-0.9211,-0.9211,-0.9451,-0.994,-1.006,-1.014,-0.0186,0.0,0.0,0.0,0.0,0.0,0.0,0.0,0.0,0.0,0.0,0.0,0.0,0.0,0.0,0.0,0.0,0.0,0.0,0.0,0.0,0.0,0.0,0.0,0.0,0.0,0.0,0.0,0.0,0.0,0.0,0.0,0.0,0.0,-0.1661,-0.3015,-0.4016,-0.5675,-0.7033,-0.7988,-0.7988,-0.7988,-0.7988,-0.7944,-0.7838,-0.759,-0.7438,-0.7285,-0.7095,-0.7095,-0.7095,-0.7092,-0.7055,-0.6883,-0.6668,-0.6453,-0.6334,-0.63,-0.63,-0.63,-0.63,-0.63,-0.6183,-0.6064,-0.5911,-0.5762,-0.5616,-0.5501,-0.5429,-0.5395,-0.5395,-0.5591,-0.6141,-0.7637,-0.8188,-0.8626,-0.9609,-0.98,-0.9653,-0.9145,-0.9051,-0.9051,-0.9051,-0.8985,-0.8898,-0.8898,-0.8858,-0.8804,-0.8804,-0.8804,-0.8804,-0.8804,-0.8804,-0.8804,-0.8804,-0.8804,-0.8804,-0.8804,-0.8804,-0.8804,-0.8804,-0.8804,-0.8844,-0.8898,-0.8898,-0.9084,-0.9451,-0.9451,-0.971,-1.0241,-1.0241,-1.0385,0.0,0.0,0.0,0.0,0.0,0.0,0.0,0.0,0.0,0.0,0.0,0.0,0.0,0.0,0.0,0.0,0.0,0.0,0.0,0.0,0.0,0.0,0.0,0.0,0.0,0.0,0.0,0.0,0.0,0.0,0.0,0.0,0.0,0.0,-0.2564,-0.3966,-0.4016,-0.6625,-0.7939,-0.7988,-0.7988,-0.7988,-0.7985,-0.7885,-0.774,-0.759,-0.7438,-0.7285,-0.7095,-0.7095,-0.7095,-0.7082,-0.6947,-0.6841,-0.6681,-0.6562,-0.6419,-0.63,-0.63,-0.63,-0.63,-0.63,-0.6296,-0.6265,-0.6067,-0.5915,-0.5766,-0.5623,-0.5511,-0.5395,-0.5395,-0.6042,-0.6883,-0.78,-0.8646,-0.942,-0.9984,-1.01,-1.0013,-0.9713,-0.9688,-0.9688,-0.9688,-0.9391,-0.9198,-0.9198,-0.8958,-0.8804,-0.8804,-0.8804,-0.8804,-0.8804,-0.8804,-0.8804,-0.8804,-0.8804,-0.8804,-0.8804,-0.8804,-0.8804,-0.8804,-0.8804,-0.8911,-0.9191,-0.9198,-0.9484,-1.0057,-1.0057,-1.0247,-1.0579,-1.0579,-1.0586,0.0,0.0,0.0,0.0,0.0,0.0,0.0,0.0,0.0,0.0,0.0,0.0,0.0,0.0,0.0,0.0,0.0,0.0,0.0,0.0,0.0,0.0,0.0,0.0,0.0,0.0,0.0,0.0,0.0,0.0,0.0,-0.0857,-0.0907,-0.0051,-0.2614,-0.4016,-0.4016,-0.5774,-0.7135,-0.7988,-0.7988,-0.7988,-0.7985,-0.7882,-0.7733,-0.759,-0.7438,-0.7285,-0.7095,-0.7095,-0.7095,-0.7092,-0.7045,-0.6876,-0.6695,-0.6644,-0.6511,-0.63,-0.63,-0.63,-0.63,-0.63,-0.63,-0.6252,-0.5956,-0.584,-0.5749,-0.5542,-0.5436,-0.5395,-0.5395,-0.6042,-0.6915,-0.78,-0.8683,-0.9458,-0.9991,-1.0083,-1.0027,-0.974,-0.9715,-0.9715,-0.9715,-0.9599,-0.9466,-0.9244,-0.8964,-0.8804,-0.8804,-0.8804,-0.8804,-0.8804,-0.8804,-0.8804,-0.8804,-0.8804,-0.8804,-0.8804,-0.8804,-0.8804,-0.8804,-0.8804,-0.8918,-0.9204,-0.9211,-0.9497,-1.0083,-1.0083,-1.0267,-1.0593,-1.0593,-1.0593,0.0,0.0,0.0,0.0,0.0,0.0,0.0,0.0,0.0,0.0,0.0,0.0,0.0,0.0,0.0,0.0,0.0,0.0,0.0,0.0,0.0,0.0,0.0,-0.0187,0.0,0.0,0.0,-0.0734,-0.0691,-0.0946,-0.1409,-0.1812,-0.1812,-0.1461,-0.3115,-0.4218,-0.4718,-0.6027,-0.7135,-0.7988,-0.7988,-0.7988,-0.7982,-0.7828,-0.7685,-0.7587,-0.738,-0.7231,-0.7095,-0.7095,-0.7065,-0.7021,-0.7021,-0.6881,-0.662,-0.662,-0.6508,-0.63,-0.63,-0.63,-0.63,-0.63,-0.63,-0.6262,-0.6027,-0.5888,-0.5762,-0.5607,-0.5477,-0.5395,-0.5395,-0.6272,-0.7307,-0.7864,-0.8903,-0.9869,-1.019,-1.0274,-1.0221,-1.0064,-1.003,-1.003,-1.003,-0.9907,-0.9699,-0.9271,-0.9051,-0.8898,-0.8824,-0.8804,-0.8804,-0.8804,-0.8804,-0.8804,-0.8804,-0.8898,-0.8938,-0.8938,-0.9065,-0.9118,-0.9118,-0.9118,-0.9259,-0.9517,-0.9524,-0.9764,-1.0274,-1.0274,-1.0405,-1.0593,-1.07,-1.0747,0.0,0.0,0.0,0.0,0.0,0.0,0.0,0.0,0.0,0.0,0.0,0.0,0.0,0.0,0.0,0.0,0.0,0.0,0.0,0.0,0.0,0.0,0.0,0.0,0.0,0.0,0.0,-0.2197,0.0,-0.2662,-0.3915,-0.2865,-0.2765,-0.3966,-0.4116,-0.477,-0.5979,-0.7335,-0.7988,-0.7988,-0.7988,-0.7985,-0.7968,-0.7729,-0.7597,-0.757,-0.7227,-0.7095,-0.7095,-0.7095,-0.7018,-0.6896,-0.6896,-0.6753,-0.6525,-0.6525,-0.6429,-0.63,-0.63,-0.63,-0.63,-0.63,-0.63,-0.6296,-0.6289,-0.604,-0.58,-0.5861,-0.5686,-0.5458,-0.5458,-0.6761,-0.8059,-0.8027,-0.932,-1.0593,-1.0593,-1.0593,-1.0593,-1.0593,-1.0593,-1.0593,-1.0593,-1.0314,-0.9897,-0.9337,-0.9244,-0.9124,-0.8844,-0.8804,-0.8811,-0.8831,-0.8818,-0.8818,-0.8851,-0.9064,-0.9217,-0.9231,-0.9526,-0.9715,-0.9715,-0.9715,-0.982,-1.0077,-1.0083,-1.0261,-1.0593,-1.0593,-1.0593,-1.06,-1.0894,-1.0995,0.0,0.0,0.0,0.0,0.0,0.0,0.0,0.0,0.0,0.0,0.0,0.0,0.0,0.0,0.0,0.0,0.0,0.0,0.0,0.0,0.0,0.0,0.0,-0.1643,-0.1954,-0.2891,0.0,0.0,-0.4074,-0.3615,-0.3962,-0.462,-0.467,-0.4016,-0.5922,-0.6681,-0.6029,-0.7335,-0.7988,-0.7988,-0.7988,-0.7931,-0.7865,-0.7682,-0.7539,-0.7417,-0.7224,-0.7095,-0.7095,-0.7095,-0.7075,-0.7041,-0.7041,-0.6905,-0.6644,-0.6644,-0.6521,-0.63,-0.63,-0.63,-0.63,-0.63,-0.63,-0.6279,-0.6125,-0.5956,-0.5919,-0.646,-0.6503,-0.6363,-0.6363,-0.767,-0.8812,-0.8156,-0.932,-1.0593,-1.0593,-1.0593,-1.0593,-1.0593,-1.0593,-1.0593,-1.0593,-1.0314,-1.0037,-0.9884,-0.9706,-0.9385,-0.8871,-0.8804,-0.8891,-0.9078,-0.8911,-0.8985,-0.9426,-0.9297,-0.9311,-0.9559,-0.9646,-0.9715,-0.9715,-0.9715,-0.982,-1.0077,-1.0083,-1.0261,-1.0593,-1.0593,-1.0593,-1.06,-1.0894,-1.0995,0.0,0.0,0.0,0.0,0.0,0.0,0.0,0.0,0.0,0.0,0.0,0.0,0.0,0.0,0.0,0.0,0.0,0.0,0.0,-0.0489,-0.09,0.0,-0.2066,0.0,-0.3707,-0.4426,-0.544,0.0,-0.564,-0.5118,-0.572,-0.5927,-0.5927,-0.5772,-0.6628,-0.7033,-0.6883,-0.7637,-0.7988,-0.7988,-0.7921,-0.7892,-0.7804,-0.7594,-0.7451,-0.7409,0.0,-0.7095,-0.7095,-0.7095,-0.7058,-0.7004,-0.7004,-0.6865,-0.66,-0.66,-0.6497,-0.63,-0.63,-0.63,-0.63,-0.63,-0.63,-0.636,-0.6681,-0.6685,-0.674,-0.7633,-0.7669,-0.7437,-0.7437,-0.8364,-0.9172,-0.8678,-0.962,-1.0593,-1.0593,-1.0593,-1.0593,-1.0593,-1.0593,-1.0593,-1.0593,-1.0452,-1.0267,-1.0134,-0.998,-0.9706,-0.9252,-0.9192,-0.9259,-0.9391,-0.9285,-0.9325,-0.9682,-0.9646,-0.967,-0.9866,-0.9993,-1.0097,-1.0097,-1.0097,-1.0177,-1.0307,-1.0314,-1.0425,-1.0593,-1.0593,-1.0593,-1.06,-1.0989,-1.1182,0.0,0.0,0.0,0.0,0.0,0.0,0.0,0.0,0.0,0.0,0.0,0.0,0.0,0.0,0.0,0.0,0.0,0.0,0.0,-0.1178,-0.2007,-0.2012,-0.3366,-0.4718,-0.5879,-0.6179,-0.6734,-0.7889,-0.6933,-0.6781,-0.7939,-0.6883,-0.6783,-0.7939,-0.6883,-0.6833,-0.7988,-0.7988,-0.7978,-0.7958,-0.7875,-0.779,-0.7743,-0.7489,-0.7405,-0.7333,-0.7156,-0.7095,-0.7095,-0.7095,-0.7024,-0.6913,-0.6913,-0.677,-0.6542,-0.6542,-0.6439,-0.63,-0.63,-0.63,-0.63,-0.63,-0.63,-0.649,-0.748,-0.7647,-0.7749,-0.8958,-0.8971,-0.863,-0.8565,-0.9052,-0.9476,-0.9344,-0.9983,-1.0593,-1.0593,-1.0593,-1.0593,-1.0593,-1.0593,-1.0593,-1.0593,-1.0593,-1.0506,-1.0214,-1.0174,-1.0087,-0.9863,-0.9762,-0.9729,-0.974,-0.9735,-0.9749,-0.9822,-0.9993,-1.0134,-1.0174,-1.0445,-1.0593,-1.0593,-1.0593,-1.0593,-1.0593,-1.0593,-1.0593,-1.0593,-1.0593,-1.0613,-1.0667,-1.1176,-1.1415,0.0,0.0,0.0,0.0,0.0,0.0,0.0,0.0,0.0,0.0,0.0,0.0,0.0,0.0,0.0,0.0,0.0,0.0,0.0,0.0,-0.1977,0.0,0.0,0.0,0.0,0.0,0.0,0.0,-0.7789,-0.7736,-0.7988,-0.7786,-0.7736,-0.7988,-0.7786,-0.7786,-0.7988,-0.7988,-0.7928,-0.7848,-0.7824,-0.7682,-0.7444,-0.7439,-0.7302,-0.7136,-0.7109,0.0,-0.7095,-0.7095,-0.7082,-0.7058,-0.7058,-0.6922,-0.6661,-0.6661,-0.6491,-0.63,-0.63,-0.63,-0.63,-0.63,-0.63,-0.649,-0.748,-0.7647,-0.7859,-0.9679,-0.9978,-0.9742,-0.9534,-1.0085,-1.0457,-0.952,-0.9983,-1.0593,-1.0593,-1.0593,-1.0593,-1.0593,-1.0593,-1.0593,-1.0593,-1.0593,-1.0573,-1.0519,-1.0512,-1.0499,-1.0445,-1.0017,-0.9773,-1.0013,-0.9826,-0.9909,-1.0399,-1.0227,-1.0221,-1.0499,-1.0566,-1.0593,-1.0593,-1.0593,-1.0593,-1.0593,-1.0593,-1.0593,-1.0593,-1.0593,-1.0713,-1.0922,-1.1269,-1.1557,0.0,0.0,0.0,0.0,0.0,0.0,0.0,0.0,0.0,0.0,0.0,0.0,0.0,0.0,0.0,0.0,0.0,0.0,0.0,0.0,0.0,0.0,0.0,0.0,0.0,0.0,0.0,0.0,-0.7988,-0.7988,-0.7988,-0.7988,-0.7988,-0.7988,-0.7988,-0.7988,-0.7988,-0.7988,-0.7914,-0.7811,-0.7736,-0.7587,-0.7412,-0.7288,-0.721,-0.7095,-0.7095,-0.7095,-0.7095,-0.7095,-0.7095,-0.7095,-0.7095,-0.6916,-0.6702,-0.6702,-0.6515,-0.63,-0.63,-0.63,-0.63,-0.63,-0.6644,-0.7249,-0.8275,-0.8877,-0.9527,-1.0973,-1.1228,-1.1023,-1.089,-1.0913,-1.0857,-1.0321,-1.0412,-1.0593,-1.0593,-1.0593,-1.0593,-1.0593,-1.0593,-1.0593,-1.0593,-1.0593,-1.0593,-1.0593,-1.0593,-1.0593,-1.0593,-1.0345,-1.0224,-1.0365,-1.0251,-1.0285,-1.0566,-1.0459,-1.0439,-1.0586,-1.0593,-1.0593,-1.0593,-1.0593,-1.0593,-1.0593,-1.0593,-1.0667,-1.0814,-1.0814,-1.0935,-1.1223,-1.1516,-1.173,0.0,0.0,0.0,0.0,0.0,0.0,0.0,0.0,0.0,0.0,0.0,0.0,0.0,0.0,0.0,0.0,0.0,0.0,0.0,0.0,0.0,0.0,0.0,0.0,0.0,0.0,0.0,0.0,-0.7988,-0.7988,-0.7988,-0.7988,-0.7988,-0.7988,-0.7988,-0.7988,-0.7988,-0.7958,-0.7867,-0.7763,-0.7617,-0.7468,-0.7319,-0.7149,-0.7095,-0.7095,-0.7095,-0.7095,-0.7095,-0.7095,-0.7095,-0.7095,-0.7095,-0.6916,-0.6702,-0.6702,-0.6515,-0.63,-0.63,-0.63,-0.63,-0.63,-0.6984,-0.7974,-0.8993,-1.0008,-1.1013,-1.204,-1.2138,-1.1986,-1.1919,-1.1558,-1.1149,-1.1022,-1.0854,-1.0667,-1.0606,-1.0687,-1.074,-1.062,-1.064,-1.0667,-1.06,-1.0593,-1.0593,-1.0593,-1.0593,-1.0593,-1.0593,-1.0593,-1.0593,-1.0593,-1.0593,-1.0593,-1.0593,-1.0593,-1.0593,-1.0593,-1.0593,-1.0593,-1.0593,-1.0593,-1.0593,-1.0593,-1.0653,-1.0801,-1.0995,-1.1056,-1.1236,-1.1523,-1.1799,-1.194,0.0,0.0,0.0,0.0,0.0,0.0,0.0,0.0,0.0,0.0,0.0,0.0,0.0,0.0,0.0,0.0,0.0,0.0,0.0,0.0,0.0,0.0,0.0,0.0,0.0,0.0,0.0,0.0,-0.7988,-0.7988,-0.7988,-0.7988,-0.7988,-0.7988,-0.7988,-0.7988,-0.7988,-0.7899,-0.776,-0.7617,-0.7465,-0.7312,-0.7119,-0.7102,-0.7095,-0.7095,-0.7095,-0.7095,0.0,-0.7095,-0.7095,-0.7095,-0.7095,-0.6916,-0.6702,-0.6702,-0.6515,-0.63,-0.63,-0.63,-0.63,-0.63,-0.6984,-0.7974,-0.8993,-1.0008,-1.1013,-1.204,-1.2285,-1.2204,-1.1973,-1.1866,-1.1692,-1.1122,-1.0969,-1.0914,-1.0646,-1.0975,-1.1189,-1.0693,-1.0807,-1.0901,-1.064,-1.0593,-1.0593,-1.0593,-1.0593,-1.0593,-1.0593,-1.0593,-1.0593,-1.0593,-1.0593,-1.0593,-1.0593,-1.0593,-1.0593,-1.0593,-1.0593,-1.0593,-1.0593,-1.0593,-1.0593,-1.0593,-1.0854,-1.0969,-1.0995,-1.1256,-1.1536,-1.1866,-1.1893,-1.2047,-0.075,-0.0385,0.0,0.0,0.0,0.0,0.0,0.0,0.0,0.0,0.0,0.0,0.0,0.0,0.0,0.0,0.0,0.0,0.0,0.0,0.0,0.0,0.0,0.0,0.0,0.0,0.0,0.0,-0.7988,-0.7988,-0.7988,-0.7988,-0.7988,-0.7988,-0.7901,-0.7902,-0.7902,-0.7756,-0.7607,-0.7461,-0.7446,-0.7288,-0.7095,-0.7095,-0.7095,-0.7095,-0.7095,-0.7095,0.0,-0.7095,-0.7095,-0.7095,-0.7095,-0.6916,-0.6702,-0.6702,-0.6569,-0.6416,-0.633,-0.6741,-0.7305,-0.7246,-0.8309,-0.955,-0.9372,-1.0421,-1.1774,-1.2187,-1.2305,-1.2278,-1.2164,-1.2033,-1.1799,-1.1349,-1.1249,-1.1223,-1.1102,-1.1263,-1.1322,-1.1129,-1.1176,-1.1162,-1.0901,-1.0854,-1.0794,-1.062,-1.0593,-1.0593,-1.0593,-1.0593,-1.0593,-1.0593,-1.0593,-1.0593,-1.0593,-1.0593,-1.0593,-1.0593,-1.0593,-1.0593,-1.0593,-1.0593,-1.0673,-1.0847,-1.0935,-1.1169,-1.1558,-1.1637,-1.1844,-1.2131,-1.2131,-1.2191,-0.123,-0.0637,0.0,0.0,0.0,0.0,0.0,0.0,0.0,0.0,0.0,0.0,0.0,0.0,0.0,0.0,0.0,0.0,0.0,0.0,0.0,0.0,0.0,0.0,0.0,0.0,0.0,0.0,-0.786,-0.786,-0.786,-0.786,-0.788,-0.7921,-0.7828,-0.775,-0.775,-0.7604,-0.7478,-0.7415,-0.7326,-0.7244,-0.7095,-0.7095,-0.7095,-0.7095,-0.7095,-0.7095,0.0,-0.7095,-0.7095,-0.7095,-0.7095,-0.6943,-0.6766,-0.6766,-0.6671,-0.6599,-0.6763,-0.7321,-0.8015,-0.8184,-0.9399,-1.0671,-0.997,-1.0944,-1.2305,-1.2305,-1.2305,-1.2305,-1.2305,-1.2084,-1.1852,-1.1603,-1.1557,-1.153,-1.1409,-1.1529,-1.1595,-1.1422,-1.1496,-1.1463,-1.1169,-1.1122,-1.1022,-1.0767,-1.072,-1.0687,-1.06,-1.0593,-1.0593,-1.0593,-1.0667,-1.0687,-1.06,-1.0593,-1.0593,-1.0593,-1.0593,-1.0593,-1.0593,-1.0673,-1.0814,-1.0989,-1.1162,-1.1491,-1.1906,-1.1993,-1.2104,-1.2305,-1.2305,-1.215,-0.1111,-0.056,0.0,0.0,0.0,0.0,0.0,0.0,0.0,0.0,0.0,0.0,0.0,0.0,0.0,0.0,0.0,0.0,0.0,0.0,0.0,0.0,0.0,0.0,0.0,0.0,0.0,-0.7604,-0.7604,0.0,-0.7604,-0.7604,-0.7668,-0.7811,-0.7675,-0.76,-0.76,-0.7451,-0.7419,-0.7415,-0.7217,-0.7098,-0.7095,-0.7095,-0.7095,-0.7095,-0.7095,-0.7095,0.0,-0.7095,-0.7095,-0.7095,-0.7095,-0.7007,-0.6883,-0.6883,-0.6827,-0.684,-0.7673,-0.8005,-0.8133,-0.9023,-0.997,-1.0783,-1.0783,-1.1502,-1.2305,-1.2305,-1.2305,-1.2305,-1.2305,-1.2084,-1.1906,-1.1899,-1.1899,-1.1784,-1.1455,-1.1884,-1.2118,-1.1502,-1.1663,-1.1806,-1.1435,-1.1389,-1.1289,-1.1035,-1.0989,-1.0882,-1.0626,-1.0593,-1.0593,-1.0593,-1.0847,-1.0875,-1.062,-1.0593,-1.0593,-1.0593,-1.0593,-1.0593,-1.0593,-1.0835,-1.0989,-1.0995,-1.1598,-1.1899,-1.1906,-1.2158,-1.2298,-1.2305,-1.2305,-1.1768,-0.2786,-0.2177,-0.1372,-0.0876,-0.0761,-0.0613,-0.0123,0.0,0.0,0.0,0.0,0.0,0.0,0.0,0.0,0.0,0.0,0.0,0.0,0.0,0.0,0.0,0.0,0.0,0.0,0.0,0.0,-0.76,-0.76,-0.76,-0.76,-0.7502,-0.7512,-0.7662,-0.7519,-0.7444,-0.7444,-0.7292,-0.7214,-0.7214,-0.7119,-0.7095,-0.7095,-0.7095,-0.7095,-0.7095,-0.7095,-0.7095,-0.7095,-0.7095,-0.7095,-0.7095,-0.7095,-0.7011,-0.6886,-0.6886,-0.6856,-0.6863,-0.6961,-0.7929,-0.9183,-0.9264,-1.0458,-1.1848,-1.1848,-1.204,-1.2305,-1.2305,-1.2305,-1.2305,-1.2305,-1.2231,-1.2164,-1.2164,-1.2164,-1.2138,-1.2044,-1.2171,-1.2245,-1.2058,-1.2104,-1.2071,-1.1777,-1.173,-1.163,-1.1329,-1.1255,-1.1256,-1.1162,-1.1149,-1.1149,-1.1149,-1.1236,-1.1169,-1.0914,-1.0855,-1.0855,-1.0855,-1.07,-1.0593,-1.0593,-1.0868,-1.1089,-1.1283,-1.1705,-1.2,-1.2164,-1.1575,-1.0907,-1.0276,-1.0944,-1.0752,0.0,-0.2888,-0.2102,-0.162,-0.1318,-0.0986,-0.0534,-0.0204,0.0,0.0,0.0,0.0,0.0,0.0,0.0,0.0,-0.0281,0.0,0.0,0.0,0.0,0.0,0.0,0.0,0.0,0.0,-0.7428,-0.7428,-0.7428,-0.7428,-0.7428,-0.7336,-0.7329,-0.7424,-0.7333,-0.7285,-0.7285,-0.7142,-0.7095,-0.7095,-0.7095,-0.7095,-0.7095,-0.7095,-0.7095,-0.7095,-0.7095,-0.7095,0.0,-0.7095,-0.7095,-0.7095,-0.7095,-0.7041,-0.6964,-0.6964,-0.693,-0.6977,-0.7535,-0.8542,-0.9722,-1.0247,-1.1285,-1.2305,-1.2305,-1.2305,-1.2305,-1.2305,-1.2305,-1.2305,-1.2305,-1.2305,-1.2305,-1.2305,-1.2305,-1.2305,-1.2305,-1.2305,-1.2305,-1.2305,-1.2305,-1.2245,-1.2064,-1.2067,-1.1931,-1.1637,-1.159,-1.155,-1.1409,-1.1389,-1.1389,-1.1389,-1.1523,-1.1516,-1.1336,-1.1223,-1.1156,-1.1156,-1.0982,-1.0889,-1.0889,-1.1169,-1.141,-1.159,-1.1514,-1.1559,-1.1731,-1.0714,-0.9895,-0.9296,-0.955,-0.9324,0.0,-0.2924,-0.235,-0.2289,-0.1733,-0.117,-0.1112,-0.0544,0.0,0.0,0.0,0.0,0.0,0.0,0.0,0.0,-0.0746,0.0,0.0,0.0,0.0,0.0,0.0,0.0,0.0,-0.7018,-0.7095,-0.7095,-0.7095,-0.7095,-0.7095,-0.7095,-0.7095,-0.7095,-0.7095,-0.7095,-0.7095,-0.7095,-0.7095,-0.7095,-0.7095,-0.7095,-0.7095,-0.7095,-0.7095,0.0,-0.7095,-0.7095,-0.7095,-0.7095,-0.7095,-0.7095,-0.7085,-0.7132,-0.7224,-0.7115,-0.7074,-0.7282,-0.8991,-0.9547,-0.9808,-1.1671,-1.2305,-1.2305,-1.2305,-1.2305,-1.2305,-1.2305,-1.2305,-1.2305,-1.2305,-1.2305,-1.2305,-1.2305,-1.2305,-1.2305,-1.2305,-1.2305,-1.2305,-1.2305,-1.2305,-1.2305,-1.2305,-1.2305,-1.2211,-1.198,-1.194,-1.1839,-1.1489,-1.1455,-1.1455,-1.1455,-1.1737,-1.194,-1.194,-1.163,-1.1422,-1.1422,-1.1402,-1.1389,-1.1389,-1.164,-1.1793,-1.1793,-1.1071,-1.0671,-1.0596,-0.9631,-0.9145,-0.9069,-0.8199,-0.7744,-0.4278,0.0,-0.3823,-0.3253,-0.2526,-0.1807,0.0,-0.0535,0.0,0.0,0.0,0.0,0.0,0.0,0.0,0.0,-0.0869,-0.191,0.0,0.0,0.0,0.0,0.0,0.0,0.0,-0.7078,-0.7095,-0.7095,-0.7095,-0.7095,-0.7095,-0.7095,-0.7095,-0.7095,-0.7095,-0.7095,-0.7095,-0.7095,-0.7095,-0.7095,-0.7095,-0.7095,-0.7095,-0.7095,-0.7095,-0.7095,-0.7095,-0.7095,-0.7095,-0.7095,-0.7095,-0.7085,-0.6977,-0.7563,-0.8333,-0.7225,-0.744,-0.8269,-0.8388,-0.8867,-0.9808,-1.1671,-1.2305,-1.2305,-1.2305,-1.2305,-1.2305,-1.2305,-1.2305,-1.2305,-1.2305,-1.2305,-1.2305,-1.2305,-1.2305,-1.2305,-1.2305,-1.2305,-1.2305,-1.2305,-1.2305,-1.2305,-1.2305,-1.2305,-1.2278,-1.2211,-1.2204,-1.2178,-1.2104,-1.2098,-1.2098,-1.2098,-1.2158,-1.2204,-1.2204,-1.1931,-1.1764,-1.1764,-1.155,-1.1389,-1.1389,-1.0987,-1.0737,-1.0737,-1.0031,-0.9291,-0.8499,-0.8275,-0.7744,-0.7022,-0.7557,-0.7403,-0.4491,-0.4542,-0.4509,-0.4109,-0.3166,-0.2227,-0.1828,0.0,0.0,0.0,0.0,0.0,0.0,0.0,0.0,0.0,-0.123,0.0,0.0,0.0,0.0,0.0,0.0,0.0,0.0,0.0,-0.7095,-0.7095,-0.7095,-0.7095,-0.7095,-0.7095,-0.7095,-0.7095,-0.7095,-0.7095,-0.7095,-0.7095,-0.7095,-0.7095,-0.7095,-0.7095,-0.7095,-0.7095,-0.7095,-0.7095,-0.7095,-0.7058,-0.7001,-0.7001,-0.6957,-0.6889,-0.6854,-0.725,-0.7808,-0.7007,-0.7402,-0.8401,-0.863,-0.9622,-1.0933,-1.1974,-1.2305,-1.2305,-1.2305,-1.2305,-1.2305,-1.2305,-1.2305,-1.2305,-1.2305,-1.2305,-1.2305,-1.2305,-1.2305,-1.2305,-1.2305,-1.2305,-1.2305,-1.2305,-1.2305,-1.2305,-1.2305,-1.2305,-1.2305,-1.2305,-1.2305,-1.2305,-1.2305,-1.2305,-1.2305,-1.2305,-1.2305,-1.2305,-1.2305,-1.2158,-1.2064,-1.2064,-1.1475,-1.1129,-1.1129,-1.0331,-0.9664,-0.922,-0.8821,-0.8127,-0.7099,-0.7099,-0.6834,-0.63,-0.6872,-0.6834,-0.4518,-0.4638,-0.4714,-0.4667,-0.359,-0.249,-0.2447,0.0,0.0,0.0,0.0,0.0,0.0,0.0,0.0,0.0,0.0,0.0,0.0,0.0,0.0,0.0,0.0,0.0,-0.7095,-0.7078,-0.7065,-0.7065,-0.7041,-0.7031,-0.7031,-0.7051,-0.7055,-0.7031,-0.7051,-0.7051,-0.7031,-0.7051,-0.7065,-0.7065,-0.7041,-0.7031,-0.7031,-0.7031,-0.7031,-0.7031,0.0,0.0,-0.6852,-0.6852,-0.6817,-0.6698,-0.6675,-0.6802,-0.6936,-0.6894,-0.7446,-0.8396,-0.9379,-1.0857,-1.2305,-1.2305,-1.2305,-1.2305,-1.2305,-1.2305,-1.2305,-1.2305,-1.2305,-1.2305,-1.2305,-1.2305,-1.2305,-1.2305,-1.2305,-1.2305,-1.2305,-1.2305,-1.2305,-1.2305,-1.2305,-1.2305,-1.2305,-1.2305,-1.2305,-1.2305,-1.2305,-1.2305,-1.2305,-1.2305,-1.2305,-1.2305,-1.215,-1.207,-1.207,-1.1929,-1.1848,-1.1848,-1.1205,-1.0671,-1.0335,-0.9518,-0.858,-0.7595,-0.7553,-0.7138,-0.63,-0.63,-0.63,-0.63,-0.63,-0.63,-0.4648,-0.4769,-0.4823,-0.459,-0.3501,-0.2445,0.0,0.0,0.0,0.0,0.0,0.0,0.0,0.0,0.0,0.0,0.0,0.0,0.0,0.0,0.0,0.0,0.0,-0.7095,-0.7095,-0.6987,-0.6916,-0.6916,-0.6841,-0.6766,-0.6766,-0.6892,-0.6859,-0.6773,-0.6852,-0.6856,-0.677,-0.6856,-0.6916,-0.6916,-0.6831,-0.6766,-0.6766,-0.6766,-0.6766,-0.6766,0.0,-0.6756,-0.6736,-0.6736,-0.6722,-0.6688,-0.6559,-0.7186,-0.8082,-0.7745,-0.8411,-0.9555,-1.0312,-1.1347,-1.2305,-1.2305,-1.2305,-1.2305,-1.2305,-1.2305,-1.2305,-1.2305,-1.2305,-1.2305,-1.2305,-1.2305,-1.2305,-1.2305,-1.2305,-1.2305,-1.2305,-1.2305,-1.2305,-1.2305,-1.2305,-1.2305,-1.2305,-1.2305,-1.2305,-1.2305,-1.2305,-1.2305,-1.2305,-1.2305,-1.2305,-1.2305,-1.1539,-1.1013,-1.1013,-1.0233,-0.975,-0.975,-1.0415,-1.0034,-0.8347,-0.8122,-0.7553,-0.6567,-0.6528,-0.6451,-0.63,-0.63,-0.63,-0.63,-0.63,-0.63,-0.4382,-0.4273,-0.4045,-0.3877,-0.3239,-0.2455,-0.1848,0.0,0.0,0.0,0.0,0.0,0.0,0.0,0.0,0.0,0.0,0.0,0.0,0.0,0.0,0.0,0.0,-0.6902,-0.6902,-0.6844,-0.6807,-0.6807,-0.6742,-0.6702,-0.6702,-0.6766,-0.6773,-0.6702,-0.677,-0.6773,-0.6702,-0.6688,-0.6722,-0.6803,-0.6732,-0.6702,-0.6702,-0.6702,-0.6702,-0.6702,0.0,-0.6654,-0.6576,-0.6576,-0.6532,-0.6497,-0.6426,-0.6749,-0.7383,-0.8261,-0.9319,-1.0416,-1.1285,-1.1922,-1.2305,-1.2305,-1.2305,-1.2305,-1.2305,-1.2305,-1.2305,-1.2305,-1.2305,-1.2305,-1.2305,-1.2305,-1.2305,-1.2305,-1.2305,-1.2305,-1.2305,-1.2305,-1.2305,-1.2305,-1.2305,-1.2305,-1.2305,-1.2305,-1.2305,-1.2305,-1.2305,-1.2305,-1.2305,-1.2305,-1.2077,-1.1545,-1.1087,-1.0596,-1.004,-0.9556,-0.9069,-0.8542,-0.8912,-0.8533,-0.7061,-0.6984,-0.6756,-0.63,-0.63,-0.63,-0.63,-0.63,-0.63,-0.63,-0.63,-0.63,-0.423,-0.3965,-0.3596,-0.3369,0.0,-0.2174,-0.1431,0.0,0.0,0.0,0.0,0.0,0.0,0.0,0.0,0.0,0.0,0.0,0.0,-0.6511,-0.6569,-0.6681,-0.6702,-0.6702,-0.6702,-0.6668,-0.6647,-0.6647,-0.6617,-0.6597,-0.6597,-0.6627,-0.663,-0.66,-0.663,-0.663,-0.66,-0.6521,-0.6538,-0.6647,-0.6614,-0.6597,-0.6597,-0.6597,-0.6597,-0.6597,-0.6597,-0.6532,-0.6463,-0.6463,-0.6399,-0.63,-0.63,-0.6606,-0.7173,-0.8727,-1.0083,-1.1279,-1.2033,-1.2305,-1.2305,-1.2305,-1.2305,-1.2305,-1.2305,-1.2305,-1.2305,-1.2305,-1.2305,-1.2305,-1.2305,-1.2305,-1.2305,-1.2305,-1.2305,-1.2305,-1.2305,-1.2305,-1.2305,-1.2305,-1.2305,-1.2305,-1.2305,-1.2305,-1.2305,-1.2305,-1.2114,-1.1959,-1.1959,-1.1737,-1.1285,-1.0527,-1.0222,-0.9701,-0.8689,-0.858,-0.8275,-0.748,-0.7442,-0.7099,-0.6338,-0.63,-0.63,-0.63,-0.63,-0.63,-0.63,-0.63,-0.63,-0.63,-0.63,-0.63,-0.4433,-0.4453,-0.4243,-0.3485,-0.2353,0.0,-0.1165,0.0,0.0,0.0,0.0,0.0,0.0,0.0,0.0,0.0,0.0,0.0,0.0,0.0,-0.6569,-0.6681,-0.6702,-0.6702,-0.6702,-0.6573,-0.6528,-0.6528,-0.6405,-0.633,-0.633,-0.6457,-0.6467,-0.6334,-0.646,-0.6467,-0.6334,-0.632,-0.6385,-0.6525,-0.6395,-0.633,-0.633,-0.633,-0.633,-0.633,-0.633,-0.6323,-0.6317,-0.6317,-0.631,-0.63,-0.63,-0.7442,-0.9107,-0.9258,-1.0539,-1.2187,-1.2268,-1.2305,-1.2305,-1.2305,-1.2305,-1.2305,-1.2305,-1.2305,-1.2305,-1.2305,-1.2305,-1.2305,-1.2305,-1.2305,-1.2305,-1.2305,-1.2305,-1.2305,-1.2305,-1.2305,-1.2305,-1.2305,-1.2305,-1.2305,-1.2305,-1.2305,-1.2305,-1.2305,-1.1502,-1.0901,-1.0901,-1.0078,-0.9485,-0.941,-0.858,-0.7591,-0.6606,-0.6528,-0.649,-0.6416,-0.6412,-0.6377,-0.63,-0.63,-0.63,-0.63,-0.63,-0.63,-0.63,-0.63,-0.63,-0.63,-0.63,-0.63,-0.4148,-0.3509,-0.2889,-0.3126,0.0,0.0,0.0,0.0,0.0,0.0,0.0,0.0,0.0,0.0,0.0,0.0,0.0,0.0,0.0,-0.6378,-0.6402,-0.646,-0.6467,-0.6467,-0.6467,-0.6416,-0.6378,-0.6378,-0.633,-0.63,-0.63,-0.6351,-0.6354,-0.6303,-0.6354,-0.6354,-0.63,-0.63,-0.6327,-0.6378,-0.6327,-0.63,-0.63,-0.63,-0.63,-0.63,-0.63,-0.63,-0.63,-0.63,-0.6679,-0.7288,-0.7936,-0.9026,-1.0228,-1.0228,-1.1093,-1.2305,-1.2305,-1.2305,-1.2305,-1.2305,-1.2305,-1.2305,-1.2305,-1.2305,-1.2305,-1.2305,-1.2305,-1.2305,-1.2305,-1.2305,-1.2305,-1.2305,-1.2305,-1.2305,-1.2305,-1.2305,-1.2305,-1.2305,-1.2305,-1.2305,-1.2305,-1.1768,-1.1354,-1.1354,-1.049,-0.9857,-0.9857,-0.9523,-0.9069,-0.8428,-0.748,-0.6718,-0.6338,-0.63,-0.63,-0.63,-0.63,-0.63,-0.63,-0.63,-0.63,-0.63,-0.63,-0.63,-0.63,-0.63,-0.63,-0.63,-0.63,-0.63,-0.3705,-0.2941,-0.2294,0.0,0.0,0.0,0.0,0.0,0.0,0.0,0.0,0.0,0.0,0.0,0.0,0.0,0.0,0.0,-0.6009,-0.63,-0.63,-0.63,-0.63,-0.6279,-0.6193,-0.6186,-0.6186,-0.6186,-0.6186,-0.6248,-0.6296,-0.63,-0.6276,-0.619,-0.6276,-0.6276,-0.6186,-0.6276,-0.63,-0.63,-0.63,-0.63,-0.63,-0.63,-0.63,-0.63,-0.63,-0.63,-0.6338,-0.6644,-0.7365,-0.8351,-0.9031,-0.9933,-1.0783,-1.0783,-1.1428,-1.2305,-1.2305,-1.2305,-1.2305,-1.2305,-1.2305,-1.2305,-1.2305,-1.2305,-1.2305,-1.2305,-1.2305,-1.2305,-1.2305,-1.2305,-1.2305,-1.2305,-1.2305,-1.2305,-1.2305,-1.2305,-1.2305,-1.2305,-1.2305,-1.2305,-1.2305,-1.1731,-1.1162,-1.0864,-0.9933,-0.9183,-0.8884,-0.8542,-0.8084,-0.7403,-0.6718,-0.63,-0.63,-0.63,-0.63,-0.63,-0.63,-0.63,-0.63,-0.63,-0.63,-0.63,-0.63,-0.63,-0.63,-0.63,-0.63,-0.63,-0.63,-0.63,-0.3147,-0.2995,0.0,0.0,0.0,0.0,0.0,0.0,0.0,0.0,0.0,0.0,0.0,0.0,0.0,-0.2759,-0.3102,-0.3861,-0.598,-0.6296,-0.6296,-0.6296,-0.6296,-0.6235,-0.6003,-0.599,-0.599,-0.599,-0.599,-0.6095,-0.6286,-0.6296,-0.6186,-0.5993,-0.6176,-0.6183,-0.5993,-0.6179,-0.6296,-0.6296,-0.6296,-0.6296,-0.63,-0.63,-0.63,-0.63,-0.63,-0.63,-0.6377,-0.7403,-0.8428,-0.9296,-0.9334,-0.9933,-1.082,-1.082,-1.1428,-1.2305,-1.2305,-1.2305,-1.2305,-1.2305,-1.2305,-1.2305,-1.2305,-1.2305,-1.2305,-1.2305,-1.2305,-1.2305,-1.2298,-1.2298,-1.2298,-1.2305,-1.2305,-1.2305,-1.2298,-1.2298,-1.2298,-1.2298,-1.2268,-1.2268,-1.2261,-1.2268,-1.1922,-1.0938,-0.9927,-0.8917,-0.7897,-0.6911,-0.63,-0.63,-0.63,-0.63,-0.63,-0.63,-0.63,-0.63,-0.63,-0.63,-0.63,-0.63,-0.63,-0.63,-0.63,-0.63,-0.63,-0.63,-0.63,-0.63,-0.63,-0.63,-0.2998,-0.2247,0.0,0.0,0.0,0.0,0.0,0.0,0.0,0.0,0.0,0.0,0.0,0.0,0.0,-0.1833,-0.2576,-0.3451,-0.4845,-0.5565,-0.5939,-0.5939,-0.5939,-0.5918,-0.5874,-0.5871,-0.5871,-0.5871,-0.5871,-0.5888,-0.5935,-0.5939,-0.5915,-0.5871,-0.5915,-0.5915,-0.5871,-0.5915,-0.5993,-0.6098,-0.6098,-0.6156,-0.63,-0.63,-0.63,-0.63,-0.63,-0.6718,-0.748,-0.921,-1.0072,-1.0415,-1.1136,-1.1589,-1.1848,-1.1848,-1.2033,-1.2305,-1.2305,-1.2305,-1.2305,-1.2305,-1.2305,-1.2305,-1.2305,-1.2305,-1.2305,-1.2305,-1.2305,-1.215,-1.1428,-1.1236,-1.1428,-1.215,-1.2305,-1.2114,-1.1391,-1.1236,-1.1236,-1.1236,-1.0683,-1.0421,-1.1124,-1.0078,-0.9026,-0.8723,-0.7817,-0.7099,-0.6795,-0.649,-0.63,-0.63,-0.63,-0.63,-0.63,-0.63,-0.63,-0.63,-0.63,-0.63,-0.63,-0.63,-0.63,-0.63,-0.63,-0.63,-0.63,-0.63,-0.63,-0.63,-0.63,-0.63,-0.2713,0.0,0.0,0.0,0.0,0.0,0.0,0.0,0.0,0.0,0.0,0.0,0.0,0.0,0.0,-0.1429,-0.2324,-0.3278,-0.4336,-0.5254,-0.58,-0.58,-0.58,-0.5779,-0.5722,-0.5718,-0.5718,-0.5718,-0.5718,-0.5742,-0.5796,-0.58,-0.5776,-0.5718,-0.5772,-0.5776,-0.5718,-0.5772,-0.5847,-0.5939,-0.5939,-0.5989,-0.6119,-0.6242,-0.6265,-0.6211,-0.6689,-0.748,-0.8537,-1.0147,-1.105,-1.1465,-1.207,-1.2305,-1.2305,-1.2305,-1.2305,-1.2305,-1.2305,-1.2305,-1.2305,-1.2305,-1.2305,-1.2305,-1.2305,-1.2305,-1.2224,-1.1811,-1.1694,-1.1471,-1.0453,-1.019,-1.034,-1.095,-1.1099,-1.0944,-1.034,-1.019,-1.019,-1.019,-0.9707,-0.9485,-1.0115,-0.9216,-0.8275,-0.7859,-0.6949,-0.63,-0.63,-0.63,-0.63,-0.63,-0.63,-0.63,-0.63,-0.63,-0.63,-0.63,-0.63,-0.63,-0.63,-0.63,-0.63,-0.63,-0.63,-0.63,-0.63,-0.63,-0.63,-0.63,-0.63,-0.63,0.0,0.0,0.0,0.0,0.0,0.0,0.0,0.0,0.0,0.0,0.0,0.0,0.0,0.0,-0.0315,-0.1289,-0.2273,-0.3207,-0.4209,-0.5146,-0.5762,-0.5762,-0.5762,-0.5708,-0.5583,-0.5569,-0.5569,-0.5569,-0.5569,-0.5627,-0.5752,-0.5762,-0.5701,-0.5572,-0.5694,-0.5698,-0.5569,-0.5698,-0.5769,-0.5783,-0.5783,-0.5783,-0.5793,-0.6139,-0.6246,-0.6241,-0.7517,-0.8575,-0.9523,-1.0527,-1.1465,-1.2305,-1.2305,-1.2305,-1.2305,-1.2305,-1.2305,-1.2305,-1.2305,-1.2305,-1.2305,-1.2305,-1.2305,-1.2305,-1.2305,-1.2305,-1.2077,-1.1087,-1.0783,-1.0559,-0.9442,-0.915,-0.9145,-0.9036,-0.9188,-0.9263,-0.9183,-0.915,-0.915,-0.915,-0.9074,-0.9074,-0.9145,-0.9074,-0.8732,-0.7783,-0.6868,-0.63,-0.63,-0.63,-0.63,-0.63,-0.63,-0.63,-0.63,-0.63,-0.63,-0.63,-0.63,-0.63,-0.63,-0.63,-0.63,-0.63,-0.63,-0.63,-0.63,-0.63,-0.63,-0.63,-0.63,-0.63,0.0,0.0,0.0,0.0,0.0,0.0,0.0,0.0,0.0,0.0,0.0,0.0,0.0,0.0,-0.0068,-0.0306,-0.17,-0.2827,-0.3065,-0.4462,-0.5491,-0.5491,-0.5491,-0.5477,-0.5446,-0.5443,-0.5443,-0.5443,-0.5443,-0.5457,-0.5487,-0.5491,-0.5477,-0.5446,-0.5474,-0.5474,-0.5443,-0.5474,-0.5549,-0.5637,-0.5637,-0.5637,-0.5647,-0.5945,-0.6576,-0.7495,-0.9374,-1.0297,-1.0565,-1.1545,-1.2114,-1.2305,-1.2305,-1.2305,-1.2305,-1.2305,-1.2305,-1.2305,-1.2305,-1.2305,-1.2305,-1.2305,-1.2305,-1.2305,-1.2305,-1.2305,-1.2077,-1.1087,-1.0783,-1.0372,-0.8575,-0.8122,-0.7936,-0.7138,-0.8161,-0.9069,-0.8275,-0.8122,-0.8122,-0.8122,-0.748,-0.7215,-0.7974,-0.748,-0.6872,-0.6644,-0.6451,-0.63,-0.63,-0.63,-0.63,-0.63,-0.63,-0.63,-0.63,-0.63,-0.63,-0.63,-0.63,-0.63,-0.63,-0.63,-0.63,-0.63,-0.63,-0.63,-0.63,-0.63,-0.63,-0.63,-0.63,-0.63,0.0,0.0,0.0,0.0,0.0,0.0,0.0,0.0,0.0,0.0,0.0,0.0,0.0,0.0,0.0,0.0,-0.1509,-0.2711,-0.2711,-0.4251,-0.5395,-0.5395,-0.5395,-0.5395,-0.5395,-0.5395,-0.5395,-0.5395,-0.5395,-0.5395,-0.5395,-0.5395,-0.5395,-0.5395,-0.5395,-0.5395,-0.5395,-0.5395,-0.5629,-0.6142,-0.6142,-0.6388,-0.6855,-0.6702,-0.7245,-0.8384,-0.9939,-1.0672,-1.0889,-1.1737,-1.2178,-1.2305,-1.2305,-1.2305,-1.2305,-1.2305,-1.2305,-1.2305,-1.2305,-1.2305,-1.2305,-1.2305,-1.2305,-1.2305,-1.2305,-1.1959,-1.1354,-1.0378,-0.9739,-0.9021,-0.7476,-0.7099,-0.6949,-0.6416,-0.7099,-0.7706,-0.7215,-0.7099,-0.7099,-0.7099,-0.6641,-0.6451,-0.6984,-0.6644,-0.63,-0.63,-0.63,-0.63,-0.63,-0.63,-0.63,-0.63,-0.63,-0.63,-0.63,-0.63,-0.63,-0.63,-0.63,-0.63,-0.63,-0.63,-0.63,-0.63,-0.63,-0.63,-0.63,-0.63,-0.63,-0.63,-0.63,-0.63,0.0,0.0,0.0,0.0,0.0,0.0,0.0,0.0,0.0,0.0,0.0,0.0,0.0,0.0,0.0,0.0,-0.1493,-0.2677,-0.2657,-0.4221,-0.5354,-0.5354,-0.5378,-0.5395,-0.5395,-0.5395,-0.5395,-0.5395,-0.5395,-0.5395,-0.5395,-0.5395,-0.5395,-0.5395,-0.5395,-0.5458,-0.562,-0.562,-0.6075,-0.6915,-0.6915,-0.7428,-0.8384,-0.791,-0.8184,-0.9062,-1.0116,-1.0737,-1.104,-1.1634,-1.2074,-1.2305,-1.2305,-1.2305,-1.2305,-1.2305,-1.2305,-1.2305,-1.2305,-1.2305,-1.2305,-1.2305,-1.2305,-1.2268,-1.2077,-1.1465,-1.0559,-0.9367,-0.8428,-0.7553,-0.6567,-0.63,-0.63,-0.63,-0.63,-0.63,-0.63,-0.63,-0.63,-0.63,-0.63,-0.63,-0.63,-0.63,-0.63,-0.63,-0.63,-0.63,-0.63,-0.63,-0.63,-0.63,-0.63,-0.63,-0.63,-0.63,-0.63,-0.63,-0.63,-0.63,-0.63,-0.63,-0.63,-0.63,-0.63,-0.63,-0.63,-0.63,-0.63,-0.63,-0.63,-0.63,0.0,0.0,0.0,0.0,0.0,0.0,0.0,0.0,0.0,0.0,0.0,0.0,0.0,0.0,0.0,0.0,-0.1426,-0.2542,-0.2511,-0.4033,-0.513,-0.513,-0.5281,-0.5395,-0.5395,-0.5395,-0.5395,-0.5395,-0.5395,-0.5395,-0.5395,-0.5395,-0.5395,-0.5395,-0.5395,-0.5752,-0.6527,-0.6523,-0.6948,-0.7832,-0.7832,-0.8306,-0.9165,-0.9314,-0.9525,-0.9822,-1.0849,-1.1434,-1.1774,-1.1848,-1.2074,-1.2305,-1.2305,-1.2305,-1.2305,-1.2305,-1.2305,-1.2305,-1.2305,-1.2305,-1.2305,-1.2305,-1.2305,-1.215,-1.1279,-1.0901,-1.0409,-0.8537,-0.7897,-0.7553,-0.6567,-0.63,-0.63,-0.63,-0.63,-0.63,-0.63,-0.63,-0.63,-0.63,-0.63,-0.63,-0.63,-0.63,-0.63,-0.63,-0.63,-0.63,-0.63,-0.63,-0.63,-0.63,-0.63,-0.63,-0.63,-0.63,-0.63,-0.63,-0.63,-0.63,-0.63,-0.63,-0.63,-0.63,-0.63,-0.63,-0.63,-0.63,-0.63,-0.63,-0.63,-0.63,0.0,0.0,0.0,0.0,0.0,0.0,0.0,0.0,0.0,0.0,0.0,0.0,0.0,0.0,0.0,0.0,-0.1397,-0.2501,-0.2504,-0.3947,-0.4982,-0.4982,-0.5074,-0.5145,-0.5223,-0.5233,-0.5233,-0.5233,-0.5344,-0.5358,-0.5237,-0.5347,-0.5395,-0.5395,-0.5395,-0.5815,-0.6687,-0.6687,-0.7372,-0.8748,-0.923,-0.9652,-1.0015,-1.0135,-1.0305,-1.0531,-1.0975,-1.1349,-1.161,-1.1443,-1.165,-1.2094,-1.2094,-1.2158,-1.2305,-1.2305,-1.2305,-1.2305,-1.2305,-1.2305,-1.2305,-1.2305,-1.2305,-1.2114,-1.1087,-1.0415,-0.9669,-0.8199,-0.7403,-0.6872,-0.6416,-0.63,-0.63,-0.63,-0.63,-0.63,-0.63,-0.63,-0.63,-0.63,-0.63,-0.63,-0.63,-0.63,-0.63,-0.63,-0.63,-0.63,-0.63,-0.63,-0.63,-0.63,-0.63,-0.63,-0.63,-0.63,-0.63,-0.63,-0.63,-0.63,-0.63,-0.63,-0.63,-0.63,-0.63,-0.63,-0.63,-0.63,-0.63,-0.63,-0.63,-0.63,0.0,0.0,0.0,0.0,0.0,0.0,0.0,0.0,0.0,0.0,0.0,0.0,0.0,0.0,0.0,0.0,-0.1209,-0.2198,-0.2397,-0.3673,-0.4646,-0.483,-0.4867,-0.4931,-0.5036,-0.5046,-0.5046,-0.5046,-0.5186,-0.5199,-0.5052,-0.522,-0.5337,-0.5337,-0.5375,-0.5914,-0.7013,-0.7465,-0.835,-0.9626,-1.0301,-1.0593,-1.0593,-1.0593,-1.0713,-1.0882,-1.0882,-1.1049,-1.1262,-1.1082,-1.1296,-1.1764,-1.1873,-1.2004,-1.2204,-1.2271,-1.2305,-1.2305,-1.2305,-1.215,-1.1922,-1.1922,-1.1737,-1.136,-1.034,-0.9513,-0.8694,-0.7706,-0.6872,-0.63,-0.63,-0.63,-0.63,-0.63,-0.63,-0.63,-0.63,-0.63,-0.63,-0.63,-0.63,-0.63,-0.63,-0.63,-0.63,-0.63,-0.63,-0.63,-0.63,-0.63,-0.63,-0.63,-0.63,-0.63,-0.63,-0.63,-0.63,-0.63,-0.63,-0.63,-0.63,-0.63,-0.63,-0.63,-0.63,-0.63,-0.63,-0.63,-0.63,-0.63,-0.63,-0.63,0.0,0.0,0.0,0.0,0.0,0.0,0.0,0.0,0.0,0.0,0.0,0.0,0.0,0.0,0.0,0.0,-0.066,-0.1419,-0.2106,-0.3056,-0.3937,-0.4613,-0.483,-0.4891,-0.4897,-0.4897,-0.4897,-0.4897,-0.4908,-0.4908,-0.4897,-0.5032,-0.511,-0.511,-0.5284,-0.621,-0.7929,-0.9582,-1.0428,-1.053,-1.0593,-1.0593,-1.0593,-1.0593,-1.06,-1.0613,-1.0613,-1.078,-1.1015,-1.1002,-1.1176,-1.1442,-1.1792,-1.1913,-1.196,-1.2204,-1.2305,-1.2305,-1.2305,-1.1694,-1.0901,-1.0901,-1.0228,-0.9258,-0.8275,-0.7936,-0.7672,-0.6679,-0.6338,-0.63,-0.63,-0.63,-0.63,-0.63,-0.63,-0.63,-0.63,-0.63,-0.63,-0.63,-0.63,-0.63,-0.63,-0.63,-0.63,-0.63,-0.63,-0.63,-0.63,-0.63,-0.63,-0.63,-0.63,-0.63,-0.63,-0.63,-0.63,-0.63,-0.63,-0.63,-0.63,-0.63,-0.63,-0.63,-0.63,-0.63,-0.63,-0.63,-0.63,-0.63,-0.63,-0.63,0.0,0.0,0.0,0.0,0.0,0.0,0.0,0.0,0.0,0.0,0.0,0.0,0.0,0.0,0.0,0.0,-0.1014,-0.1905,-0.2154,-0.3349,-0.4285,-0.4545,-0.4621,-0.4663,-0.4762,-0.4772,-0.4772,-0.4772,-0.4863,-0.4877,-0.4779,-0.4914,-0.4965,-0.4965,-0.5135,-0.6092,-0.7994,-0.9166,-1.0047,-1.0593,-1.0593,-1.0593,-1.0593,-1.0593,-1.0593,-1.0593,-1.0593,-1.0646,-1.0747,-1.0747,-1.0882,-1.1176,-1.147,-1.1703,-1.194,-1.2191,-1.2305,-1.2305,-1.2305,-1.1657,-1.0783,-1.0783,-1.0115,-0.9107,-0.8084,-0.7783,-0.7595,-0.6567,-0.63,-0.63,-0.63,-0.63,-0.63,-0.63,-0.63,-0.63,-0.63,-0.63,-0.63,-0.63,-0.63,-0.63,-0.63,-0.63,-0.63,-0.63,-0.63,-0.63,-0.63,-0.63,-0.63,-0.63,-0.63,-0.63,-0.63,-0.63,-0.63,-0.63,-0.63,-0.63,-0.63,-0.63,-0.63,-0.63,-0.63,-0.63,-0.63,-0.63,-0.63,-0.63,-0.63,-0.63,0.0,0.0,0.0,0.0,0.0,0.0,0.0,0.0,0.0,0.0,0.0,0.0,0.0,0.0,0.0,0.0,-0.1034,-0.1925,-0.2174,-0.3287,-0.4211,-0.446,-0.4491,-0.4532,-0.4634,-0.4641,-0.4641,-0.4641,-0.4707,0.0,-0.4648,-0.4758,-0.4887,-0.4958,-0.541,-0.6407,-0.7994,-0.8877,-0.9722,-1.0593,-1.0593,-1.0593,-1.0593,-1.0593,-1.0593,-1.0593,-1.0593,-1.0593,-1.0593,-1.0593,-1.0707,-1.0875,-1.1169,-1.1403,-1.1645,-1.1904,-1.2004,-1.1975,-1.1644,-1.09,-1.003,-0.9776,-0.9025,-0.8072,-0.7498,-0.7288,-0.7176,-0.649,-0.63,-0.63,-0.63,-0.63,-0.63,-0.63,-0.63,-0.63,-0.63,-0.63,-0.63,-0.63,-0.63,-0.63,-0.63,-0.63,-0.63,-0.63,-0.63,-0.63,-0.63,-0.63,-0.63,-0.63,-0.63,-0.63,-0.63,-0.63,-0.63,-0.63,-0.63,-0.63,-0.63,-0.63,-0.63,-0.63,-0.63,-0.63,-0.63,-0.63,-0.63,-0.63,-0.63,-0.63,0.0,0.0,0.0,0.0,0.0,0.0,0.0,0.0,0.0,0.0,0.0,0.0,0.0,0.0,0.0,0.0,-0.0615,-0.1369,-0.2093,-0.2843,-0.3594,-0.4405,-0.4491,-0.4491,-0.4491,-0.4491,-0.4491,-0.4491,-0.4491,-0.4491,-0.4491,-0.4631,-0.4816,-0.5076,-0.6092,-0.7065,-0.7952,-0.8807,-0.969,-1.0561,-1.0561,-1.0593,-1.0593,-1.0593,-1.0593,-1.0593,-1.0593,-1.0593,-1.0593,-1.0593,-1.0593,-1.062,-1.0914,-1.0995,-1.1029,-1.1282,-1.1389,-1.1286,-1.0418,-0.9434,-0.8483,-0.7752,-0.6826,-0.6013,-0.6242,-0.6289,-0.6293,-0.6293,-0.6296,-0.63,-0.63,-0.63,-0.63,-0.63,-0.63,-0.63,-0.63,-0.63,-0.63,-0.63,-0.63,-0.63,-0.63,-0.63,-0.63,-0.63,-0.63,-0.63,-0.63,-0.63,-0.63,-0.63,-0.63,-0.63,-0.63,-0.63,-0.63,-0.63,-0.63,-0.63,-0.63,-0.63,-0.63,-0.63,-0.63,-0.63,-0.63,-0.63,-0.63,-0.63,-0.63,-0.63,0.0,0.0,0.0,0.0,0.0,0.0,0.0,0.0,0.0,0.0,0.0,0.0,0.0,0.0,0.0,0.0,-0.0615,-0.1369,-0.2093,-0.2871,-0.3652,-0.4405,-0.4491,-0.4491,-0.4491,-0.4491,-0.4491,0.0,-0.4491,-0.4491,-0.4491,-0.4532,-0.4641,-0.4806,-0.5204,-0.5864,-0.684,-0.7237,-0.8188,-0.9658,-0.9658,-0.9983,-1.0593,-1.0593,-1.0593,-1.0593,-1.0593,-1.0593,-1.0593,-1.0593,-1.0593,-1.062,-1.0914,-1.0995,-1.1029,-1.1282,-1.1389,-1.1286,-1.0418,-0.9434,-0.8458,-0.7628,-0.6685,-0.5871,-0.5915,-0.6006,-0.6095,-0.6095,-0.6173,-0.63,-0.63,-0.63,-0.63,-0.63,-0.63,-0.63,-0.63,-0.63,-0.63,-0.63,-0.63,-0.63,-0.63,-0.63,-0.63,-0.63,-0.63,-0.63,-0.63,-0.63,-0.63,-0.63,-0.63,-0.63,-0.63,-0.63,-0.63,-0.63,-0.63,-0.63,-0.63,-0.63,-0.63,-0.63,-0.63,-0.63,-0.63,-0.63,-0.63,-0.63,-0.63,-0.63,0.0,0.0,0.0,0.0,0.0,0.0,0.0,0.0,0.0,0.0,0.0,0.0,0.0,0.0,0.0,0.0,-0.0364,-0.1006,-0.2063,-0.2871,-0.3652,-0.4405,-0.4491,-0.4491,-0.4491,-0.4491,-0.4491,-0.4491,-0.4491,-0.4491,-0.4491,-0.4549,-0.4627,-0.4687,-0.484,-0.5382,-0.6383,-0.6863,-0.7866,-0.9306,-0.9658,-1.011,-1.0593,-1.0593,-1.0593,-1.0593,-1.0593,-1.0593,-1.0593,-1.0593,-1.0593,-1.0613,-1.078,-1.0847,-1.0803,-1.0599,-1.0524,-1.0351,-0.9125,-0.8307,-0.7678,-0.6867,-0.6198,-0.5725,-0.5783,-0.5864,-0.5909,-0.5976,-0.6142,-0.63,-0.63,-0.63,-0.63,-0.63,-0.63,-0.63,-0.63,-0.63,-0.63,-0.63,-0.63,-0.63,-0.63,-0.63,-0.63,-0.63,-0.63,-0.63,-0.63,-0.63,-0.63,-0.63,-0.63,-0.63,-0.63,-0.63,-0.63,-0.63,-0.63,-0.63,-0.63,-0.63,-0.63,-0.63,-0.63,-0.63,-0.63,-0.63,-0.63,-0.63,-0.63,-0.63,0.0,0.0,0.0,0.0,0.0,0.0,0.0,0.0,0.0,0.0,0.0,0.0,0.0,0.0,0.0,0.0,0.0,-0.0474,-0.1868,-0.2702,-0.3483,-0.4267,-0.4432,-0.4491,-0.4491,-0.4491,-0.4491,-0.4491,-0.4491,-0.4491,-0.4491,-0.4621,-0.4667,-0.4667,-0.4813,-0.5319,-0.62,-0.7008,-0.7975,-0.9131,-0.9932,-1.0396,-1.0593,-1.0593,-1.0593,-1.0593,-1.0593,-1.0593,-1.0593,-1.0593,-1.0593,-1.0593,-1.0593,-1.0593,-1.0491,-0.9626,-0.9306,-0.9043,-0.7307,-0.6687,-0.6585,-0.5821,-0.5566,-0.5589,-0.5715,-0.5766,-0.581,-0.5925,-0.6115,-0.6276,-0.6276,-0.6286,-0.6296,-0.6279,-0.6286,-0.6289,-0.6255,-0.6262,-0.6269,-0.6252,-0.6276,-0.63,-0.63,-0.63,-0.63,-0.63,-0.63,-0.63,-0.63,-0.63,-0.63,-0.63,-0.63,-0.63,-0.63,-0.63,-0.63,-0.63,-0.63,-0.63,-0.63,-0.63,-0.63,-0.63,-0.63,-0.63,-0.63,-0.63,-0.63,-0.63,-0.63,-0.63,0.0,0.0,0.0,0.0,0.0,0.0,0.0,0.0,0.0,0.0,0.0,0.0,0.0,0.0,0.0,0.0,0.0,0.0,-0.1197,-0.1952,-0.2704,-0.3456,-0.4098,-0.4491,-0.4491,-0.4491,-0.4491,-0.4491,-0.4491,-0.4491,-0.4491,-0.4518,-0.4535,-0.4535,-0.4657,-0.4836,-0.5041,-0.5408,-0.6427,-0.8032,-0.835,-0.9224,-1.0593,-1.0593,-1.0593,-1.0593,-1.0593,-1.0593,-1.0593,-1.0593,-1.0593,-1.0593,-1.0593,-1.0593,-1.0491,-0.9626,-0.9306,-0.9043,-0.7307,-0.6687,-0.6564,-0.5722,-0.544,-0.5443,-0.5474,-0.5569,-0.5661,-0.5803,-0.5956,-0.6074,-0.6074,-0.6166,-0.6269,-0.6105,-0.6169,-0.6231,-0.5945,-0.5989,-0.604,-0.5915,-0.6129,-0.63,-0.63,-0.63,-0.63,-0.63,-0.63,-0.63,-0.63,-0.63,-0.63,-0.63,-0.63,-0.63,-0.63,-0.63,-0.63,-0.63,-0.63,-0.63,-0.63,-0.63,-0.63,-0.63,-0.63,-0.63,-0.63,-0.63,-0.63,-0.63,-0.63,-0.63,0.0,0.0,0.0,0.0,0.0,0.0,0.0,0.0,0.0,0.0,0.0,0.0,0.0,0.0,0.0,0.0,0.0,0.0,0.0,-0.1837,-0.2482,-0.3204,-0.4015,-0.4491,-0.4491,-0.4491,-0.4491,-0.4491,-0.4491,-0.4491,-0.4491,-0.4491,-0.4491,-0.4491,-0.4563,-0.4641,-0.4691,-0.5328,-0.6131,-0.7068,-0.8143,-0.9102,-0.9977,-1.0396,-1.0593,-1.0593,-1.0593,-1.0593,-1.0593,-1.0593,-1.0593,-1.0593,-1.0593,-1.0333,-0.9849,-0.8973,-0.8388,-0.7832,-0.6498,-0.6042,-0.5976,-0.5557,-0.5395,-0.5395,-0.5395,-0.5501,-0.5603,-0.5677,-0.5857,-0.5976,-0.5935,-0.603,-0.6105,-0.5952,-0.5976,-0.5989,-0.5833,-0.5861,-0.5891,-0.5817,-0.5925,-0.6054,-0.6132,-0.6146,-0.6173,-0.6286,-0.63,-0.63,-0.63,-0.63,-0.63,-0.63,-0.63,-0.63,-0.63,-0.63,-0.63,-0.63,-0.63,-0.63,-0.63,-0.63,-0.63,-0.63,-0.63,-0.63,-0.63,-0.63,-0.63,-0.63,-0.63,-0.63,0.0,0.0,0.0,0.0,0.0,0.0,0.0,0.0,0.0,0.0,0.0,0.0,0.0,0.0,0.0,0.0,0.0,0.0,0.0,0.0,0.0,-0.3111,-0.3917,-0.445,-0.445,-0.4423,-0.4426,-0.4487,-0.4436,-0.4429,-0.4487,-0.4491,-0.4491,-0.4491,-0.4491,-0.4549,-0.4675,-0.5494,-0.6056,-0.6395,-0.7985,-0.8933,-0.9338,-1.0047,-1.0428,-1.0593,-1.0593,-1.0593,-1.0593,-1.0593,-1.0593,-1.0593,-1.0593,-1.0079,-0.9204,-0.8323,-0.7437,-0.6588,-0.5686,-0.5395,-0.5395,-0.5395,-0.5395,-0.5395,-0.5395,-0.5481,-0.5545,-0.5545,-0.5739,-0.5882,-0.5793,-0.5874,-0.5909,-0.5796,-0.5783,-0.5786,-0.5728,-0.5739,-0.5752,-0.5722,-0.5718,-0.5772,-0.5919,-0.5949,-0.6027,-0.619,-0.6235,-0.6255,-0.6255,-0.6282,-0.63,-0.63,-0.63,-0.63,-0.63,-0.63,-0.63,-0.63,-0.63,-0.63,-0.63,-0.63,-0.63,-0.63,-0.63,-0.6286,-0.6255,-0.6255,-0.6272,-0.63,-0.63,-0.63,0.0,0.0,0.0,0.0,0.0,0.0,0.0,0.0,0.0,0.0,0.0,0.0,0.0,0.0,0.0,0.0,0.0,0.0,0.0,0.0,0.0,-0.2754,-0.3643,-0.4247,-0.4247,-0.4126,-0.4178,-0.447,-0.4219,-0.4185,-0.4477,-0.4491,-0.4491,-0.4491,-0.4491,-0.4498,-0.4515,-0.4751,-0.5314,-0.6229,-0.6573,-0.7648,-0.9306,-0.9402,-0.9881,-1.0593,-1.0593,-1.0593,-1.0593,-1.0593,-1.0593,-1.0593,-1.0593,-1.0079,-0.9204,-0.8323,-0.7437,-0.6588,-0.5686,-0.5395,-0.5395,-0.5395,-0.5395,-0.5395,-0.5395,-0.5405,-0.5423,-0.5423,-0.5542,-0.5637,-0.5616,-0.5722,-0.5789,-0.5647,-0.5708,-0.5728,-0.5501,-0.5552,-0.5576,-0.547,-0.5443,-0.5535,-0.5779,-0.5827,-0.5833,-0.585,-0.5969,-0.602,-0.602,-0.6176,-0.63,-0.63,-0.63,-0.63,-0.63,-0.63,-0.63,-0.63,-0.63,-0.63,-0.63,-0.63,-0.63,-0.63,-0.63,-0.6193,-0.602,-0.602,-0.6125,-0.63,-0.63,-0.63,0.0,0.0,0.0,0.0,0.0,0.0,0.0,0.0,0.0,0.0,0.0,0.0,0.0,0.0,0.0,0.0,0.0,0.0,0.0,0.0,0.0,0.0,0.0,0.0,-0.4082,-0.4031,-0.4082,-0.4321,-0.4115,-0.4148,-0.4474,-0.4491,-0.4491,-0.4491,-0.4491,-0.4491,-0.4491,-0.4641,-0.4938,-0.5453,-0.6082,-0.7148,-0.8549,-0.9075,-0.9786,-1.0593,-1.0593,-1.0593,-1.0593,-1.0593,-1.0593,-1.0593,-1.0593,-0.9748,-0.8517,-0.8124,-0.7116,-0.5881,-0.5524,-0.5395,-0.5395,-0.5395,-0.5395,-0.5395,-0.5395,-0.5395,-0.5395,-0.5395,-0.5504,-0.5569,-0.5515,-0.5566,-0.564,-0.5528,-0.5535,-0.5545,-0.5423,-0.5446,-0.5474,-0.5405,-0.5395,-0.5433,-0.5559,-0.562,-0.5705,-0.5789,-0.5857,-0.5928,-0.5979,-0.601,-0.603,-0.6118,-0.6047,-0.603,-0.6118,-0.6129,-0.6166,-0.6293,-0.63,-0.63,-0.63,-0.63,-0.6255,-0.6129,-0.6129,-0.6051,-0.5898,-0.5898,-0.5928,-0.5996,-0.6084,-0.6078,0.0,0.0,0.0,0.0,0.0,0.0,0.0,0.0,0.0,0.0,0.0,0.0,0.0,0.0,0.0,0.0,0.0,0.0,0.0,0.0,0.0,0.0,0.0,0.0,0.0,-0.391,-0.3927,-0.4174,-0.4008,-0.4063,-0.447,-0.4491,-0.4491,-0.4491,-0.4491,-0.4491,-0.4491,-0.46,-0.4704,-0.4857,-0.5616,-0.6535,-0.7582,-0.8522,-0.9428,-1.0269,-1.0498,-1.0593,-1.0593,-1.0593,-1.046,-1.0238,-1.0238,-0.916,-0.767,-0.7929,-0.6892,-0.5395,-0.5395,-0.5395,-0.5395,-0.5395,-0.5395,-0.5395,-0.5395,-0.5395,-0.5395,-0.5395,-0.5477,-0.5535,-0.5423,-0.5477,-0.5532,-0.5423,-0.5395,-0.5395,-0.5395,-0.5395,-0.5395,-0.5395,-0.5395,-0.5395,-0.5395,-0.5487,-0.5562,-0.5667,-0.5718,-0.5783,-0.5895,-0.5844,-0.5844,-0.5919,-0.5867,-0.5847,-0.5922,-0.5929,-0.6034,-0.6186,-0.6235,-0.6235,-0.6235,-0.6276,-0.6207,-0.5936,-0.5973,-0.5899,-0.5742,-0.5742,-0.5577,-0.5329,-0.5729,-0.5772,0.0,0.0,0.0,0.0,0.0,0.0,0.0,0.0,0.0,0.0,0.0,0.0,0.0,0.0,0.0,0.0,0.0,0.0,0.0,0.0,0.0,0.0,0.0,0.0,0.0,-0.3651,-0.3638,0.0,-0.3843,-0.3873,-0.4457,-0.4491,-0.4491,-0.4491,-0.4491,-0.4491,-0.4491,-0.4494,-0.4576,-0.4701,-0.4883,-0.5489,-0.6495,-0.7545,-0.8517,-0.9402,-1.0238,-1.0593,-1.0593,-1.0593,-1.011,-0.9338,-0.9338,-0.8285,-0.685,-0.7697,-0.6892,-0.5395,-0.5395,-0.5395,-0.5395,-0.5395,-0.5395,-0.5395,-0.5395,-0.5395,-0.5395,-0.5395,-0.5399,-0.5402,-0.5395,-0.5399,-0.5399,-0.5395,-0.5395,-0.5395,-0.5395,-0.5395,-0.5395,-0.5395,-0.5395,-0.5395,-0.5395,-0.5399,-0.5402,-0.5409,-0.5535,-0.5599,-0.5603,-0.5722,-0.5803,-0.581,-0.5803,-0.5803,-0.581,-0.581,-0.5874,-0.599,-0.6,-0.6,-0.6,-0.6179,-0.6156,-0.5817,-0.5919,-0.5888,-0.5596,-0.5596,-0.5068,-0.41,-0.5243,-0.534,0.0,0.0,0.0,0.0,0.0,0.0,0.0,0.0,0.0,0.0,0.0,0.0,0.0,0.0,0.0,0.0,0.0,0.0,0.0,0.0,0.0,0.0,0.0,0.0,0.0,0.0,0.0,0.0,-0.3721,0.0,-0.4457,-0.4491,-0.4491,-0.4491,-0.4491,-0.4491,-0.4491,-0.4491,-0.4617,-0.4843,-0.4864,-0.5507,-0.6597,-0.6982,-0.76,-0.8484,-0.9364,-0.9428,-0.8935,-0.9492,-0.9236,-0.8452,-0.8452,-0.773,-0.6752,-0.7046,-0.64,-0.5395,-0.5395,-0.5395,-0.5395,-0.5395,-0.5395,-0.5395,-0.5395,-0.5395,-0.5395,-0.5395,-0.5395,-0.5395,-0.5395,-0.5395,-0.5395,-0.5395,-0.5395,-0.5395,-0.5395,-0.5395,-0.5395,-0.5395,-0.5395,-0.5395,-0.5395,-0.5395,-0.5395,-0.5395,-0.544,-0.5511,-0.5579,-0.5576,-0.5583,-0.565,-0.5607,-0.5586,-0.5654,-0.5745,-0.5823,-0.5874,-0.5878,-0.5878,-0.5878,-0.5928,-0.5864,-0.5664,-0.5711,-0.564,-0.5474,-0.4855,-0.4358,-0.3982,-0.3818,-0.3588,0.0,0.0,0.0,0.0,0.0,0.0,0.0,0.0,0.0,0.0,0.0,0.0,0.0,0.0,0.0,0.0,0.0,0.0,0.0,0.0,0.0,0.0,0.0,0.0,0.0,0.0,-0.3303,-0.3832,-0.3639,0.0,0.0,-0.4491,-0.4491,-0.4491,-0.4491,-0.4491,-0.4491,-0.4545,-0.4672,-0.484,-0.4914,-0.537,-0.614,-0.6526,-0.7013,-0.76,-0.8452,-0.8517,-0.8059,-0.8613,-0.8323,-0.7535,-0.7535,-0.7013,-0.6268,-0.6593,-0.6137,-0.5395,-0.5395,-0.5395,-0.5395,-0.5395,-0.5395,-0.5395,-0.5395,-0.5395,-0.5395,-0.5395,-0.5395,-0.5395,-0.5395,-0.5395,-0.5395,-0.5395,-0.5395,-0.5395,-0.5395,-0.5395,-0.5395,-0.5395,-0.5395,-0.5395,-0.5395,-0.5395,-0.5395,-0.5395,-0.5395,-0.5429,-0.5532,-0.5457,-0.5433,-0.5532,-0.5453,-0.5436,-0.5535,-0.5593,-0.5667,-0.5722,-0.5725,-0.5725,-0.5725,-0.5776,-0.5708,-0.5545,-0.5562,-0.5375,-0.4891,-0.4284,-0.368,-0.3011,-0.2477,-0.2043]}]]